[[{"header":{"parameterUnit":"m.s-1","parameterCategory":1,"la1":30.6,"la2":28.766,"lo1":-90.7593,"lo2":-88.6598,"dy":0.0162,"dx":0.0183,"nx":116,"ny":114,"refTime":"2024-07-04T12:00:00:Z","depth":0,"parameterNumber":2,"parameterNumberName":"U-component_of_WINDS"},"data":[0.0,0.0,0.0,0.0,0.0,0.0,0.0,0.0,0.0,0.0,0.0,0.0,0.0,0.0,0.0,0.0,0.0,0.0,0.0,0.0,0.0,0.0,0.0,0.0,0.0,0.0,0.0,0.0,0.0,0.0,0.0,0.0,0.0,0.0,0.0,0.0,0.0,0.0,0.0,0.0,0.0,0.0,0.0,0.0,0.0,0.0,0.0,0.0,0.0,0.0,0.0,0.0,0.0,0.0,0.0,0.0,0.0,0.0,0.0,0.0,0.0,0.0,0.0,0.0,0.0,0.0,0.0,0.0,0.0,0.0,0.0,0.0,0.0,0.0,0.0,0.0,0.0,0.0,0.0,0.0,0.0,0.0,0.0,0.0,0.0,0.0,0.0,0.0,0.0,0.0,0.0,0.0,0.0,0.0,0.0,0.0,0.0,0.0,0.0,0.0,0.0,0.0,0.0,0.0,0.0,0.0,0.0,0.0,0.0,0.0,0.0,0.0,0.0,0.0,0.0,0.0,0.0,0.0,0.0,0.0,0.0,0.0,0.0,0.0,0.0,0.0,0.0,0.0,0.0,0.0,0.0,0.0,0.0,0.0,0.0,0.0,0.0,0.0,0.0,0.0,0.0,0.0,0.0,0.0,0.0,0.0,0.0,0.0,0.0,0.0,0.0,0.0,0.0,0.0,0.0,0.0,0.0,0.0,0.0,0.0,0.0,0.0,0.0,0.0,0.0,0.0,0.0,0.0,0.0,0.0,0.0,0.0,0.0,0.0,0.0,0.0,0.0,0.0,0.0,0.0,0.0,0.0,0.0,0.0,0.0,0.0,0.0,0.0,0.0,0.0,0.0,0.0,0.0,0.0,0.0,0.0,0.0,0.0,0.0,0.0,0.0,0.0,0.0,0.0,0.0,0.0,0.0,0.0,0.0,0.0,0.0,0.0,0.0,0.0,0.0,0.0,0.0,0.0,0.0,0.0,0.0,0.0,0.0,0.0,0.0,0.0,0.0,0.0,0.0,0.0,0.0,0.0,0.0,0.0,0.0,0.0,0.0,0.0,0.0,0.0,0.0,0.0,0.0,0.0,0.0,0.0,0.0,0.0,0.0,0.0,0.0,0.0,0.0,0.0,0.0,0.0,0.0,0.0,0.0,0.0,0.0,0.0,0.0,0.0,0.0,0.0,0.0,0.0,0.0,0.0,0.0,0.0,0.0,0.0,0.0,0.0,0.0,0.0,0.0,0.0,0.0,0.0,0.0,0.0,0.0,0.0,0.0,0.0,0.0,0.0,0.0,0.0,0.0,0.0,0.0,0.0,0.0,0.0,0.0,0.0,0.0,0.0,0.0,0.0,0.0,0.0,0.0,0.0,0.0,0.0,0.0,0.0,0.0,0.0,0.0,0.0,0.0,0.0,0.0,0.0,0.0,0.0,0.0,0.0,0.0,0.0,0.0,0.0,0.0,0.0,0.0,0.0,0.0,0.0,0.0,0.0,0.0,0.0,0.0,0.0,0.0,0.0,0.0,0.0,0.0,0.0,0.0,0.0,0.0,0.0,0.0,0.0,0.0,0.0,0.0,0.0,0.0,0.0,0.0,0.0,0.0,0.0,0.0,0.0,0.0,0.0,0.0,0.0,0.0,0.0,0.0,0.0,0.0,0.0,0.0,0.0,0.0,0.0,0.0,0.0,0.0,0.0,0.0,0.0,0.0,0.0,0.0,0.0,0.0,0.0,0.0,0.0,0.0,0.0,0.0,0.0,0.0,0.0,0.0,0.0,0.0,0.0,0.0,0.0,0.0,0.0,0.0,0.0,0.0,0.0,0.0,0.0,0.0,0.0,0.0,0.0,0.0,0.0,0.0,0.0,0.0,0.0,0.0,0.0,0.0,0.0,0.0,0.0,0.0,0.0,0.0,0.0,0.0,0.0,0.0,0.0,0.0,0.0,0.0,0.0,0.0,0.0,0.0,0.0,0.0,0.0,0.0,0.0,0.0,0.0,0.0,0.0,0.0,0.0,0.0,0.0,0.0,0.0,0.0,0.0,0.0,0.0,0.0,0.0,0.0,0.0,0.0,0.0,0.0,0.0,0.0,0.0,0.0,0.0,0.0,0.0,0.0,0.0,0.0,0.0,0.0,0.0,0.0,0.0,0.0,0.0,0.0,0.0,0.0,0.0,0.0,0.0,0.0,0.0,0.0,0.0,0.0,0.0,0.0,0.0,0.0,0.0,0.0,0.0,0.0,0.0,0.0,0.0,0.0,0.0,0.0,0.0,0.0,0.0,0.0,0.0,0.0,0.0,0.0,0.0,0.0,0.0,0.0,0.0,0.0,0.0,0.0,0.0,0.0,0.0,0.0,0.0,0.0,0.0,0.0,0.0,0.0,0.0,0.0,0.0,0.0,0.0,0.0,0.0,0.0,0.0,0.0,0.0,0.0,0.0,0.0,0.0,0.0,0.0,0.0,0.0,0.0,0.0,0.0,0.0,0.0,0.0,0.0,0.0,0.0,0.0,0.0,0.0,0.0,0.0,0.0,0.0,0.0,0.0,0.0,0.0,0.0,0.0,0.0,0.0,0.0,0.0,0.0,0.0,0.0,0.0,0.0,0.0,0.0,0.0,0.0,0.0,0.0,0.0,0.0,0.0,0.0,0.0,0.0,0.0,0.0,0.0,0.0,0.0,0.0,0.0,0.0,0.0,0.0,0.0,0.0,0.0,0.0,0.0,0.0,0.0,0.0,0.0,0.0,0.0,0.0,0.0,0.0,0.0,0.0,0.0,0.0,0.0,0.0,0.0,0.0,0.0,0.0,0.0,0.0,0.0,0.0,0.0,0.0,0.0,0.0,0.0,0.0,0.0,0.0,0.0,0.0,0.0,0.0,0.0,0.0,0.0,0.0,0.0,0.0,0.0,0.0,0.0,0.0,0.0,0.0,0.0,0.0,0.0,0.0,0.0,0.0,0.0,0.0,0.0,0.0,0.0,0.0,0.0,0.0,0.0,0.0,0.0,0.0,0.0,0.0,0.0,0.0,0.0,0.0,0.0,0.0,0.0,0.0,0.0,0.0,0.0,0.0,0.0,0.0,0.0,0.0,0.0,0.0,0.0,0.0,0.0,0.0,0.0,0.0,0.0,0.0,0.0,0.0,0.0,0.0,0.0,0.0,0.0,0.0,0.0,0.0,0.0,0.0,0.0,0.0,0.0,0.0,0.0,0.0,0.0,0.0,0.0,0.0,0.0,0.0,0.0,0.0,0.0,0.0,0.0,0.0,0.0,0.0,0.0,0.0,0.0,0.0,0.0,0.0,0.0,0.0,0.0,0.0,0.0,0.0,0.0,0.0,0.0,0.0,0.0,0.0,0.0,0.0,0.0,0.0,0.0,0.0,0.0,0.0,0.0,0.0,0.0,0.0,0.0,0.0,0.0,0.0,0.0,0.0,0.0,0.0,0.0,0.0,0.0,0.0,0.0,0.0,0.0,0.0,0.0,0.0,0.0,0.0,0.0,0.0,0.0,0.0,0.0,0.0,0.0,0.0,0.0,0.0,0.0,0.0,0.0,0.0,0.0,0.0,0.0,0.0,0.0,0.0,0.0,0.0,0.0,0.0,0.0,0.0,0.0,0.0,0.0,0.0,0.0,0.0,0.0,0.0,0.0,0.0,0.0,0.0,0.0,0.0,0.0,0.0,0.0,0.0,0.0,0.0,0.0,0.0,0.0,0.0,0.0,0.0,0.0,0.0,0.0,0.0,0.0,0.0,0.0,0.0,0.0,0.0,0.0,0.0,0.0,0.0,0.0,0.0,0.0,0.0,0.0,0.0,0.0,0.0,0.0,0.0,0.0,0.0,0.0,0.0,0.0,0.0,0.0,0.0,0.0,0.0,0.0,0.0,0.0,0.0,0.0,0.0,0.0,0.0,0.0,0.0,0.0,0.0,0.0,0.0,0.0,0.0,0.0,0.0,0.0,0.0,0.0,0.0,0.0,0.0,0.0,0.0,0.0,0.0,0.0,0.0,0.0,0.0,0.0,0.0,0.0,0.0,0.0,0.0,0.0,0.0,0.0,0.0,0.0,0.0,0.0,0.0,0.0,0.0,0.0,0.0,0.0,0.0,0.0,0.0,0.0,0.0,0.0,0.0,0.0,0.0,0.0,0.0,0.0,0.0,0.0,0.0,0.0,0.0,0.0,0.0,0.0,0.0,0.0,0.0,0.0,0.0,0.0,0.0,0.0,0.0,0.0,0.0,0.0,0.0,0.0,0.0,0.0,0.0,0.0,0.0,0.0,0.0,0.0,0.0,0.0,0.0,0.0,0.0,0.0,0.0,0.0,0.0,0.0,0.0,0.0,0.0,0.0,0.0,0.0,0.0,0.0,0.0,0.0,0.0,0.0,0.0,0.0,0.0,0.0,0.0,0.0,0.0,0.0,0.0,0.0,0.0,0.0,0.0,0.0,0.0,0.0,0.0,0.0,0.0,0.0,0.0,0.0,0.0,0.0,0.0,0.0,0.0,0.0,0.0,0.0,0.0,0.0,0.0,0.0,0.0,0.0,0.0,0.0,0.0,0.0,0.0,0.0,0.0,0.0,0.0,0.0,0.0,0.0,0.0,0.0,0.0,0.0,0.0,0.0,0.0,0.0,0.0,0.0,0.0,0.0,0.0,0.0,0.0,0.0,0.0,0.0,0.0,0.0,0.0,0.0,0.0,0.0,0.0,0.0,0.0,0.0,0.0,0.0,0.0,0.0,0.0,0.0,0.0,0.0,0.0,0.0,0.0,0.0,0.0,0.0,0.0,0.0,0.0,0.0,0.0,0.0,0.0,0.0,0.0,0.0,0.0,0.0,0.0,0.0,0.0,0.0,0.0,0.0,0.0,0.0,0.0,0.0,0.0,0.0,0.0,0.0,0.0,0.0,0.0,0.0,0.0,0.0,0.0,0.0,0.0,0.0,0.0,0.0,0.0,0.0,0.0,0.0,0.0,0.0,0.0,0.0,0.0,0.0,0.0,0.0,0.0,0.0,0.0,0.0,0.0,0.0,0.0,0.0,0.0,0.0,0.0,0.0,0.0,0.0,0.0,0.0,0.0,0.0,0.0,0.0,0.0,0.0,0.0,0.0,0.0,0.0,0.0,0.0,0.0,0.0,0.0,0.0,0.0,0.0,0.0,0.0,0.0,0.0,0.0,0.0,0.0,0.0,0.0,0.0,0.0,0.0,0.0,0.0,0.0,0.0,0.0,0.0,0.0,0.0,0.0,0.0,0.0,0.0,0.0,0.0,0.0,0.0,0.0,0.0,0.0,0.0,0.0,0.0,0.0,0.0,0.0,0.0,0.0,0.0,0.0,0.0,0.0,0.0,0.0,0.0,0.0,0.0,0.0,0.0,0.0,0.0,0.0,0.0,0.0,0.0,0.0,0.0,0.0,0.0,0.0,0.0,0.0,0.0,0.0,0.0,0.0,0.0,0.0,0.0,0.0,0.0,0.0,0.0,0.0,0.0,0.0,0.0,0.0,0.0,0.0,0.0,0.0,0.0,0.0,0.0,0.0,0.0,0.0,0.0,0.0,0.0,0.0,0.0,0.0,0.0,0.0,0.0,0.0,0.0,0.0,0.0,0.0,0.0,0.0,0.0,0.0,0.0,0.0,0.0,0.0,0.0,0.0,0.0,0.0,0.0,0.0,0.0,0.0,0.0,0.0,0.0,0.0,0.0,0.0,0.0,0.0,0.0,0.0,0.0,0.0,0.0,0.0,0.0,0.0,0.0,0.0,0.0,0.0,0.0,0.0,0.0,0.0,0.0,0.0,0.0,0.0,0.0,0.0,0.0,0.0,0.0,0.0,0.0,0.0,0.0,0.0,0.0,0.0,0.0,0.0,0.0,0.0,0.0,0.0,0.0,0.0,0.0,0.0,0.0,0.0,0.0,0.0,0.0,0.0,0.0,0.0,0.0,0.0,0.0,0.0,0.0,0.0,0.0,0.0,0.0,0.0,0.0,0.0,0.0,0.0,0.0,0.0,0.0,0.0,0.0,0.0,0.0,0.0,0.0,0.0,0.0,0.0,0.0,0.0,0.0,0.0,0.0,0.0,0.0,0.0,0.0,0.0,0.0,0.0,0.0,-4.0881,0.0,0.0,0.0,0.0,0.0,0.0,0.0,0.0,0.0,0.0,0.0,0.0,0.0,0.0,0.0,0.0,0.0,0.0,0.0,0.0,0.0,0.0,0.0,0.0,-2.6417,-2.73,-2.8819,-2.8616,-2.8509,-2.8734,0.0,0.0,0.0,0.0,0.0,-2.5384,-2.5206,-2.5338,-2.5792,-2.5689,-2.5863,-2.6263,-2.523,-2.4718,-2.4727,0.0,0.0,0.0,0.0,0.0,0.0,0.0,0.0,0.0,0.0,0.0,0.0,0.0,0.0,0.0,0.0,0.0,0.0,0.0,0.0,0.0,0.0,0.0,0.0,0.0,0.0,0.0,0.0,0.0,0.0,0.0,0.0,0.0,0.0,0.0,0.0,0.0,0.0,0.0,0.0,0.0,0.0,0.0,0.0,0.0,0.0,0.0,0.0,0.0,0.0,0.0,0.0,0.0,0.0,0.0,0.0,0.0,0.0,0.0,0.0,0.0,0.0,0.0,0.0,0.0,0.0,0.0,0.0,0.0,0.0,0.0,-4.2351,0.0,0.0,0.0,0.0,0.0,0.0,0.0,0.0,0.0,0.0,0.0,0.0,0.0,0.0,0.0,0.0,0.0,0.0,0.0,0.0,0.0,-2.382,-2.5445,-2.5591,-2.6517,-2.8806,-2.8325,-2.8201,-2.8918,-2.825,0.0,0.0,0.0,-2.6229,-2.5438,-2.5278,-2.5578,-2.635,-2.648,-2.6857,-2.7503,-2.7267,-2.6984,-2.6719,-2.6195,0.0,0.0,0.0,0.0,0.0,0.0,0.0,0.0,0.0,0.0,0.0,0.0,0.0,0.0,0.0,0.0,0.0,0.0,0.0,0.0,0.0,0.0,0.0,0.0,0.0,0.0,0.0,0.0,0.0,0.0,0.0,0.0,0.0,0.0,0.0,0.0,0.0,0.0,0.0,0.0,0.0,0.0,0.0,0.0,0.0,0.0,0.0,0.0,0.0,0.0,0.0,0.0,0.0,0.0,0.0,0.0,0.0,0.0,0.0,0.0,0.0,0.0,0.0,-4.5857,-4.6537,-4.6464,-4.5769,-4.5753,-4.6222,-4.4777,-4.4064,-4.3859,-4.2981,0.0,0.0,0.0,0.0,0.0,0.0,0.0,0.0,0.0,0.0,0.0,0.0,0.0,0.0,0.0,0.0,0.0,0.0,0.0,-2.3898,-2.5509,-2.5582,-2.645,-2.8794,-2.8329,-2.8071,-2.8475,-2.7894,0.0,0.0,-2.7452,-2.7435,-2.6685,-2.7299,-2.7674,-2.7743,-2.9178,-2.9898,-2.9946,-3.0603,-3.0865,-3.0661,-2.716,-2.5539,-2.55,0.0,0.0,0.0,0.0,0.0,0.0,0.0,0.0,0.0,0.0,0.0,0.0,0.0,0.0,0.0,0.0,0.0,0.0,0.0,0.0,0.0,0.0,0.0,0.0,0.0,0.0,0.0,0.0,0.0,0.0,0.0,0.0,0.0,0.0,0.0,0.0,0.0,0.0,0.0,0.0,0.0,-3.9859,-4.0849,0.0,0.0,0.0,0.0,0.0,0.0,0.0,0.0,0.0,0.0,0.0,0.0,0.0,-4.6055,-4.7472,-4.7717,-4.7831,-4.7847,-4.8198,-4.7969,-4.7258,-4.7257,-4.6905,-4.628,-4.6066,0.0,-4.4751,-4.3897,0.0,0.0,0.0,0.0,0.0,0.0,0.0,0.0,0.0,0.0,0.0,0.0,0.0,0.0,0.0,0.0,0.0,0.0,0.0,0.0,0.0,-2.5296,-2.6233,-2.8476,-2.7776,-2.7571,-2.835,0.0,-2.747,-2.7521,-2.8218,-2.8315,-2.7707,-2.8027,-2.8467,-2.8956,-3.0555,-3.1091,-3.063,-3.0555,-3.069,-3.0884,-2.8691,-2.7944,-2.8331,-2.7713,0.0,0.0,0.0,0.0,0.0,0.0,0.0,0.0,0.0,0.0,0.0,0.0,0.0,0.0,0.0,0.0,0.0,0.0,0.0,0.0,0.0,0.0,0.0,0.0,0.0,0.0,0.0,0.0,0.0,0.0,0.0,0.0,0.0,0.0,0.0,0.0,0.0,0.0,0.0,-3.8766,-4.0748,-4.233,-4.145,-4.0719,0.0,0.0,0.0,0.0,0.0,0.0,0.0,0.0,0.0,-4.6475,-4.6916,-4.7496,-4.8269,-4.8288,-4.8314,-4.8392,-4.8457,-4.8345,-4.814,-4.8191,-4.7774,-4.7022,-4.7022,-4.6536,-4.5662,-4.4794,-4.4214,-4.3729,0.0,0.0,0.0,0.0,-4.2109,-4.248,0.0,0.0,0.0,0.0,0.0,0.0,0.0,0.0,0.0,0.0,0.0,0.0,-2.4414,-2.4759,-2.5744,-2.7808,-2.7082,-2.691,0.0,0.0,-2.7078,-2.7345,-2.8139,-2.8342,-2.7849,-2.8388,-2.9013,-2.9733,-3.1271,-3.1755,-3.1213,-3.0616,-3.0593,-3.1023,-3.0351,-3.0252,-3.0486,-2.9554,-2.8504,0.0,0.0,0.0,0.0,0.0,0.0,0.0,0.0,0.0,0.0,0.0,0.0,0.0,0.0,0.0,0.0,0.0,0.0,0.0,0.0,0.0,0.0,0.0,0.0,0.0,0.0,0.0,0.0,0.0,0.0,0.0,0.0,0.0,0.0,0.0,0.0,0.0,0.0,-3.9747,-4.1513,-4.3511,-4.297,-4.245,0.0,0.0,0.0,0.0,0.0,0.0,-4.5182,-4.5893,-4.6913,-4.8394,-4.8432,-4.8548,-4.8759,-4.8779,-4.8824,-4.8913,-4.8941,-4.8942,-4.8925,-4.8974,-4.8461,-4.755,-4.7582,-4.712,-4.6243,-4.5592,-4.5326,-4.5193,-4.3906,-4.3398,-4.3398,-4.3398,-4.3398,-4.3574,0.0,0.0,0.0,0.0,0.0,0.0,0.0,0.0,0.0,0.0,0.0,-2.2372,-2.3539,0.0,-2.4809,-2.6727,-2.6365,-2.6213,0.0,0.0,-2.5733,-2.5626,-2.6585,-2.6943,-2.66,-2.8585,-2.9674,-2.9805,-3.1323,-3.2184,-3.2428,-3.2181,-3.221,-3.2485,-3.2063,-3.1226,-3.0148,-3.0327,-2.9145,-2.7129,0.0,0.0,0.0,0.0,0.0,0.0,0.0,0.0,0.0,0.0,0.0,0.0,0.0,0.0,0.0,0.0,0.0,0.0,0.0,0.0,0.0,0.0,0.0,0.0,0.0,0.0,0.0,0.0,0.0,0.0,0.0,0.0,0.0,0.0,0.0,0.0,0.0,0.0,0.0,-4.5232,-4.4701,0.0,0.0,0.0,0.0,-4.5287,-4.6144,-4.7,-4.7855,-4.7952,-4.8394,-4.9317,-4.9336,-4.9721,-5.0558,-5.0577,-5.0577,-5.0568,-5.0717,-5.0333,-4.9567,-4.9751,-4.8943,-4.7427,-4.7548,-4.712,-4.6302,-4.6251,-4.6239,-4.6224,-4.613,-4.6093,-4.6094,-4.6094,-4.6094,-4.6113,0.0,0.0,0.0,-2.1488,-2.1691,-2.1812,-2.1812,-2.1928,-2.1984,-2.1926,-2.2254,-2.281,0.0,-2.426,-2.5069,-2.6254,-2.5866,-2.5717,-2.6118,0.0,-2.5981,-2.6199,-2.7049,-2.7721,-2.8178,-2.906,-2.9727,-3.019,-3.0725,-3.0815,-3.0512,-3.0439,-3.0616,-3.1042,-3.0902,-3.0768,-3.0611,-3.0526,-2.9763,-2.8537,-2.7964,-2.722,0.0,0.0,0.0,0.0,0.0,0.0,0.0,0.0,0.0,0.0,0.0,0.0,0.0,0.0,0.0,0.0,0.0,0.0,0.0,0.0,0.0,0.0,0.0,0.0,0.0,0.0,0.0,0.0,0.0,0.0,0.0,0.0,0.0,0.0,0.0,0.0,0.0,-4.5972,-4.6366,0.0,-4.6722,-4.6759,-4.6874,-4.7182,-4.7509,-4.8048,-4.8894,-4.9471,-5.0144,-5.0991,-5.1548,-5.1991,-5.2318,-5.176,-5.1471,-5.1471,-5.099,-5.0645,-5.0442,-5.0519,-4.9967,-4.8929,-4.8495,-4.7807,-4.6975,-4.6507,-4.629,-4.6297,-4.6305,-4.6307,-4.6308,-4.6308,-4.6308,-4.6308,-2.0763,-2.0657,0.0,-2.1242,-2.1464,-2.1573,-2.1573,-2.1676,-2.1749,-2.1705,-2.2209,-2.2818,-2.3487,-2.4159,-2.4875,-2.5647,-2.5321,-2.5082,-2.5105,0.0,-2.5442,-2.5468,-2.6677,-2.7731,-2.8596,-2.9155,-2.9602,-3.0063,-3.0063,-2.9884,-2.9537,-2.9206,-2.9304,-2.969,-2.9619,-2.9761,-3.0064,-3.0038,-2.9693,-2.9116,-2.8567,-2.7988,-2.7471,0.0,0.0,0.0,0.0,0.0,0.0,0.0,0.0,0.0,0.0,0.0,0.0,0.0,0.0,0.0,0.0,0.0,0.0,0.0,0.0,0.0,0.0,0.0,0.0,0.0,0.0,0.0,0.0,0.0,0.0,0.0,0.0,0.0,0.0,-4.2884,-4.4958,-4.6191,-4.7132,-4.7777,-4.7942,-4.8039,-4.8221,-4.8529,-4.8817,-4.9356,-5.0202,-5.1068,-5.1798,-5.2308,-5.2895,-5.3203,-5.3203,-5.2635,-5.2192,-5.1885,-5.1356,-5.1009,-5.0825,-5.089,-5.0463,-4.9718,-4.9255,-4.8444,-4.7361,-4.6864,-4.6524,-4.629,-4.6301,-4.6305,-4.6307,-4.6308,-4.6308,-4.6308,-2.1248,-2.1026,-2.0692,-2.1287,-2.134,-2.1293,-2.1293,-2.1293,-2.123,-2.1119,-2.1662,-2.228,-2.2801,-2.3459,-2.4153,-2.4883,-2.4695,-2.4258,-2.3639,-2.3999,-2.3974,-2.3339,-2.5281,-2.6778,-2.765,-2.8762,-2.9371,-2.9387,-2.9371,-2.9506,-2.9753,-2.8841,-2.8501,-2.8685,-2.8493,-2.8411,-2.842,-2.8897,-2.8927,-2.8736,-2.921,-2.8979,-2.839,0.0,0.0,0.0,0.0,0.0,0.0,0.0,0.0,0.0,0.0,0.0,0.0,0.0,0.0,0.0,0.0,0.0,0.0,0.0,0.0,0.0,0.0,0.0,0.0,0.0,0.0,0.0,0.0,0.0,0.0,0.0,0.0,0.0,-4.299,-4.4038,-4.5073,-4.5963,-4.7063,-4.7777,-4.7826,-4.8057,-4.8586,-4.9452,-5.0298,-5.1125,-5.1904,-5.2779,-5.3241,-5.3241,-5.326,-5.328,-5.328,-5.326,-5.2799,-5.1942,-5.1904,-5.1491,-5.0693,-5.0825,-5.0434,-4.9633,-4.975,-4.8919,-4.7467,-4.7412,-4.6972,-4.6339,-4.6309,-4.6301,-4.6307,-4.6307,-4.6308,-4.6308,-2.0801,-2.0681,-2.0692,-2.1287,-2.134,-2.1293,-2.1293,-2.1087,-2.0925,-2.0893,-2.1136,-2.1532,-2.2121,-2.2595,-2.3182,-2.3933,-2.3335,-2.308,-2.3423,-2.3083,-2.3178,-2.3925,-2.5251,-2.6384,-2.7255,-2.7901,-2.848,-2.8965,-2.8625,-2.8651,-2.9005,-2.8746,-2.8653,-2.8685,-2.8493,-2.8411,-2.8411,-2.8525,-2.856,-2.8545,-2.9349,-2.944,-2.9118,0.0,0.0,0.0,0.0,0.0,0.0,0.0,0.0,0.0,0.0,0.0,0.0,0.0,0.0,0.0,0.0,0.0,0.0,0.0,0.0,0.0,0.0,0.0,0.0,0.0,0.0,0.0,0.0,0.0,0.0,0.0,-4.2394,-4.3516,-4.3642,-4.5022,-4.6379,-4.74,-4.8524,-4.9562,-5.0386,-5.0705,-5.1212,-5.2087,-5.2375,-5.2606,-5.2837,-5.3664,-5.4145,-5.4145,-5.4703,-5.5011,-5.5011,-5.4434,-5.3703,-5.2837,-5.2192,-5.1491,-5.0693,-5.075,-5.0614,-5.0373,-4.9865,-4.9393,-4.8891,-4.7745,-4.7196,-4.7047,-4.6515,-4.6295,-4.63,-4.6305,-4.6308,-4.6308,-2.053,-2.0578,-2.0706,-2.1381,-2.1262,-2.1087,-2.1087,-2.0778,-2.0562,-2.0562,-2.0804,-2.1166,-2.1591,-2.1953,-2.2424,-2.3051,-2.2661,-2.2402,-2.2388,-2.2399,-2.3089,-2.4534,-2.5512,-2.6385,-2.7199,-2.7408,-2.7754,-2.8312,-2.7981,-2.7934,-2.8171,-2.8317,-2.8365,-2.8341,-2.8372,-2.8411,-2.8411,-2.8411,-2.8411,-2.8444,-2.899,-2.9243,-2.9306,-2.9475,-2.9477,-2.932,-2.9211,-2.919,-2.9198,-2.9077,0.0,0.0,0.0,0.0,0.0,0.0,0.0,0.0,0.0,0.0,0.0,0.0,0.0,0.0,0.0,0.0,0.0,0.0,0.0,0.0,0.0,0.0,0.0,0.0,-4.3615,-4.4489,-4.5256,-4.63,-4.7227,-4.785,-4.8942,-5.0076,-5.1218,-5.1588,-5.2137,-5.3135,-5.3549,-5.3741,-5.3741,-5.453,-5.4991,-5.4991,-5.5453,-5.5703,-5.5703,-5.5241,-5.4587,-5.3722,-5.2856,-5.201,-5.1183,-5.0837,-5.0712,-5.0673,-5.0236,-4.9898,-4.9506,-4.8198,-4.7539,0.0,0.0,0.0,0.0,0.0,-4.6307,-4.6308,-2.0553,-2.0677,-2.0759,-2.1412,-2.1087,-2.0745,-2.0745,-2.0395,-2.0139,-2.0139,0.0,-2.0882,-2.1148,-2.1363,-2.1697,-2.2202,-2.2269,-2.1977,0.0,-2.2123,-2.3444,-2.5125,-2.5855,-2.6564,-2.7244,-2.7111,-2.7214,-2.7524,-2.7437,-2.7412,-2.7437,-2.7806,-2.793,-2.7865,-2.8177,-2.8363,-2.8411,-2.8411,-2.8411,-2.8411,-2.8411,-2.8677,-2.9159,-2.955,-2.975,-2.9756,-2.9523,-2.9499,-2.9543,-2.9306,0.0,0.0,0.0,0.0,0.0,0.0,0.0,0.0,0.0,0.0,0.0,0.0,0.0,0.0,0.0,0.0,0.0,0.0,0.0,0.0,0.0,0.0,0.0,0.0,-4.4504,-4.5657,-4.7313,-4.7711,-4.785,-4.785,-4.876,-4.9875,-5.1055,-5.1459,-5.2146,-5.3362,-5.4192,-5.4645,-5.4645,0.0,0.0,0.0,0.0,-5.5703,-5.5703,-5.5703,-5.5299,-5.4491,-5.3626,-5.2731,-5.1865,-5.1068,-5.0712,-5.0712,-5.0712,-5.0334,-4.9641,-4.8674,-4.7824,-4.7061,-4.6384,-4.6194,-4.6296,-4.6305,-4.6307,-4.6307,-2.1414,-2.122,-2.0942,-2.1086,-2.0681,-2.0311,-2.0311,-2.0015,-1.98,-1.98,-1.9612,-1.9702,-2.0269,-2.0289,-2.0511,-2.121,-2.1119,-2.1369,0.0,0.0,-2.3885,-2.5155,-2.5644,-2.6083,-2.6513,-2.6683,-2.6893,-2.7115,-2.7251,-2.7429,-2.7645,-2.772,-2.787,-2.8042,-2.7949,-2.8103,-2.8411,-2.8411,-2.8411,-2.8411,-2.8411,-2.8677,-2.9097,-2.9189,-2.9461,-2.9777,-2.9735,-2.9858,-3.0049,-3.0001,-2.9678,-2.9417,-3.0059,0.0,0.0,0.0,0.0,0.0,0.0,0.0,0.0,0.0,0.0,0.0,0.0,0.0,0.0,0.0,0.0,0.0,0.0,0.0,0.0,-4.4684,-4.6049,-4.724,-4.8218,-4.8527,-4.8667,-4.8667,-4.9115,-4.9994,-5.1516,-5.2211,-5.3204,-5.4771,-5.5258,-5.5472,-5.5472,-5.5607,-5.5703,-5.5703,-5.5703,-5.5703,-5.5703,-5.5703,-5.5299,-5.4491,0.0,0.0,-5.1865,-5.1068,-5.0712,-5.0712,-5.0712,-5.0616,-5.0374,-4.8795,-4.7325,-4.61,-4.6158,-4.6238,-4.6305,-4.6306,-4.6308,-4.6308,-2.1663,-2.1525,-2.1229,-2.1039,-2.0549,-2.0139,-1.998,-1.9639,-1.9398,-1.9398,-1.9217,-1.9232,-1.9566,-1.9537,-1.9648,-2.0016,-2.0264,0.0,0.0,-2.3249,-2.4167,-2.5237,-2.5776,-2.6155,-2.6392,-2.6392,-2.6566,-2.6896,-2.6904,-2.6927,-2.7008,-2.724,-2.7327,-2.7287,-2.7393,-2.756,-2.776,-2.7989,-2.8103,-2.8128,-2.8323,-2.8525,-2.8748,-2.8748,-2.8897,-2.9129,-2.9387,-2.9639,-2.9941,-3.0177,-3.0058,-2.9914,-3.0319,-3.07,-3.0933,0.0,0.0,0.0,0.0,0.0,0.0,0.0,0.0,0.0,0.0,0.0,0.0,0.0,0.0,-3.9861,-4.1033,0.0,-4.4183,-4.5633,-4.665,-4.7574,-4.8476,-4.8696,-4.8785,-4.8891,-4.9044,-4.9861,-5.1668,-5.2145,-5.311,-5.4909,-5.532,-5.5497,-5.5497,-5.5629,-5.5703,-5.5703,-5.5703,-5.5703,-5.5703,-5.5703,-5.5491,-5.5088,-5.4241,-5.3395,-5.2519,-5.1683,-5.1087,-5.0712,-5.0712,-5.0712,-5.0577,-4.8864,-4.7455,-4.6364,-4.61,-4.6073,-4.6206,-4.6281,-4.6306,-4.6308,-2.168,-2.1694,-2.1465,-2.0991,-2.0464,-1.9997,-1.9639,-1.9306,-1.9101,-1.9101,-1.9101,-1.9101,-1.9101,-1.9101,-1.9203,0.0,0.0,0.0,0.0,-2.3672,-2.4563,-2.5578,-2.6081,-2.6406,-2.6551,-2.6312,-2.6379,-2.6806,-2.6645,-2.6472,-2.6353,-2.6698,-2.6736,-2.6537,-2.6837,-2.7093,-2.7314,-2.7718,-2.7935,-2.8051,-2.8347,-2.8474,-2.8459,-2.8409,-2.842,-2.8517,-2.8897,-2.9257,-2.9645,-3.0016,-3.0182,-3.0258,-3.0384,-3.0909,-3.1358,-3.0562,-3.147,0.0,0.0,0.0,0.0,0.0,0.0,0.0,0.0,-3.756,-3.8185,-3.9083,-4.0256,-4.1272,-4.1747,-4.3345,-4.4977,-4.6169,-4.6977,-4.7754,-4.855,-4.879,-4.8881,-4.891,-4.8909,-4.9662,-5.1609,-5.1858,-5.2661,-5.4553,-5.5009,-5.5217,-5.5301,-5.5497,-5.564,-5.5703,-5.5703,-5.5703,-5.5703,-5.5703,-5.5703,-5.5684,-5.4876,-5.4049,-5.3164,-5.2288,-5.1471,-5.0712,-5.0712,-5.0596,-5.0327,-4.8816,-4.7698,-4.6895,-4.6113,-4.5899,-4.6059,-4.6202,-4.6261,-4.6265,-2.1779,-2.1694,-2.1371,-2.0681,-2.012,-1.9621,-1.9232,-1.912,-1.9101,-1.9101,-1.9101,-1.9101,-1.9101,-1.9101,-1.9566,0.0,0.0,0.0,-2.4225,-2.4645,-2.5253,-2.6325,-2.6455,-2.6551,-2.6753,-2.6551,-2.6551,-2.6806,-2.6779,-2.6686,-2.6498,-2.6406,-2.6486,-2.6669,-2.659,-2.7094,-2.7995,-2.8048,-2.8387,-2.886,-2.8708,-2.8665,-2.8656,-2.848,-2.8501,-2.8677,-2.8732,-2.9067,-2.9538,-2.9582,-2.9754,-3.006,-3.0648,-3.1345,-3.202,-3.2485,-3.3232,-3.3871,-3.3742,-3.4318,-3.5439,-3.7581,-3.7737,-3.7909,0.0,-3.9888,-3.9871,-4.1326,-4.1774,-4.2102,-4.2866,-4.4069,-4.5217,-4.6075,-4.7671,-4.8824,-4.894,-4.9469,-4.9602,-4.8984,-4.8909,-4.9576,-5.1285,-5.1655,-5.2526,-5.4234,-5.467,-5.5,-5.5288,-5.5326,-5.5449,-5.5684,-5.5703,-5.5703,-5.5703,-5.5703,-5.5703,-5.5684,-5.4876,-5.4049,-5.3164,-5.2288,-5.1471,-5.0712,-5.0712,-5.0269,-4.9471,-4.8509,-4.7643,-4.6851,-4.6085,-4.5815,-4.5863,-4.6047,-4.6115,-4.6142,-2.1812,-2.1694,-2.1434,-2.0894,-2.0345,-1.9785,-1.9195,-1.9101,-1.9101,-1.9101,-1.9101,-1.9101,-1.9101,-1.9449,-1.9899,-2.0422,-2.1148,-2.2171,-2.3513,-2.4433,-2.5259,-2.6063,-2.6335,-2.6578,-2.6806,-2.6604,-2.6604,-2.6806,-2.6806,-2.6712,-2.651,-2.6445,-2.6592,-2.6854,-2.6827,-2.7211,-2.7939,-2.8191,-2.8187,-2.8112,-2.852,-2.8493,-2.8193,-2.8473,-2.8724,-2.8912,-2.8756,-2.9036,0.0,0.0,-2.9665,-2.9945,-3.0237,-3.0522,-3.0861,-3.1302,-3.2243,-3.3462,-3.4738,-3.5968,-3.706,-3.7774,-3.8738,-3.9618,-4.0077,-4.0284,-4.0584,-4.124,-4.2068,-4.2792,-4.3138,-4.4572,-4.5965,-4.6713,-4.7719,-4.8554,-4.8943,-4.9247,-4.912,-4.83,-4.8612,-4.9559,-5.1249,-5.1486,-5.2263,-5.3887,-5.4495,-5.4851,-5.4995,-5.5332,-5.5585,-5.5703,-5.5703,-5.5703,-5.5703,-5.5703,-5.5703,-5.5703,-5.5357,-5.4761,-5.3933,-5.3049,-5.1933,-5.0712,-5.0712,-5.05,-5.0048,-4.8663,-4.7894,-4.7471,-4.6172,-4.5673,-4.5715,-4.591,-4.5974,-4.5995,-2.1797,-2.1679,-2.1481,-2.1055,-2.0631,-2.012,-1.9384,-1.9269,-1.9232,-1.912,-1.9101,-1.9101,-1.9101,-1.9696,-2.0175,-2.0335,-2.1365,-2.2338,-2.3128,-2.408,-2.4965,-2.5774,-2.6124,-2.6457,-2.6779,-2.6645,-2.6732,-2.7041,-2.7041,-2.706,-2.7097,-2.707,-2.7151,-2.7329,-2.7286,-2.7569,-2.8044,-2.8182,-2.8125,-2.795,-2.8379,-2.8329,-2.8082,-2.8451,-2.8818,-2.9075,-2.8967,-2.922,0.0,0.0,-2.957,-2.9815,-2.9426,-2.9702,-3.0238,-3.0537,-3.188,-3.3655,-3.5582,-3.6911,-3.782,-3.8062,-3.9359,-4.0457,-4.0095,-4.0498,-4.0963,-4.117,-4.2102,-4.2948,-4.3155,-4.4553,-4.6005,-4.6958,-4.7685,-4.8354,-4.8974,-4.9207,-4.8972,-4.8118,-4.8521,-4.9431,-5.0896,-5.1268,-5.1974,-5.3367,-5.4115,-5.456,-5.4654,-5.5153,-5.5497,-5.5585,-5.5651,-5.5703,-5.5703,-5.5703,-5.5703,-5.5703,-5.5703,-5.5145,-5.4107,-5.301,-5.1856,-5.0712,-5.0712,-5.0712,-5.0577,-4.9086,-4.8317,-4.7971,-4.6509,-4.5806,-4.5629,-4.5757,-4.5839,-4.5886,-2.1768,-2.165,-2.145,-2.0974,-2.0828,-2.0529,-1.9782,-1.969,-1.953,-1.9157,-1.9101,-1.9101,-1.9101,-1.9696,-2.0335,-2.0915,-2.1598,-2.2527,-2.3775,-2.3905,-2.4486,-2.5759,-2.5807,-2.6126,-2.6806,-2.6779,-2.7084,-2.7666,-2.7666,-2.7985,-2.8623,-2.8495,-2.834,-2.814,-2.8025,-2.8234,-2.8633,-2.8058,-2.8364,-2.9188,-2.8422,-2.8337,-2.8639,-2.8471,-2.8692,-2.9121,-2.9396,0.0,0.0,0.0,-2.9313,-2.9637,-2.8223,-2.9189,-3.0963,-3.1353,-3.3206,-3.5354,-3.6565,-3.6894,-3.7359,-3.9181,-3.9681,-3.9922,-4.0705,-4.0877,-4.1101,-4.1826,-4.2016,-4.2275,-4.3051,-4.3836,-4.4854,-4.6382,-4.7657,-4.867,-4.9222,-4.9749,-4.9747,-4.8863,-4.8786,-4.9174,-5.0043,-5.0896,-5.1732,-5.2568,-5.3386,-5.3981,-5.4298,-5.4639,-5.4966,-5.5301,-5.5554,-5.5703,-5.5703,-5.5703,-5.5703,-5.5703,-5.5703,-5.4838,-5.3183,-5.1529,-5.075,-5.0712,-5.0712,-5.0712,-5.0635,-4.9721,-4.8856,-4.8029,-4.7201,-4.6336,-4.5594,-4.5603,-4.5685,-4.5815,-2.1998,-2.1768,-2.1527,-2.1277,-2.1214,-2.1007,-2.0512,-2.0013,-1.9803,-2.0068,-2.0245,0.0,0.0,0.0,0.0,0.0,-2.1859,-2.2352,-2.3186,-2.3659,-2.408,-2.4515,-2.4965,-2.5513,-2.6137,-2.6152,-2.6445,-2.7099,-2.7099,-2.7215,-2.7445,-2.7391,-2.7445,-2.7625,-2.7954,-2.835,-2.8703,-2.89,-2.9401,-2.9983,-2.9534,-2.9657,-3.0056,-2.9514,-2.9506,-2.9745,0.0,0.0,0.0,-2.9605,-2.9686,-2.9799,-2.9313,-2.9308,-2.9718,-3.0792,-3.203,-3.3526,-3.5559,-3.6688,-3.7614,-3.8973,-3.989,-4.0584,-4.0843,-4.0912,-4.0981,-4.1222,-4.1671,-4.2085,-4.2361,-4.3448,-4.4785,-4.6355,-4.738,-4.8479,-4.9906,-5.0264,-4.9945,-4.8809,-4.9677,-4.9879,-4.858,-4.9709,-5.1119,-5.2512,-5.3048,-5.3615,-5.426,-5.4623,-5.4952,-5.5288,-5.5389,-5.5508,-5.5703,-5.5703,-5.5703,-5.5684,-5.5164,-5.4318,-5.3164,-5.2029,-5.1202,-5.0712,-5.0712,-5.0712,-5.0635,-4.976,-4.8894,-4.8029,-4.7212,-4.6374,-4.5594,-4.5594,-4.5618,-4.5669,-2.2478,-2.2267,-2.214,-2.215,-2.1939,0.0,0.0,0.0,0.0,0.0,0.0,0.0,0.0,0.0,0.0,0.0,0.0,-2.2388,-2.2577,-2.3171,-2.3659,-2.3876,-2.4297,-2.4946,-2.5789,-2.5803,-2.6228,-2.7128,-2.7128,-2.7229,-2.7488,-2.7694,-2.7903,-2.8082,-2.8684,-2.9008,-2.9104,-2.9456,-2.986,-3.0235,-2.976,-2.9873,-3.0255,-2.9937,-2.9948,0.0,0.0,0.0,0.0,-2.9686,-2.967,-2.9799,-2.9281,-2.9308,-2.9793,-3.0937,-3.2174,-3.3583,-3.5596,-3.6995,-3.8169,-3.9255,-4.0206,-4.0912,-4.0912,-4.0912,-4.0825,-4.0549,-4.1084,-4.1533,-4.1216,-4.2447,-4.3983,-4.5527,-4.6648,-4.7881,-4.9533,-5.0167,-5.0135,-4.9253,-5.0339,-5.0565,-4.9046,-4.9896,-5.1008,-5.2085,-5.2898,-5.3564,-5.4088,-5.443,-5.4731,-5.4938,-5.5069,-5.5256,-5.5543,-5.5562,-5.5454,-5.5261,-5.4434,-5.3587,-5.2722,-5.1856,-5.1183,-5.0712,-5.0712,-5.0712,-5.0654,-5.0087,-4.9163,-4.8048,-4.7528,-4.6624,-4.5594,-4.5594,-4.5594,-4.5612,-2.3131,-2.3103,-2.3184,0.0,0.0,0.0,0.0,0.0,0.0,0.0,0.0,0.0,0.0,0.0,0.0,0.0,0.0,0.0,-2.2077,-2.2577,0.0,-2.3818,-2.3876,-2.4495,-2.5756,-2.5814,-2.6454,-2.7706,-2.7706,-2.8011,-2.8622,-2.9203,-2.9392,-2.9319,-2.991,-3.0031,-2.9759,-2.9666,-2.9798,-3.0025,-2.9274,-2.922,-2.9591,-2.9853,0.0,0.0,0.0,0.0,0.0,-2.9372,-2.941,-2.9751,-2.8352,-2.9318,-3.1114,-3.1875,-3.355,-3.5386,-3.6582,-3.7718,-3.8841,-3.9952,-4.0534,-4.0847,-4.0795,-4.0795,-4.0595,-3.9802,-4.0267,-4.0618,-3.9836,-4.0974,-4.2568,-4.4069,-4.563,-4.7078,-4.8294,-4.9606,-5.0343,-5.0188,-5.076,-5.1172,-5.1194,-5.1399,-5.1509,-5.1454,-5.2884,-5.3775,-5.3813,-5.4107,-5.4281,-5.4315,-5.4607,-5.4943,-5.5275,-5.5288,-5.503,-5.4498,-5.3615,-5.2769,-5.1913,-5.1087,-5.0712,-5.0712,-5.0712,-5.0712,-5.0712,-5.0712,-4.9663,-4.8105,-4.8105,-4.7086,-4.5594,-4.5594,-4.5594,-4.5594,0.0,0.0,0.0,0.0,0.0,0.0,0.0,0.0,0.0,0.0,0.0,0.0,0.0,0.0,0.0,0.0,0.0,0.0,-2.2649,-2.2801,0.0,0.0,0.0,0.0,-2.5628,-2.6158,0.0,0.0,0.0,-2.745,-2.73,-2.7432,-2.7637,-2.7874,-2.8468,-2.9013,-2.9512,-3.0007,-3.0607,-3.1282,0.0,-3.1547,-3.1975,0.0,0.0,0.0,0.0,0.0,-3.1568,-3.0661,-3.0862,-3.1396,-3.1024,-3.1283,-3.1963,-3.321,-3.3955,-3.479,-3.6679,-3.7613,-3.8278,-3.912,-3.9627,-3.9859,-3.963,-3.9542,-3.9433,-3.898,-3.9474,-3.9939,-3.9733,-4.1464,-4.3207,-4.4156,-4.6044,-4.7857,-4.9127,-5.0101,-5.0761,-5.0909,-5.1639,-5.1888,-5.1191,-5.2342,-5.2882,-5.2345,-5.2679,-5.3181,-5.3775,-5.3889,-5.4035,-5.4298,-5.438,-5.4591,-5.4924,-5.5178,-5.5109,-5.4713,-5.3683,-5.2954,-5.2449,-5.1237,-5.0712,-5.0712,-5.0712,-5.0712,-5.0712,-5.0712,-4.9663,-4.8105,-4.8105,-4.7086,-4.5594,-4.5594,-4.5594,-4.5594,0.0,0.0,0.0,0.0,0.0,0.0,0.0,0.0,0.0,0.0,0.0,0.0,0.0,0.0,0.0,0.0,0.0,0.0,0.0,-2.3352,0.0,0.0,0.0,-2.51,-2.6365,-2.7042,0.0,0.0,0.0,0.0,0.0,-2.7757,-2.8004,-2.8193,-2.8815,-2.9301,-2.9704,0.0,0.0,0.0,0.0,0.0,0.0,0.0,0.0,0.0,0.0,0.0,-3.2417,-3.2012,-3.2141,-3.2481,-3.2481,-3.2902,-3.355,-3.4343,-3.5024,-3.5785,-3.6956,-3.7964,-3.8754,-3.9159,-3.9453,-3.9551,-3.921,-3.9013,-3.8693,-3.8008,-3.8849,-3.9595,-3.9267,-4.086,-4.2551,-4.3638,-4.5174,-4.679,-4.8518,-4.9642,-5.054,-5.1299,-5.204,-5.239,-5.2088,-5.3002,-5.3452,-5.3124,-5.3106,-5.333,-5.3775,-5.3813,-5.3889,-5.4072,-5.4089,-5.4246,-5.4576,-5.4909,-5.4619,-5.3688,-5.3086,-5.2322,-5.1408,-5.0776,-5.0483,-5.0493,0.0,-5.0712,-5.0712,-5.0712,-4.9663,-4.8105,-4.8105,-4.7086,-4.5594,-4.5594,-4.5594,-4.5594,0.0,0.0,0.0,0.0,0.0,0.0,0.0,0.0,0.0,-2.2752,-2.308,-2.3557,-2.4225,-2.3937,0.0,0.0,0.0,0.0,0.0,0.0,0.0,0.0,0.0,-2.6077,-2.7458,-2.8147,-2.8472,0.0,0.0,0.0,0.0,0.0,0.0,0.0,0.0,0.0,0.0,0.0,0.0,0.0,0.0,0.0,0.0,0.0,0.0,0.0,0.0,-3.3226,-3.3226,-3.3226,-3.3226,-3.3226,-3.3226,-3.4142,-3.5228,-3.5325,-3.627,-3.7311,-3.7409,-3.8459,-3.9532,-3.9532,-3.9536,-3.9455,-3.9126,-3.8693,-3.8098,-3.7166,-3.834,-3.9388,-3.8836,-4.0014,-4.1533,-4.2965,-4.3897,-4.5199,-4.7407,-4.8744,-4.9996,-5.1335,-5.2006,-5.2585,-5.3136,-5.3361,-5.3519,-5.3656,-5.3735,-5.3756,-5.3813,-5.3813,-5.3813,-5.3813,-5.3813,-5.3944,-5.4229,-5.4462,-5.3808,-5.234,-5.2201,-5.1362,-4.99,-5.0076,-5.0147,-5.0171,-5.0493,-5.0624,-5.0653,-5.0673,-4.9663,-4.8105,-4.8105,-4.7086,-4.5594,-4.5594,-4.5594,-4.5594,0.0,0.0,0.0,0.0,0.0,0.0,0.0,0.0,0.0,0.0,0.0,0.0,0.0,0.0,0.0,0.0,0.0,0.0,0.0,0.0,0.0,0.0,0.0,-2.6712,-2.7964,-2.8635,-2.8982,-2.8958,-2.9092,0.0,0.0,0.0,0.0,0.0,0.0,0.0,0.0,0.0,0.0,0.0,0.0,0.0,0.0,0.0,0.0,0.0,-3.3897,-3.3922,-3.3922,-3.3922,-3.3922,-3.3922,-3.3922,-3.4505,-3.5325,-3.593,-3.6675,-3.7425,-3.8051,-3.864,-3.9088,-3.9088,-3.8894,-3.8621,-3.8272,-3.7636,-3.7172,-3.7359,-3.8141,-3.8922,-3.9422,-4.075,-4.212,-4.3051,-4.432,-4.5776,-4.7465,-4.8439,-4.9444,-5.0796,-5.1424,-5.2,-5.2585,-5.3054,-5.338,-5.3519,-5.3539,-5.362,-5.3793,-5.3813,-5.3813,-5.3813,-5.3813,-5.3832,-5.3889,-5.3573,-5.3119,-5.2527,-5.1711,-5.1017,-5.045,-5.0038,-4.9884,-4.9878,-5.0178,0.0,-5.0306,-5.0594,-4.9663,-4.8105,-4.8105,-4.7086,-4.5594,-4.5594,-4.5594,-4.5594,0.0,0.0,0.0,0.0,0.0,0.0,0.0,0.0,0.0,0.0,0.0,0.0,0.0,0.0,0.0,0.0,0.0,0.0,0.0,0.0,0.0,0.0,0.0,-2.7646,-2.9024,-2.9685,-3.0053,-3.0053,0.0,-2.9922,-2.9635,-2.9294,-2.9273,-2.9515,-2.9515,0.0,0.0,0.0,0.0,0.0,0.0,0.0,0.0,0.0,0.0,0.0,0.0,-3.4101,-3.4101,-3.4101,-3.425,-3.4489,-3.4823,-3.5333,-3.5951,-3.6878,-3.7355,-3.7763,-3.8498,-3.9185,-3.9687,-3.9687,-3.9109,-3.8452,-3.8129,-3.7257,-3.6657,-3.709,-3.7932,-3.8819,-3.956,-4.0647,-4.1688,-4.2447,-4.3164,-4.4458,-4.6803,-4.7441,-4.8439,-5.0546,-5.1288,-5.1824,-5.2394,-5.294,-5.3295,-5.338,-5.34,-5.3461,-5.3638,-5.3716,-5.3774,-5.3813,-5.3385,-5.3181,-5.3181,-5.2528,-5.1912,-5.1342,-5.0831,-5.0277,-4.9704,-4.9623,-4.9583,-4.9598,-4.9884,-5.0056,-5.0206,-5.0369,-4.9527,-4.8105,-4.8105,-4.7086,-4.5594,-4.5594,-4.5594,-4.5594,0.0,0.0,0.0,0.0,0.0,0.0,0.0,0.0,-2.6735,-2.757,-2.7856,0.0,0.0,0.0,0.0,0.0,0.0,0.0,0.0,0.0,0.0,0.0,0.0,-2.8568,-2.9864,0.0,0.0,-3.0904,-3.1066,0.0,0.0,0.0,0.0,0.0,-3.0107,-3.0026,-2.9896,0.0,0.0,0.0,0.0,-3.2313,0.0,0.0,0.0,0.0,0.0,-3.4101,-3.4101,-3.4101,-3.4325,-3.4693,-3.5382,-3.5916,-3.6431,-3.7128,-3.7656,-3.815,-3.8638,-3.9501,-4.0305,-4.0305,-3.9435,-3.8527,-3.8271,-3.7225,-3.6496,-3.7142,-3.7968,-3.887,-3.9784,-4.0457,-4.1153,-4.1895,-4.2154,-4.3199,-4.5975,-4.6648,-4.7709,-5.0085,-5.0999,-5.1576,-5.2012,-5.254,-5.2937,-5.3091,-5.3196,-5.3339,-5.3499,-5.3598,-5.3602,-5.3496,-5.2883,-5.2494,-5.2345,-5.1528,-5.0803,-5.0172,-4.9949,-4.9522,-4.8909,-4.9176,-4.9286,-4.9321,-4.9598,-4.983,0.0,-5.0159,-4.9332,-4.802,-4.8087,-4.7086,-4.5594,-4.5594,-4.5594,-4.5594,0.0,0.0,0.0,0.0,0.0,0.0,0.0,0.0,-2.7744,-2.8264,-2.8802,0.0,0.0,0.0,0.0,0.0,0.0,0.0,0.0,0.0,0.0,0.0,0.0,0.0,0.0,0.0,0.0,-3.0904,-3.1568,0.0,0.0,0.0,0.0,0.0,0.0,-3.0474,-2.9896,-2.9896,0.0,0.0,0.0,0.0,0.0,0.0,0.0,0.0,0.0,-3.4101,-3.4101,-3.4101,-3.4126,-3.4275,-3.5027,-3.5726,-3.6197,-3.5631,-3.6856,-3.8387,-3.8074,-3.9125,-4.0305,-4.0305,-3.9435,-3.8594,-3.8572,-3.7383,-3.6715,-3.8158,-3.8543,-3.9065,-4.0532,-4.086,-4.1153,-4.1895,-4.262,-4.3672,-4.5276,-4.6707,-4.7941,-4.8877,-5.0083,-5.0884,-5.0937,-5.1442,-5.1964,-5.2454,-5.2915,-5.3293,-5.3499,-5.3519,-5.3208,-5.2565,-5.2473,-5.2121,-5.1528,-5.0655,-5.019,-5.0098,-4.9355,-4.8964,-4.8909,-4.8925,-4.896,-4.8959,-4.9286,-4.9442,0.0,-5.0,-4.9232,-4.7767,-4.801,-4.7086,-4.5594,-4.5594,-4.5594,-4.5594,0.0,0.0,0.0,0.0,0.0,0.0,0.0,0.0,-2.8338,-2.9246,0.0,0.0,0.0,0.0,0.0,0.0,0.0,0.0,0.0,0.0,0.0,0.0,0.0,0.0,0.0,0.0,-3.1325,-3.2222,-3.2077,0.0,0.0,0.0,0.0,0.0,0.0,-3.0742,-3.0506,-3.0506,0.0,0.0,0.0,0.0,0.0,0.0,0.0,0.0,0.0,0.0,-3.4754,-3.4754,-3.492,-3.5115,-3.5178,-3.5701,-3.6271,-3.6178,-3.7163,-3.8306,-3.8555,-3.9602,-4.0655,-4.0655,-3.9967,-3.925,-3.925,-3.8094,-3.7439,-3.8939,-3.8905,-3.906,-4.0618,-4.0912,-4.0998,-4.1291,-4.1619,-4.2499,-4.4458,-4.5268,-4.6441,-4.8534,-4.9575,-5.0276,-5.0768,-5.1288,-5.1799,-5.2361,-5.2608,-5.2893,-5.3293,-5.3357,-5.3051,-5.2358,-5.1897,-5.1306,-5.0564,-4.9765,-4.9392,-4.9373,-4.9057,-4.8909,-4.8909,-4.8909,-4.8909,-4.8909,-4.9044,-4.9206,0.0,-4.9627,-4.8909,-4.7704,-4.782,-4.6935,-4.5594,-4.5594,-4.5594,-4.5594,0.0,0.0,0.0,0.0,0.0,0.0,0.0,-2.7692,-2.8664,-2.9982,0.0,0.0,0.0,0.0,0.0,0.0,0.0,0.0,0.0,0.0,0.0,0.0,0.0,0.0,0.0,0.0,-3.2377,-3.3425,-3.3114,-3.3205,0.0,0.0,-3.2852,-3.2623,0.0,0.0,0.0,0.0,0.0,0.0,0.0,0.0,0.0,0.0,0.0,0.0,0.0,0.0,0.0,0.0,0.0,-3.5588,-3.543,-3.5744,-3.6191,-3.6282,-3.7086,-3.8002,-3.8357,-3.9487,-4.0549,-4.0549,-4.0112,-3.9698,-3.9698,-3.8715,-3.8185,-3.9439,-3.9284,-3.9319,-4.067,-4.0912,-4.0912,-4.0912,-4.1291,-4.2137,-4.3741,-4.457,-4.5768,-4.7907,-4.868,-4.9342,-5.0128,-5.0911,-5.1594,-5.2132,-5.2315,-5.2631,-5.3164,-5.3012,-5.26,-5.1908,-5.1395,-5.062,-4.9602,-4.9118,-4.8874,-4.8874,-4.8891,-4.8909,-4.8909,-4.8909,-4.8909,-4.8909,-4.8909,-4.9027,0.0,-4.9368,-4.8617,-4.7464,-4.7555,-4.6723,-4.5485,-4.5485,-4.5522,-4.5594,0.0,0.0,0.0,0.0,0.0,0.0,0.0,0.0,0.0,0.0,0.0,0.0,0.0,0.0,0.0,0.0,0.0,0.0,0.0,0.0,0.0,0.0,0.0,0.0,0.0,0.0,-3.4164,-3.4181,-3.4856,-3.5184,-3.5184,-3.5184,-3.4806,-3.4186,0.0,0.0,0.0,0.0,0.0,0.0,0.0,0.0,0.0,0.0,0.0,0.0,0.0,0.0,0.0,0.0,0.0,0.0,0.0,-3.5805,-3.5739,-3.5316,-3.6305,-3.7425,-3.7041,-3.8294,-3.9715,-3.9715,-3.9698,-3.9698,-3.9698,-3.9112,-3.8784,-3.9543,-3.9681,-3.9939,-4.0756,-4.0912,-4.0912,-4.0912,-4.2189,-4.3172,-4.3207,-4.5147,-4.6596,-4.6631,-4.7269,-4.8027,-4.8769,-5.0028,-5.1026,-5.1569,-5.2108,0.0,-5.3164,-5.2454,-5.1689,-5.0942,-5.0905,-5.0172,-4.8642,-4.8732,-4.8787,-4.8804,-4.8856,-4.8909,-4.8909,-4.8909,-4.8909,-4.8909,-4.8909,-4.8909,0.0,-4.9273,-4.842,-4.6928,-4.7197,-4.6437,-4.5201,-4.5201,-4.5362,-4.5594,0.0,0.0,0.0,0.0,0.0,0.0,0.0,0.0,0.0,0.0,0.0,0.0,0.0,0.0,0.0,0.0,0.0,0.0,0.0,0.0,0.0,0.0,0.0,0.0,0.0,0.0,0.0,-3.4873,-3.5084,-3.5201,-3.5201,-3.5201,-3.5107,-3.4856,-3.4399,-3.4069,0.0,0.0,0.0,0.0,0.0,0.0,-3.5224,0.0,0.0,0.0,0.0,0.0,0.0,0.0,0.0,0.0,0.0,0.0,0.0,-3.5985,-3.668,-3.7473,-3.7347,-3.8114,-3.8939,-3.8939,-3.9319,-3.9698,-3.9698,-3.9508,-3.956,-4.0377,-4.0077,-3.9939,-4.0756,-4.0912,-4.1067,-4.1585,-4.2068,-4.2758,-4.3793,-4.501,-4.6155,-4.7234,-4.8493,-4.9373,-4.9614,-5.0011,-5.0481,-5.0999,-5.1551,-5.2084,-5.2631,-5.223,-5.1648,-5.0861,-5.0352,-4.9562,-4.8532,-4.8624,-4.866,-4.866,-4.8696,-4.8732,-4.884,-4.884,-4.8856,-4.8909,-4.8909,-4.8909,0.0,-4.901,-4.8221,-4.6918,-4.7,-4.6169,-4.4962,-4.5129,-4.5253,-4.5352,0.0,0.0,0.0,0.0,0.0,0.0,0.0,0.0,0.0,0.0,0.0,0.0,0.0,0.0,0.0,0.0,0.0,0.0,0.0,0.0,0.0,0.0,0.0,0.0,0.0,-3.4457,-3.5198,-3.5633,-3.5633,-3.5633,-3.5633,-3.5633,-3.5633,-3.5616,-3.5186,-3.4982,0.0,0.0,0.0,0.0,0.0,0.0,-3.5655,0.0,0.0,0.0,0.0,0.0,0.0,0.0,0.0,0.0,0.0,0.0,0.0,0.0,-3.6853,-3.7443,-3.7133,-3.7594,-3.8254,-3.8525,-3.9146,-3.9767,-4.0077,-4.0146,-4.0284,-4.0808,-4.0515,-4.0325,-4.0808,-4.0912,-4.105,-4.1516,-4.2085,-4.2792,-4.3741,-4.5027,-4.631,-4.7534,-4.8775,-4.9562,-4.9562,-4.9821,-5.0235,-5.0766,-5.1105,-5.1401,-5.1634,-5.1391,-5.0884,-5.0062,-4.9791,-4.9265,-4.8438,-4.8513,-4.855,-4.855,-4.8605,-4.8642,-4.8715,-4.8715,-4.8768,-4.8856,-4.8856,0.0,0.0,-4.8909,-4.8042,-4.6741,-4.6741,-4.5885,-4.4676,-4.4837,-4.503,-4.5222,0.0,0.0,0.0,0.0,0.0,0.0,0.0,0.0,0.0,0.0,0.0,0.0,0.0,0.0,0.0,0.0,0.0,0.0,0.0,0.0,0.0,0.0,0.0,0.0,0.0,-3.5542,-3.6301,-3.6301,-3.6301,-3.6301,-3.6301,-3.6301,-3.6301,-3.6301,-3.6301,-3.6301,0.0,0.0,0.0,0.0,-3.6301,-3.6301,0.0,0.0,0.0,0.0,0.0,0.0,0.0,0.0,0.0,0.0,0.0,0.0,0.0,0.0,0.0,0.0,0.0,-3.6922,-3.7668,-3.8358,-3.9077,-3.9802,-4.0498,-4.0705,0.0,-4.0808,-4.0825,-4.086,-4.0963,-4.0946,-4.0963,-4.1119,-4.2292,-4.3241,-4.3345,-4.5268,-4.6975,-4.7786,-4.8465,-4.8879,-4.8879,-4.9579,-5.0206,-5.0712,-5.0793,-5.0665,-5.035,-5.0075,-4.9593,-4.8822,-4.9222,-4.9094,-4.8324,-4.842,-4.8494,-4.8494,-4.855,-4.8587,-4.8587,-4.8587,-4.866,0.0,-4.8787,0.0,0.0,-4.8853,-4.7906,-4.6494,-4.6438,-4.5587,-4.4369,-4.4383,-4.4726,-4.5159,0.0,0.0,0.0,0.0,0.0,0.0,0.0,0.0,0.0,0.0,0.0,0.0,0.0,0.0,0.0,0.0,0.0,0.0,0.0,0.0,0.0,0.0,0.0,0.0,0.0,-3.5542,-3.6301,-3.6301,-3.6301,-3.6301,-3.6301,-3.6301,-3.6301,-3.6301,-3.6301,0.0,0.0,0.0,0.0,0.0,-3.6301,-3.6301,0.0,0.0,0.0,0.0,-3.5663,-3.5818,0.0,0.0,0.0,0.0,0.0,0.0,0.0,0.0,-3.6853,-3.7461,-3.7271,0.0,-3.7547,-3.7719,-3.8323,-3.875,0.0,-3.8755,-3.9284,-3.9871,-3.9974,-4.0336,-4.1509,-4.1291,-4.1481,-4.3224,-4.3327,-4.3603,-4.4734,-4.6372,-4.7958,-4.9304,-4.9614,-4.9735,-4.9735,-4.989,-5.0051,-5.0178,-5.0564,-5.0505,-4.981,-4.9541,-4.922,-4.8822,-4.8333,-4.8138,-4.8287,-4.8325,-4.8343,-4.8343,-4.8363,-4.842,-4.8532,-4.8532,-4.8569,-4.866,0.0,0.0,-4.8784,-4.8206,-4.7404,-4.6438,-4.5807,-4.4963,-4.4121,-4.4318,-4.4479,-4.4624,0.0,0.0,0.0,0.0,0.0,0.0,0.0,0.0,0.0,0.0,0.0,0.0,0.0,0.0,0.0,0.0,0.0,0.0,0.0,0.0,0.0,0.0,0.0,0.0,0.0,-3.5714,-3.6301,-3.6301,-3.6301,-3.6301,-3.6301,-3.6301,-3.6301,-3.6301,-3.6301,0.0,0.0,0.0,0.0,0.0,-3.6301,0.0,0.0,0.0,0.0,0.0,-3.4855,-3.4938,0.0,-3.568,-3.5801,-3.5852,0.0,0.0,0.0,0.0,-3.6602,-3.7024,-3.7325,-3.771,-3.8077,-3.8355,-3.8498,-3.8577,-3.8458,-3.8402,-3.8534,-3.9089,-3.9359,-3.9723,-4.0521,-4.1061,-4.1736,-4.28,-4.3373,-4.4363,-4.619,-4.7155,-4.8258,-4.9821,-5.0011,-5.0011,-5.0011,-5.0011,-5.0011,-5.0011,-4.9916,-4.9537,-4.8771,-4.8455,-4.8122,-4.762,-4.7594,-4.7836,-4.8287,-4.8306,-4.8306,-4.8306,-4.8306,-4.8343,-4.8401,-4.8401,-4.8457,-4.8569,0.0,0.0,-4.8122,-4.7731,-4.6877,-4.5766,-4.534,-4.467,-4.3958,-4.4094,-4.425,-4.443,0.0,0.0,0.0,0.0,0.0,0.0,0.0,0.0,0.0,0.0,0.0,0.0,0.0,0.0,0.0,0.0,0.0,0.0,0.0,0.0,0.0,0.0,0.0,-3.5197,-3.5197,-3.5921,-3.6301,-3.6301,-3.6301,-3.6301,-3.6301,-3.6301,-3.6301,-3.6301,-3.6301,0.0,0.0,0.0,0.0,-3.6301,-3.6385,0.0,0.0,0.0,0.0,0.0,0.0,0.0,0.0,-3.4818,-3.5111,-3.5301,-3.5901,0.0,0.0,0.0,0.0,0.0,-3.716,-3.8025,-3.8803,-3.908,-3.8836,-3.862,-3.901,-3.8527,-3.8118,-3.8505,-3.8849,-3.9202,-3.9549,-4.08,-4.1848,-4.198,-4.3391,-4.5216,-4.7407,-4.7689,-4.8258,-4.9821,-5.0011,-5.0011,-5.0011,-5.0011,-4.9959,-4.9838,-4.9172,-4.843,-4.7596,-4.7326,-4.6876,-4.6204,-4.6981,-4.7611,-4.8093,-4.8229,-4.8306,-4.8306,-4.8306,-4.8306,-4.8306,-4.8306,-4.8363,-4.8457,0.0,0.0,-4.7369,-4.7257,-4.6334,-4.4986,-4.4857,-4.4445,-4.3883,-4.382,-4.402,-4.4303,0.0,0.0,0.0,0.0,0.0,0.0,0.0,0.0,0.0,0.0,0.0,0.0,0.0,0.0,0.0,0.0,0.0,0.0,0.0,0.0,0.0,0.0,0.0,-3.5197,-3.5197,-3.5921,-3.6301,-3.6301,-3.6301,-3.6301,-3.6301,-3.6301,-3.6301,-3.6301,-3.6301,-3.6301,0.0,0.0,0.0,-3.6343,-3.6678,0.0,0.0,0.0,0.0,0.0,0.0,0.0,0.0,-3.4234,-3.468,-3.5214,-3.5198,0.0,0.0,0.0,0.0,0.0,-3.7385,-3.8403,-3.9085,-3.7942,-3.787,-3.796,-3.7411,-3.7419,-3.7709,-3.8387,-3.8556,-3.9312,-4.1562,-4.1398,-4.1736,-4.437,-4.5043,-4.5793,-4.7465,-4.7689,-4.8258,-4.9821,-5.0011,-5.0011,-5.0011,-5.0011,-4.9735,-4.9034,-4.8861,-4.8206,-4.6855,-4.6746,-4.6543,-4.6204,-4.6339,-4.6631,-4.7093,-4.7895,-4.8306,-4.8306,-4.8306,-4.8306,-4.8306,-4.8306,-4.8306,-4.8343,0.0,-4.8034,-4.726,-4.6631,-4.5835,-4.493,-4.4247,-4.3915,-4.382,-4.3804,-4.3835,-4.3915,0.0,0.0,0.0,0.0,0.0,0.0,0.0,0.0,0.0,0.0,0.0,0.0,0.0,0.0,0.0,0.0,0.0,0.0,0.0,0.0,0.0,0.0,-3.6853,-3.6234,-3.5804,-3.6128,-3.6301,-3.6301,-3.6301,-3.6301,-3.6301,-3.6533,-3.6618,-3.6638,-3.6841,-3.6939,-3.6939,0.0,-3.6939,-3.6958,0.0,0.0,0.0,0.0,0.0,0.0,0.0,0.0,0.0,0.0,-3.3955,-3.4663,-3.4998,0.0,0.0,0.0,0.0,0.0,-3.5352,-3.616,-3.6773,-3.6772,-3.7834,-3.8564,-3.7429,-3.7157,-3.7177,-3.7329,-3.7685,-3.8474,-4.0241,-4.1107,-4.2398,-4.4885,-4.5371,-4.5793,-4.6958,-4.7458,-4.8103,-4.9206,-4.9752,-5.0011,-5.0011,-4.9614,-4.9189,-4.8827,-4.8051,-4.7338,-4.6648,-4.6199,-4.5909,-4.577,-4.6038,-4.6291,-4.6531,-4.7204,-4.7671,-4.7917,-4.7917,-4.8055,-4.8306,-4.8306,-4.8067,-4.7645,0.0,-4.704,-4.5864,-4.5532,-4.4905,-4.4149,-4.3781,-4.3669,-4.3703,-4.3769,-4.3753,-4.3719,0.0,0.0,0.0,0.0,0.0,0.0,0.0,0.0,0.0,0.0,0.0,0.0,0.0,0.0,0.0,0.0,0.0,0.0,0.0,0.0,-3.7594,-3.8085,-3.7703,-3.7209,-3.6597,-3.6577,-3.6577,-3.6577,-3.6577,-3.6516,-3.6451,-3.6759,-3.69,-3.6919,-3.7209,-3.7414,-3.7505,-3.7505,-3.7505,-3.7505,0.0,0.0,0.0,0.0,0.0,0.0,0.0,0.0,0.0,0.0,0.0,0.0,0.0,0.0,0.0,-3.5019,-3.3902,-3.2778,-3.3743,-3.4212,-3.4659,-3.5647,-3.7441,-3.8795,-3.7967,-3.7491,-3.7238,-3.7127,-3.7441,-3.8026,-3.9016,-4.0939,-4.2814,-4.432,-4.4949,-4.5566,-4.6466,-4.7096,-4.7707,-4.8448,-4.9097,-4.9476,-4.9476,-4.8896,-4.8465,-4.8293,-4.7251,-4.6527,-4.6337,-4.5725,-4.5397,-4.5397,-4.5803,-4.6013,-4.6013,-4.6387,-4.6845,-4.7442,-4.7548,-4.7795,-4.8134,-4.8047,-4.7681,-4.7094,-4.6892,-4.6012,-4.4691,-4.4691,-4.4232,-4.3515,-4.3515,-4.3513,-4.36,-4.3686,-4.3651,-4.3582,0.0,0.0,0.0,0.0,0.0,0.0,0.0,0.0,0.0,0.0,0.0,0.0,0.0,0.0,0.0,0.0,0.0,0.0,0.0,0.0,-3.729,-3.8065,-3.7703,-3.7469,-3.7396,-3.7414,-3.7414,-3.7414,-3.7414,-3.7209,-3.686,-3.688,-3.69,-3.69,-3.6939,-3.7151,-3.7505,-3.7505,-3.7505,-3.7542,-3.7913,0.0,0.0,0.0,0.0,0.0,0.0,0.0,0.0,0.0,0.0,0.0,0.0,0.0,-3.5786,-3.5329,-3.4478,-3.3787,-3.4246,-3.4286,-3.4301,-3.4556,-3.5929,-3.7496,-3.8607,-3.8591,-3.8476,-3.9139,-3.8759,-3.872,-3.9872,-4.1419,-4.253,-4.2658,-4.3844,-4.519,-4.6439,-4.6648,-4.6958,-4.7672,-4.781,-4.7862,-4.7862,-4.7793,-4.7482,-4.682,-4.6665,-4.6259,-4.5518,-4.5432,-4.5397,-4.5397,-4.545,-4.545,-4.545,-4.5485,-4.5995,-4.6954,-4.7399,-4.7611,-4.7635,-4.7325,-4.7149,-4.7058,-4.6305,-4.5498,-4.4691,-4.4691,-4.4232,-4.3515,-4.3515,-4.3496,-4.3515,-4.3515,-4.3515,-4.3532,0.0,0.0,0.0,0.0,0.0,0.0,0.0,0.0,0.0,0.0,0.0,0.0,0.0,0.0,0.0,0.0,0.0,0.0,0.0,0.0,-3.7421,-3.7716,-3.8063,-3.7917,-3.721,-3.7381,-3.7505,-3.7505,-3.7265,-3.7183,-3.7283,-3.7798,-3.8012,-3.7975,-3.851,-3.8571,-3.8252,-3.8252,-3.8252,-3.8252,-3.8417,-3.7289,0.0,0.0,0.0,0.0,0.0,0.0,0.0,0.0,-3.3059,-3.4042,0.0,-3.4247,-3.4771,-3.4245,-3.3185,-3.2337,-3.3035,-3.3444,-3.3929,-3.4873,-3.589,-3.6817,-3.7312,-3.7979,-3.854,-3.8819,-3.8825,-3.9046,-3.9902,-4.1116,-4.2081,-4.2319,-4.3252,-4.4298,-4.5282,-4.5843,-4.6381,-4.6965,-4.7414,-4.7689,-4.7689,-4.7303,-4.6906,-4.6631,-4.6121,-4.5707,-4.5414,-4.5397,-4.5397,-4.5397,-4.5397,-4.5397,-4.5397,-4.5397,-4.5589,-4.597,-4.6489,-4.7049,-4.7593,-4.6957,-4.6555,-4.6305,-4.5498,-4.4709,-4.3956,-4.3956,-4.3754,-4.3515,-4.3515,-4.3515,-4.3515,-4.3515,-4.3515,-4.3496,0.0,0.0,0.0,0.0,0.0,0.0,0.0,0.0,0.0,0.0,0.0,0.0,0.0,0.0,0.0,0.0,0.0,0.0,0.0,0.0,-3.6817,-3.7107,-3.7643,-3.7589,-3.6789,-3.7238,-3.7397,-3.7149,-3.7103,-3.7178,-3.7328,0.0,-3.8541,-3.829,-3.9273,-3.9328,-3.8707,-3.8707,-3.8707,-3.8707,-3.8707,-3.7723,0.0,0.0,0.0,0.0,0.0,0.0,0.0,0.0,-3.2852,-3.3662,0.0,0.0,-3.4281,-3.3405,-3.2666,-3.2212,-3.2504,-3.2998,-3.369,-3.4905,-3.583,-3.6553,-3.6769,-3.7692,-3.8631,-3.9029,-3.8965,-3.8964,-3.944,-4.0256,-4.1071,-4.1708,-4.2526,-4.3393,-4.4197,-4.4811,-4.5349,-4.5929,-4.6447,-4.6811,-4.6965,-4.65,-4.6207,-4.6207,-4.5707,-4.5397,-4.5397,-4.5397,-4.5397,-4.5397,-4.5397,-4.5397,-4.5397,-4.5397,-4.5397,-4.5397,-4.5778,-4.637,-4.7124,-4.6233,-4.5764,-4.5607,-4.4583,-4.3887,-4.3515,-4.3515,-4.3515,-4.3515,-4.3515,-4.3515,-4.3515,-4.3515,-4.3515,-4.3515,0.0,0.0,0.0,0.0,0.0,0.0,0.0,0.0,0.0,0.0,0.0,0.0,0.0,0.0,0.0,0.0,0.0,0.0,0.0,-3.4986,-3.5371,-3.6229,-3.6303,-3.6303,-3.6285,-3.7074,-3.7135,-3.6416,-3.7149,-3.7302,-3.6917,-3.814,-3.8255,-3.7559,-3.876,-3.9064,-3.8673,-3.8689,-3.8689,-3.8689,-3.8689,-3.8212,-3.7371,0.0,0.0,0.0,0.0,0.0,0.0,0.0,-3.2904,-3.3041,-3.3837,0.0,0.0,-3.3072,-3.3346,-3.3987,-3.3044,-3.3085,-3.3567,-3.4335,-3.5521,-3.6676,-3.7353,-3.8031,-3.8908,-4.0213,-3.9447,-3.8508,-3.8492,-3.8753,-3.9359,-4.0515,-4.1597,-4.2584,-4.3393,-4.3482,-4.3777,-4.458,-4.4708,-4.4889,-4.5344,-4.5397,-4.5397,-4.5397,-4.5397,-4.5397,-4.5397,-4.5397,-4.5397,-4.5397,-4.5397,-4.5397,-4.5397,-4.5397,-4.538,-4.538,-4.538,-4.5658,-4.614,-4.5009,-4.4752,-4.5086,-4.357,-4.3142,-4.3479,-4.3515,-4.3515,-4.3515,-4.3515,-4.3515,-4.3515,-4.3515,-4.3515,-4.3515,0.0,0.0,0.0,0.0,0.0,0.0,0.0,0.0,0.0,0.0,0.0,0.0,0.0,0.0,0.0,0.0,0.0,0.0,0.0,0.0,0.0,-3.4523,-3.6207,-3.6747,0.0,0.0,-3.6595,-3.7184,-3.738,-3.7434,0.0,-3.7991,-3.8135,-3.796,-3.8888,-3.8604,-3.7446,-3.7735,-3.786,-3.786,-3.786,-3.7713,-3.7386,0.0,0.0,0.0,0.0,0.0,0.0,0.0,0.0,0.0,-3.2559,0.0,0.0,-3.2832,-3.3299,-3.4284,-3.279,-3.3056,-3.3867,-3.4378,-3.5845,-3.7384,-3.8061,-3.8739,-3.9339,-3.9705,-3.9123,-3.8369,-3.7892,-3.825,-3.8848,-3.9406,-4.0588,-4.1754,-4.2553,-4.2847,-4.3213,-4.3777,-4.4071,-4.4401,-4.4862,-4.4917,-4.5042,-4.5371,-4.5397,-4.5397,-4.5397,-4.5397,-4.5397,-4.5397,-4.5397,-4.5397,-4.5397,-4.4889,-4.463,-4.4613,-4.4096,-4.4381,-4.5332,-4.4431,-4.397,-4.3891,-4.3201,-4.2957,-4.3087,-4.3375,-4.3515,-4.3515,-4.3515,-4.3515,-4.3515,-4.3515,-4.3515,-4.3515,0.0,0.0,0.0,0.0,0.0,0.0,0.0,0.0,0.0,0.0,0.0,-3.4325,0.0,0.0,0.0,0.0,0.0,0.0,0.0,0.0,0.0,0.0,0.0,0.0,0.0,-3.6235,-3.6576,0.0,0.0,0.0,0.0,-3.7772,-3.794,-3.7657,-3.8615,-3.8254,-3.6922,-3.7148,-3.7354,-3.7492,-3.7492,-3.7492,-3.7386,0.0,0.0,0.0,0.0,0.0,0.0,0.0,0.0,0.0,-3.1938,-3.3132,-3.4379,-3.2807,-3.3597,-3.4774,-3.3725,-3.4262,-3.5225,-3.5597,-3.6799,-3.8077,-3.8754,-3.9198,-3.949,-3.949,-3.8769,-3.8061,-3.7923,-3.8015,-3.8265,-3.8722,-3.9517,-4.037,-4.1293,-4.1598,-4.2089,-4.312,-4.341,-4.3664,-4.3979,-4.4156,-4.4272,-4.4266,-4.4406,-4.4527,-4.4527,-4.4527,-4.4527,-4.4527,-4.4527,-4.4527,-4.4527,-4.4104,-4.3862,-4.3862,-4.3414,-4.3415,-4.3777,-4.3317,-4.3085,-4.3087,-4.2759,-4.2731,-4.292,-4.316,-4.3357,-4.3515,-4.3515,-4.3515,-4.3515,-4.3515,-4.3515,-4.3515,0.0,0.0,-2.7736,-2.8776,0.0,0.0,0.0,0.0,0.0,-3.357,-3.3661,-3.367,0.0,0.0,0.0,-3.3587,0.0,0.0,0.0,0.0,0.0,0.0,0.0,0.0,0.0,0.0,0.0,0.0,0.0,0.0,-3.6318,-3.7347,-3.7477,-3.6895,-3.7979,-3.7828,-3.6731,-3.6723,-3.6929,-3.7272,-3.7272,-3.7327,-3.7261,-3.6079,0.0,0.0,0.0,0.0,0.0,0.0,0.0,0.0,-3.199,-3.2299,-3.2703,-3.2945,-3.4136,-3.536,-3.5208,-3.6032,-3.7016,-3.7372,-3.7969,-3.8692,-3.9336,-3.9431,-3.9339,-3.9339,-3.8354,-3.7677,-3.8231,-3.7877,-3.7707,-3.8323,-3.8477,-3.8822,-3.9802,-3.9994,-4.0607,-4.2246,-4.2497,-4.2619,-4.2779,-4.3147,-4.3122,-4.2505,-4.2877,-4.3139,-4.3139,-4.3164,-4.3189,-4.3189,-4.3189,-4.3189,-4.3189,-4.312,-4.3086,-4.3086,-4.3017,-4.262,-4.1888,-4.1981,-4.2228,-4.257,-4.2268,-4.2398,-4.2844,-4.2882,-4.3123,-4.3444,-4.3497,-4.3515,-4.3515,-4.3515,-4.3515,-4.3515,0.0,0.0,-2.8418,-2.9227,0.0,0.0,0.0,0.0,-3.1799,-3.286,-3.2683,-3.2579,-3.2845,-3.2284,0.0,-3.1929,-3.1182,0.0,0.0,0.0,0.0,0.0,0.0,0.0,0.0,0.0,0.0,0.0,0.0,-3.6043,-3.6284,-3.5976,-3.6052,-3.6433,-3.671,-3.631,-3.5466,-3.5433,-3.5461,-3.5536,-3.5536,-3.5954,-3.6468,-3.5516,-3.4885,0.0,0.0,0.0,0.0,0.0,0.0,0.0,-3.3423,-3.4054,-3.4391,-3.3304,-3.4474,-3.5786,-3.441,-3.5269,-3.6611,-3.7016,-3.7822,-3.8692,-3.9336,-3.8708,-3.7938,-3.7938,-3.7707,-3.7384,-3.6999,-3.723,-3.7554,-3.7692,-3.8169,-3.8569,-3.8807,-3.9083,-3.9373,-3.9755,-4.0275,-4.0746,-4.116,-4.1522,-4.1811,-4.2001,-4.2428,-4.2654,-4.2654,-4.2996,-4.3189,-4.3189,-4.3189,-4.3189,-4.3189,-4.2568,-4.2275,0.0,-4.1671,-4.1309,-4.117,-4.1757,-4.1892,-4.174,-4.1675,-4.1906,-4.2378,-4.2749,-4.2939,-4.305,-4.3375,-4.3515,-4.3515,-4.3515,-4.3515,-4.3515,0.0,0.0,0.0,0.0,0.0,0.0,0.0,0.0,-3.2046,-3.2932,-3.248,-3.2224,-3.2557,-3.188,0.0,0.0,-3.065,-3.054,0.0,0.0,0.0,0.0,0.0,0.0,0.0,0.0,0.0,0.0,0.0,-3.5074,-3.6301,-3.6284,-3.6508,-3.6857,-3.6474,-3.5957,-3.5331,-3.4321,-3.4243,-3.4732,-3.4509,-3.4931,-3.5642,-3.5169,-3.4649,-3.4058,-3.3145,0.0,0.0,0.0,0.0,0.0,0.0,0.0,-3.3738,-3.316,-3.3945,-3.4928,-3.4762,-3.5621,-3.6759,-3.7475,-3.8341,-3.8931,-3.88,-3.8258,-3.759,-3.7108,-3.7015,-3.6907,-3.6553,-3.6784,-3.7015,-3.7015,-3.7307,-3.7646,-3.7984,-3.8177,-3.8446,-3.8933,-3.9314,-3.9609,-3.986,-4.0209,-4.0461,-4.0519,-4.0872,-4.123,-4.1427,-4.1689,-4.1906,-4.2102,-4.2102,-4.2102,-4.2102,-4.1688,-4.1481,-4.1481,-4.1084,-4.0912,-4.0912,-4.1309,-4.1375,-4.1192,-4.1192,-4.1445,-4.1885,-4.2136,-4.2358,-4.2614,-4.305,-4.3214,-4.325,-4.3427,-4.3515,-4.3515,0.0,0.0,0.0,0.0,0.0,0.0,0.0,0.0,0.0,-3.285,-3.2393,-3.2099,-3.2295,-3.1653,-3.114,0.0,0.0,0.0,-3.114,0.0,0.0,0.0,0.0,0.0,0.0,0.0,0.0,0.0,-3.3593,-3.4076,-3.6318,-3.6835,-3.7254,-3.7461,-3.6592,-3.5928,-3.5405,-3.3507,-3.3329,-3.4256,-3.3866,-3.4156,-3.4784,-3.4784,-3.438,-3.3707,-3.3029,-3.2795,-3.2807,-3.2871,0.0,0.0,0.0,0.0,-3.2573,-3.2959,-3.3239,-3.3684,-3.5023,-3.6085,-3.7052,-3.8127,-3.8871,-3.9078,-3.8263,-3.7982,-3.767,-3.6847,-3.6585,-3.6492,-3.6492,-3.6492,-3.6492,-3.6492,-3.6492,-3.6676,-3.7246,-3.7323,-3.7619,-3.8463,-3.8621,-3.8654,-3.8653,-3.8985,-3.9129,-3.8838,-3.9189,-3.961,-4.0062,-4.0213,-4.0436,-4.0793,-4.0847,-4.0912,-4.0912,-4.0912,-4.0912,-4.0912,-4.0912,-4.0912,-4.0912,-4.0912,-4.0912,-4.0912,-4.0912,-4.1088,-4.1401,-4.1468,-4.1735,-4.2115,-4.2595,-4.2787,-4.2844,-4.3232,-4.3392,-4.341,0.0,0.0,0.0,0.0,0.0,0.0,0.0,0.0,0.0,0.0,-3.1584,-3.1521,-3.117,-3.0671,-3.0081,-2.9372,-2.9225,-2.95,0.0,0.0,0.0,0.0,0.0,0.0,0.0,0.0,0.0,0.0,-3.3335,-3.4076,-3.6284,-3.5749,-3.6236,-3.7443,-3.6287,-3.5399,-3.4669,-3.3345,-3.3055,-3.3451,-3.3386,-3.3609,-3.3972,-3.3972,-3.3899,-3.3707,-3.3029,-3.2795,-3.2807,-3.2871,-3.2904,0.0,0.0,0.0,-3.2906,-3.3318,-3.3266,-3.3173,-3.3674,-3.5263,-3.7055,-3.8142,-3.8462,-3.8509,-3.8384,-3.7895,-3.7438,-3.7314,-3.6861,-3.6492,-3.6492,-3.6492,-3.6492,-3.6492,-3.6492,-3.6522,-3.6615,-3.663,-3.6692,-3.6816,-3.708,-3.7279,-3.7277,-3.7545,-3.7791,-3.803,-3.8407,-3.8794,-3.9142,-3.9893,-4.0313,-4.0379,-4.0704,-4.0912,-4.0912,-4.0912,-4.0912,-4.0912,-4.0912,-4.0912,-4.0912,-4.0912,-4.0912,-4.0912,-4.0912,-4.0918,-4.1012,-4.1373,-4.1539,-4.1648,-4.2115,-4.2279,-4.2358,-4.2807,-4.2976,-4.3013,0.0,0.0,0.0,0.0,0.0,0.0,0.0,0.0,0.0,0.0,0.0,-3.1425,-3.0952,-3.0494,-2.9879,-2.9078,-2.9005,0.0,0.0,0.0,0.0,0.0,0.0,0.0,0.0,0.0,0.0,-3.28,-3.1593,-3.3041,-3.696,-3.5749,-3.6456,-3.8669,-3.7321,-3.6273,-3.5427,-3.3336,-3.2586,-3.2713,-3.2455,-3.3355,-3.4776,-3.3868,-3.4219,-3.4999,-3.3584,-3.297,-3.2839,-3.3089,-3.3056,-3.2955,-3.3317,0.0,0.0,0.0,-3.2306,-3.269,-3.4087,-3.5445,-3.6833,-3.8088,-3.8395,-3.8366,-3.8173,-3.7905,-3.7623,-3.7447,-3.7178,-3.6952,-3.6816,-3.6631,-3.6492,-3.6492,-3.6492,-3.6492,-3.6492,-3.6492,-3.6492,-3.6492,-3.6616,-3.6785,-3.6969,-3.7105,-3.73,-3.7594,-3.7767,-3.8141,-3.8673,-3.9339,-3.9867,-4.0305,-4.068,-4.0912,-4.0912,-4.0912,-4.0912,-4.0912,-4.0912,-4.0912,-4.0912,-4.0912,-4.0912,-4.0912,-4.0912,-4.0912,-4.0894,-4.1071,-4.1163,-4.1209,-4.1644,-4.1799,-4.1864,-4.232,-4.2498,-4.2557,0.0,0.0,0.0,0.0,0.0,0.0,0.0,0.0,0.0,0.0,0.0,-3.1375,-3.1096,0.0,0.0,0.0,-2.9115,0.0,0.0,0.0,0.0,0.0,0.0,0.0,0.0,0.0,-3.1581,-3.1339,-3.0318,-3.2231,-3.6891,-3.5921,-3.7094,-3.9939,-3.8461,-3.7111,-3.5873,-3.3619,-3.2756,-3.2862,-3.2502,-3.3709,-3.5597,-3.479,-3.5511,-3.6644,-3.4546,-3.3625,-3.337,-3.309,-3.2817,-3.2628,-3.2628,-3.2628,0.0,0.0,0.0,-3.2045,-3.3998,-3.4987,-3.5866,-3.7469,-3.7987,-3.8109,-3.8026,-3.8046,-3.796,-3.7727,-3.7594,-3.7462,-3.7285,-3.6892,-3.6631,-3.6631,-3.6554,-3.6492,-3.6492,-3.6492,-3.6492,-3.6492,-3.6492,-3.6585,-3.6847,-3.6877,-3.6984,-3.7284,-3.7314,-3.7578,-3.8181,-3.8739,-3.9339,-3.9995,-4.0485,-4.0817,-4.0912,-4.0912,-4.0912,-4.0912,-4.0912,-4.0912,-4.0912,-4.0912,-4.0912,-4.0912,-4.0912,-4.0912,-4.0912,-4.0912,-4.0912,-4.0918,-4.1214,-4.1351,-4.1401,-4.1842,-4.2011,-4.2095,0.0,0.0,0.0,0.0,0.0,0.0,0.0,0.0,0.0,0.0,0.0,-3.1307,-3.1538,-3.1135,-3.0675,-3.0186,-2.9445,0.0,0.0,0.0,0.0,0.0,0.0,0.0,0.0,-3.1461,-3.116,-3.0093,-3.0473,-3.2231,-3.5318,-3.5956,-3.7887,-4.0774,-3.9238,-3.7318,-3.5197,-3.4355,-3.4191,-3.4493,-3.444,-3.494,-3.5851,-3.7237,-3.8085,-3.8263,-3.5933,-3.5075,-3.4742,-3.2595,-3.187,-3.1852,-3.1852,-3.1852,-3.1852,0.0,0.0,0.0,-3.2331,-3.2954,-3.3761,-3.5882,-3.6902,-3.7538,-3.8218,-3.8363,-3.8363,-3.8335,-3.8103,-3.7886,-3.7857,-3.7359,-3.6969,-3.6969,-3.6724,-3.6492,-3.6492,-3.6492,-3.6492,-3.6492,-3.6492,-3.6523,-3.6523,-3.6523,-3.6647,-3.6999,-3.703,-3.7165,-3.7447,-3.8153,-3.8767,-3.9259,-3.9969,-4.051,-4.0912,-4.0912,-4.0912,-4.0912,-4.0912,-4.0912,-4.0912,-4.0912,-4.0912,-4.0912,-4.0912,-4.0912,-4.0912,-4.0912,-4.0912,-4.0912,-4.0918,-4.0918,-4.0989,-4.1378,-4.1539,-4.1604,0.0,0.0,0.0,0.0,0.0,0.0,0.0,0.0,0.0,0.0,0.0,0.0,0.0,-3.1521,-3.1379,-3.0711,-3.0118,0.0,0.0,0.0,0.0,0.0,0.0,0.0,0.0,-3.0948,-3.0622,-3.0001,-2.9484,-3.0765,-3.3749,-3.4507,-3.5973,-3.7956,-3.8387,-3.8146,-3.7267,-3.5545,-3.4864,-3.5003,-3.5003,-3.5894,-3.727,-3.7578,-3.8544,-3.9595,-3.801,-3.6808,-3.5846,-3.5031,-3.3753,-3.2507,-3.2507,-3.2179,-3.1763,-3.1542,-3.1159,-3.1057,-3.2205,-3.2448,-3.2902,-3.5056,-3.6125,-3.6853,-3.7549,-3.8068,-3.8391,-3.8391,-3.829,-3.8234,-3.8234,-3.7698,-3.721,-3.703,-3.6908,-3.6754,-3.6523,-3.6492,-3.6492,-3.6492,-3.6492,-3.6492,-3.6492,-3.6492,-3.6554,-3.6662,-3.6693,-3.68,-3.7135,-3.7841,-3.8395,-3.8739,-3.9773,-4.0485,-4.0912,-4.0912,-4.0912,-4.0912,-4.0912,-4.0912,-4.0912,-4.0912,-4.0912,-4.0912,-4.0912,-4.0912,-4.0912,-4.0912,-4.0912,-4.0912,-4.0912,-4.0912,-4.0935,-4.1065,-4.1117,-4.1186,0.0,0.0,0.0,-3.4745,0.0,-3.3203,-3.202,-3.1428,-3.1075,-3.0893,0.0,0.0,0.0,0.0,-3.1523,-3.0948,-3.0713,-3.0595,-3.0595,0.0,0.0,0.0,0.0,0.0,0.0,-3.0732,-3.0255,-2.972,-2.9099,-3.0023,-3.2447,-3.3535,-3.4829,-3.631,-3.7085,-3.7727,-3.8151,-3.687,-3.6197,-3.5994,-3.6232,-3.7217,-3.8543,-3.8922,-3.9982,-4.1071,-3.9803,-3.8673,-3.7702,-3.6862,-3.5414,-3.3842,-3.3427,-3.261,-3.1763,-3.1523,-3.1237,-3.1123,-3.1879,-3.1951,-3.2329,-3.4454,-3.5289,-3.593,-3.7355,-3.7873,-3.81,-3.8359,-3.8391,-3.8391,-3.8391,-3.8033,-3.7639,-3.7345,-3.7135,-3.6908,-3.6693,-3.6585,-3.6492,-3.6492,-3.6492,-3.6492,-3.6492,-3.6492,-3.6492,-3.6492,-3.6492,0.0,-3.6816,-3.7419,-3.8042,-3.8712,-3.9747,-4.0485,-4.0912,-4.0912,-4.0912,-4.0912,-4.0912,-4.0912,-4.0912,-4.0912,-4.0912,-4.0912,-4.0912,-4.0912,-4.0912,-4.0912,-4.0912,-4.0912,-4.0912,-4.0912,-4.0912,-4.0912,-4.0912,-4.0942,-3.5447,-3.56,-3.5363,-3.4658,-3.4037,-3.3386,-3.2672,-3.137,-3.0765,-3.1562,0.0,0.0,0.0,0.0,0.0,-3.1014,-3.1292,-3.147,-3.1452,-3.1415,0.0,0.0,0.0,0.0,-3.1427,-3.0834,-3.0115,-2.9247,-2.9443,-3.0193,-3.1521,-3.3105,-3.4672,-3.6101,-3.5397,-3.5958,-3.7478,-3.8163,-3.8116,-3.7599,-3.8249,-3.8847,-3.9525,-4.1407,-4.244,-4.2664,-4.118,-4.0617,-4.0239,-3.7887,-3.6592,-3.5725,-3.4495,-3.3059,-3.1834,-3.18,-3.1578,-3.1329,0.0,0.0,0.0,-3.4001,-3.4276,-3.4806,-3.7642,-3.7744,-3.7469,-3.8213,-3.8375,-3.8375,-3.8391,-3.8391,-3.8307,-3.7972,-3.7419,-3.7015,-3.7015,-3.6724,-3.6523,-3.6492,-3.6492,-3.6492,-3.6492,-3.6492,-3.6492,-3.6492,-3.6492,-3.6492,-3.6492,-3.6816,-3.7669,-3.9109,-3.9876,-4.0461,-4.0888,-4.0894,-4.0912,-4.0912,-4.0912,-4.0912,-4.0912,-4.0912,-4.0912,-4.0912,-4.0912,-4.0912,-4.0912,-4.0912,-4.0912,-4.0912,-4.0912,-4.0912,-4.0912,-4.0912,-4.0912,-4.0912,-3.5447,-3.56,-3.5532,-3.5329,-3.4714,-3.4176,-3.3973,-3.3164,-3.2683,0.0,0.0,0.0,-3.2532,-3.2791,-3.3076,-3.334,-3.317,-3.2828,-3.2289,-3.1715,-3.1397,-3.1397,-3.2173,-3.2354,-3.1859,-3.1431,-3.0987,-3.0507,-3.0283,-3.036,-3.0807,-3.2276,-3.3511,-3.4552,-3.4833,-3.5273,-3.5801,-3.5494,-3.6494,-3.8237,-3.7301,-3.8009,-3.9671,-4.0555,-4.1301,-4.1874,-4.1797,-4.1199,-4.0344,-3.9673,-3.8402,-3.6717,-3.4723,-3.3404,-3.249,-3.1955,-3.1937,-3.1995,-3.1431,0.0,0.0,0.0,0.0,0.0,-3.5242,-3.5724,-3.6125,-3.7355,-3.7614,-3.7776,-3.8311,-3.8391,-3.8363,-3.8278,-3.7902,-3.7492,-3.706,-3.6908,-3.6785,-3.6523,-3.6492,-3.6492,-3.6492,-3.6492,-3.6492,0.0,-3.6492,-3.6492,-3.6492,-3.6998,-3.7725,-3.8657,-3.9428,-4.0003,-4.0461,-4.0752,-4.0912,-4.0912,-4.0912,-4.0912,-4.0912,-4.0912,-4.0912,-4.0912,-4.0912,-4.0912,-4.0912,-4.0912,-4.0912,-4.0912,-4.0912,-4.0912,-4.0912,-4.0912,-4.0912,-4.0912,-3.5447,-3.56,-3.5701,-3.6045,-3.547,-3.5064,-3.5402,-3.4539,-3.3922,0.0,0.0,0.0,-3.3103,-3.3843,-3.4429,-3.4573,-3.4204,-3.385,-3.3615,-3.2852,-3.2394,-3.2394,-3.2852,-3.2985,-3.276,-3.193,-3.1381,-3.1173,-3.0644,-3.037,-3.0351,-3.1528,-3.2332,-3.2838,-3.3222,-3.3659,-3.4077,-3.3338,-3.4805,-3.7646,-3.7698,-3.8508,-3.9779,-4.0569,-4.1126,-4.1561,-4.2032,-4.1748,-4.1124,-4.0932,-3.9565,-3.7616,-3.5628,-3.4697,-3.4111,-3.3059,-3.3149,-3.3405,-3.2669,-3.257,-3.2799,-3.3342,0.0,0.0,-3.5297,-3.5473,-3.5686,-3.7443,-3.767,-3.778,-3.8497,-3.8504,-3.8391,-3.8391,-3.8234,-3.7931,-3.7449,-3.7165,-3.6923,-3.6724,-3.6585,-3.6492,-3.6492,-3.6492,-3.6492,-3.6492,-3.6492,-3.6492,-3.6492,-3.6968,-3.7565,-3.8311,-3.9038,-3.9705,-4.0288,-4.068,-4.0912,-4.0912,-4.0912,-4.0912,-4.0912,-4.0912,-4.0912,-4.0912,-4.0912,-4.0912,-4.0912,-4.0912,-4.0912,-4.0912,-4.0912,-4.0912,-4.0912,-4.0912,-4.0912,-4.0912,0.0,-3.56,-3.5836,-3.666,-3.6214,-3.6011,-3.6789,-3.5763,-3.4922,0.0,-3.4419,-3.4019,-3.4154,-3.4918,-3.537,-3.526,-3.4823,-3.4653,-3.4958,-3.4307,-3.384,-3.3739,-3.3766,-3.3766,-3.3707,-3.2328,-3.1537,-3.1475,-3.0819,-3.0396,-3.0262,-3.0949,-3.1295,-3.1295,-3.1295,-3.1725,-3.2437,-3.1959,-3.3445,-3.631,-3.8365,-3.9434,-3.9911,-4.0899,-4.1335,-4.1468,-4.1906,-4.2071,-4.199,-4.1561,-4.0234,-3.8456,-3.7008,-3.649,-3.6163,-3.4749,-3.4869,-3.5283,-3.4562,-3.4188,-3.4286,-3.5375,-3.4479,0.0,-3.642,-3.5987,-3.5663,-3.7727,-3.7842,-3.7847,-3.8601,-3.8531,-3.8318,-3.8181,-3.8294,-3.8262,-3.7943,-3.7449,-3.709,-3.7015,-3.6754,-3.6554,-3.6492,-3.6492,-3.6492,-3.6492,-3.6492,-3.6492,-3.6492,-3.6816,-3.7315,-3.7972,-3.8673,-3.9418,-4.0163,-4.0583,-4.0823,-4.0888,-4.0894,-4.0912,-4.0912,-4.0912,-4.0912,-4.0912,-4.0912,-4.0912,-4.0912,-4.0912,-4.0912,-4.0912,-4.0912,-4.0912,-4.0912,-4.0912,-4.0912,-4.0912,-3.5447,-3.56,-3.5836,-3.666,-3.6677,-3.6806,-3.7567,-3.7432,-3.7246,-3.7269,-3.6632,-3.6395,-3.7005,-3.6495,-3.6336,-3.6894,-3.6341,-3.5646,-3.4814,-3.4651,-3.4189,-3.3283,-3.3502,-3.3488,-3.316,-3.254,-3.2089,-3.1794,-3.1298,-3.1048,-3.107,-3.1164,-3.1252,-3.1295,-3.1252,-3.1412,-3.1771,-3.2767,-3.397,-3.5206,-3.5651,-3.77,-4.047,-4.0065,-4.0278,-4.0877,-4.1088,-4.114,-4.1157,-4.1041,-4.0343,-3.9319,-3.8422,-3.7754,-3.7077,-3.6146,-3.6422,-3.6891,-3.6094,-3.6293,-3.6509,-3.5542,-3.5331,0.0,-3.4435,-3.4319,-3.4678,-3.5646,-3.5776,-3.6031,-3.7039,-3.7633,-3.7703,-3.6859,-3.7663,-3.8262,-3.7943,-3.7799,-3.7551,-3.706,-3.6938,-3.6816,-3.6523,-3.6492,-3.6492,-3.6492,-3.6492,-3.6492,-3.6492,-3.6816,-3.706,-3.7195,-3.7943,-3.8634,-3.9259,-3.9749,-4.0262,-4.0745,-4.0864,-4.0912,-4.0912,-4.0912,-4.0912,-4.0912,-4.0912,-4.0912,-4.0912,-4.0912,-4.0912,-4.0912,-4.0912,-4.0912,-4.0912,-4.0912,-4.0912,-4.0912,-3.5515,-3.56,-3.5955,-3.7144,-3.7347,-3.7719,-3.8819,-3.8684,-3.8447,-3.8447,-3.8125,-3.7889,-3.7905,-3.7744,-3.7591,-3.7469,-3.6774,-3.6048,-3.5348,-3.4614,-3.3956,-3.3367,-3.334,-3.3157,-3.2765,-3.2519,-3.2231,-3.186,-3.1408,-3.123,-3.1252,-3.123,-3.1619,-3.232,-3.1532,-3.1876,-3.2992,-3.2951,-3.3879,-3.5416,-3.621,-3.7952,-4.0035,-4.0018,-4.024,-4.0607,-4.068,-4.0728,-4.0817,-4.0888,-4.0782,-4.0433,-3.9461,-3.9309,-3.9282,-3.8132,-3.8187,-3.8489,-3.7947,-3.7927,-3.7875,-3.7077,-3.6487,0.0,0.0,-3.5083,-3.5108,-3.6599,-3.6129,-3.5973,-3.7635,-3.7444,-3.7143,-3.7369,-3.7992,-3.8329,-3.7942,-3.776,-3.7535,-3.724,-3.6923,-3.6677,-3.6523,-3.6492,-3.6492,-3.6492,-3.6492,-3.6492,-3.6492,-3.6662,-3.6816,-3.6984,-3.7565,-3.8084,-3.8535,-3.9332,-3.9893,-4.0262,-4.0614,-4.084,-4.0912,-4.0912,-4.0912,-4.0912,-4.0912,-4.0912,-4.0912,-4.0912,-4.0912,-4.0912,-4.0912,-4.0912,-4.0912,-4.0912,-4.0912,-4.0912,-3.5577,-3.56,-3.6039,-3.7449,-3.7821,-3.8345,-3.969,-3.9503,-3.9208,-3.9208,-3.9326,-3.9191,-3.8599,-3.9073,-3.9149,-3.847,-3.7508,-3.6766,-3.6311,-3.499,-3.4111,-3.3899,-3.357,-3.3226,-3.2892,-3.2633,-3.2266,-3.1771,-3.1389,-3.119,-3.119,-3.119,-3.1901,-3.3136,-3.2087,-3.2679,-3.4421,-3.3372,-3.4198,-3.6327,-3.762,-3.8542,-3.9238,-3.9966,-4.028,-4.0305,-4.0458,-4.0583,-4.0721,-4.0817,-4.114,-4.1318,-4.0256,-4.0664,-4.1266,-4.0059,-3.9887,-4.0018,-3.9888,-3.9516,-3.9096,-3.8819,-3.7832,-3.6973,0.0,0.0,0.0,-3.7594,-3.6696,-3.6196,-3.8105,-3.7297,-3.6664,-3.7694,-3.8229,-3.827,-3.7638,-3.7522,-3.743,-3.7227,-3.686,-3.6585,-3.6523,-3.6368,-3.6353,-3.6476,-3.6368,-3.6353,-3.6476,-3.6492,-3.6616,-3.6893,-3.7238,-3.7592,-3.7956,-3.8903,-3.9516,-3.9732,-4.0395,-4.0745,-4.0864,-4.0888,-4.0912,-4.0912,-4.0912,-4.0912,-4.0912,-4.0912,-4.0912,-4.0912,-4.0912,-4.0912,-4.0912,-4.0912,-4.0912,-4.0912,-3.5509,-3.56,-3.5893,-3.6778,-3.7466,-3.8176,-3.8988,-3.9622,-3.9977,-3.9977,-4.0527,-4.0916,-4.0832,-4.0899,-4.1162,-4.1714,-4.0199,-3.8791,-3.7744,-3.6901,-3.5983,-3.4964,-3.4536,-3.432,-3.4265,-3.3322,-3.2477,-3.1714,-3.137,-3.119,-3.119,-3.119,-3.165,-3.2446,-3.2933,-3.3643,-3.4523,-3.503,-3.618,-3.7692,-3.7862,-3.8088,-3.8412,-3.9078,-3.9416,-3.9621,-4.027,-4.0583,-4.0697,-4.0721,-4.1071,-4.1405,-4.0914,-4.1116,-4.1477,-4.1301,-4.1257,-4.1376,-4.176,-4.1513,-4.0867,-3.954,-3.9273,-3.8629,-3.6042,0.0,-3.6059,-3.5663,0.0,-3.5448,-3.6054,0.0,0.0,-3.57,-3.7225,-3.7995,-3.6521,-3.7232,-3.7574,-3.6648,-3.6775,-3.6816,-3.6523,-3.5953,-3.5845,-3.6445,-3.5938,-3.5861,-3.6461,-3.6492,-3.6523,-3.6554,-3.66,-3.6892,-3.746,-3.8238,-3.8914,-3.9463,-4.0296,-4.0697,-4.0721,-4.084,-4.0912,-4.0912,-4.0912,-4.0912,-4.0912,-4.0912,-4.0912,-4.0912,-4.0912,-4.0912,-4.0912,-4.0912,-4.0912,-4.0912,-3.5487,-3.56,-3.5836,-3.666,-3.7066,-3.7635,-3.8819,-3.9986,-4.073,-4.073,-4.1018,-4.1542,-4.2361,-4.1711,-4.1508,-4.2236,-4.1197,-3.9948,-3.864,-3.7849,-3.7021,-3.6132,-3.528,-3.4745,-3.4504,-3.3879,-3.3267,-3.2684,-3.212,0.0,0.0,0.0,-3.2679,-3.4218,-3.4083,-3.5182,-3.7077,-3.6518,-3.6671,-3.7297,-3.7736,-3.7712,-3.7597,-3.9127,-3.9755,-3.9863,-4.0243,-4.0429,-4.0478,-4.0576,-4.0937,-4.1316,-4.0813,-4.1053,-4.1472,-4.141,-4.145,-4.1604,-4.2074,-4.1864,-4.1297,-4.048,-3.9838,-3.8972,-3.7268,-3.6763,-3.6629,-3.6554,0.0,0.0,0.0,0.0,0.0,0.0,-3.732,-3.742,-3.6013,-3.6842,-3.7314,-3.6562,0.0,0.0,-3.5922,-3.5675,-3.5799,-3.6445,-3.5891,-3.5799,-3.6445,-3.6492,-3.6492,-3.6492,-3.6492,-3.6631,-3.6877,-3.7867,-3.8557,-3.8887,-3.9952,-4.0527,-4.0583,-4.0721,-4.0793,-4.0793,-4.0864,-4.0912,-4.0912,-4.0912,-4.0912,-4.0912,-4.0912,-4.0912,-4.0912,-4.0912,-4.0912,-4.0912,-3.5382,-3.5467,-3.557,-3.6165,-3.6736,-3.7675,-3.9343,-4.051,-4.1271,-4.1474,-4.1694,-4.2303,-4.3589,-4.2963,-4.2658,-4.3183,-4.2557,-4.1491,-3.9986,-3.9022,-3.8345,-3.8031,-3.6626,-3.5727,-3.5436,-3.4789,-3.4106,-3.3406,-3.2848,-3.2615,0.0,0.0,-3.3254,-3.4991,-3.4861,-3.6129,-3.8345,-3.7692,-3.7523,-3.7743,-3.8058,-3.8021,-3.7922,-3.9316,-3.9968,-4.0096,-4.0213,-4.028,-4.0313,-4.0412,-4.0802,0.0,-4.0669,-4.0913,-4.1366,-4.1258,-4.1321,-4.1539,-4.2157,-4.1973,-4.1509,-4.0989,-4.0113,-3.9135,-3.8148,-3.7657,-3.7472,-3.7766,-3.7111,0.0,0.0,0.0,-3.6613,-3.7515,0.0,-3.7269,-3.5902,-3.6601,-3.6926,-3.602,0.0,0.0,0.0,-3.5265,-3.544,-3.6184,0.0,-3.5614,-3.6445,-3.6492,-3.6492,-3.6492,-3.6492,-3.6585,-3.6754,-3.778,-3.8418,-3.8712,-3.9773,-4.0337,-4.0461,-4.0624,-4.0697,-4.0697,-4.084,-4.0912,-4.0912,-4.0912,-4.0912,-4.0912,-4.0912,-4.0912,-4.0912,-4.0912,-4.0912,-4.0912,-3.5149,-3.5151,-3.4833,-3.4866,-3.6527,-3.8599,-4.0798,-4.117,-4.1457,-4.2168,-4.2895,-4.3656,-4.4479,-4.5162,-4.5568,-4.5602,-4.4908,-4.3853,-4.2286,-4.084,-4.035,-4.1035,-3.8971,-3.7787,-3.7804,-3.6315,-3.4844,-3.3406,-3.3389,-3.3372,0.0,0.0,0.0,0.0,-3.494,-3.6045,-3.6965,-3.8328,-3.9351,-3.9943,-3.9225,-3.9385,-3.9952,-3.944,-3.9602,-4.0096,-4.0096,0.0,0.0,-4.0288,-4.0676,0.0,0.0,0.0,0.0,0.0,0.0,0.0,0.0,0.0,0.0,-4.0763,0.0,-3.9468,-3.7879,-3.8094,-3.8648,-3.8666,-3.9237,-3.9755,-3.9808,-3.9454,-3.8939,-3.8204,-3.8248,0.0,0.0,-3.662,-3.6439,-3.4677,-3.5425,-3.5878,0.0,-3.466,-3.4582,0.0,-3.4921,0.0,-3.6415,-3.6492,-3.6492,-3.6492,-3.6492,-3.6785,-3.7358,-3.7982,-3.8601,-3.9179,-3.9944,-4.0305,-4.033,-4.0576,-4.0697,-4.0697,-4.084,-4.0912,-4.0912,-4.0912,-4.0912,-4.0912,-4.0912,-4.0912,-4.0912,-4.0912,-4.0912,-4.0912,-3.4794,-3.5155,-3.5505,-3.5861,-3.6555,-3.781,-4.0113,-4.0899,-4.183,-4.3599,-4.3589,-4.4254,-4.6549,-4.5686,-4.5365,-4.6346,-4.5326,-4.413,-4.3115,-4.2574,-4.2185,-4.1931,-4.0747,-3.9868,-3.9369,-3.8379,-3.7127,-3.5639,-3.5131,-3.4624,0.0,0.0,0.0,0.0,-3.5926,-3.7077,-3.8311,-3.9317,-3.9605,-3.9368,-3.9089,-3.9453,-4.0079,0.0,-3.9918,-4.0096,-4.0096,-4.0138,0.0,-4.0163,-4.0345,-4.0524,-4.0296,-4.0451,-4.0676,-4.0597,-4.0808,0.0,0.0,0.0,-4.1353,-4.1153,0.0,0.0,0.0,0.0,-3.9013,-3.874,-3.9347,-3.99,-3.99,-3.9784,-3.9615,-3.935,-3.8866,-3.8134,0.0,-3.6266,-3.5685,-3.5253,-3.5654,-3.5752,-3.5171,0.0,0.0,-3.6533,-3.5991,0.0,0.0,-3.7312,-3.7104,-3.7104,-3.6723,-3.6785,-3.7387,-3.7982,-3.8601,-3.9206,-3.9867,-4.0163,-4.0163,-4.0337,-4.0453,-4.0453,-4.0673,-4.0769,-4.0769,-4.0847,-4.0912,-4.0888,-4.0793,-4.0769,-4.0793,-4.0864,-4.0912,-4.0912,-3.4781,-3.5047,-3.5418,-3.6114,-3.7036,-3.8412,-4.0492,-4.1666,-4.2959,-4.4756,-4.4773,-4.5365,-4.731,-4.6227,-4.5652,-4.6346,-4.5534,-4.4654,-4.3876,-4.3572,-4.3335,-4.3115,-4.2134,-4.1373,-4.0899,-3.9901,-3.8667,-3.7178,-3.6417,-3.5639,0.0,0.0,0.0,0.0,-3.6028,-3.706,-3.8302,-3.9571,-3.9842,-3.9402,-3.9402,-3.969,-4.0096,0.0,-4.0096,-4.0096,0.0,-4.0096,-4.0096,-4.0096,-4.0163,-4.0213,-4.0138,-4.0221,-4.0294,-3.9957,-4.0065,-4.0342,-4.0278,-4.0259,0.0,-4.0324,-3.9946,0.0,-3.9247,0.0,-3.9987,0.0,-4.0508,-4.1085,-4.1085,-4.0719,-4.0336,-4.005,-3.9124,-3.8091,0.0,-3.6162,-3.5586,-3.5599,-3.5706,-3.5562,-3.4994,-3.4928,-3.5463,-3.6745,-3.6448,-3.6805,0.0,0.0,-3.7709,-3.7709,-3.7118,-3.7208,-3.8026,-3.821,-3.8712,-3.9523,-3.9901,-4.0096,-4.0096,-4.0238,-4.0305,-4.0305,-4.051,-4.0624,-4.0648,-4.0728,-4.0752,-4.0752,-4.0655,-4.0624,-4.0648,-4.0793,-4.0864,-4.0912,-3.5201,-3.4953,-3.4787,-3.5729,-3.7941,-4.0163,-4.1866,-4.3289,-4.4569,-4.5624,-4.6363,-4.6802,-4.6836,-4.6802,-4.6498,-4.5771,-4.5669,-4.5348,-4.4649,-4.3876,-4.3809,-4.4581,-4.321,-4.2388,-4.2354,-4.0942,-3.9503,-3.8024,-3.7212,-3.6434,0.0,0.0,0.0,-3.4573,-3.5334,-3.6096,-3.6998,-3.9182,-4.0096,-4.0096,-4.0096,-4.0096,-4.0096,-4.0096,-4.0096,-4.0096,-4.0096,-4.0096,-4.0096,-4.0096,-4.0096,-4.0096,-4.0096,-4.0079,-3.991,-3.9191,-3.8971,-3.8897,-3.8703,-3.8673,-3.8629,-3.845,0.0,0.0,0.0,0.0,-4.1336,0.0,0.0,0.0,-4.316,-4.2229,-4.1207,-4.0453,-3.9231,-3.7938,-3.6634,-3.6446,-3.6255,-3.5768,-3.5667,-3.5435,-3.488,-3.489,-3.5284,-3.6208,-3.6269,-3.6913,0.0,0.0,-3.8302,-3.8334,-3.7767,-3.7998,-3.9179,-3.8629,-3.893,-4.0096,-4.0096,-4.0096,-4.0096,-4.0238,-4.0288,-4.0305,-4.0436,-4.0485,-4.0485,-4.051,-4.051,-4.051,-4.0493,-4.0485,-4.051,-4.0648,-4.0769,-4.0888,-3.6047,-3.6816,-3.7575,-3.8274,-3.8238,-3.9034,-4.1761,-4.2468,-4.3592,-4.6164,-4.6667,-4.7005,-4.7564,-4.7124,-4.6498,-4.5771,-4.5196,-4.4818,-4.4615,-4.4429,-4.4395,-4.4598,-4.4225,-4.3724,-4.3149,-4.2202,-4.1001,-3.9554,-3.8244,-3.7229,-3.6451,0.0,0.0,-3.5346,-3.6129,-3.6907,-3.7736,-3.9402,-4.0096,-4.0096,-4.0096,-4.0096,-4.0096,0.0,-4.0096,-4.0096,-4.0096,-4.0096,-4.0096,-4.0096,-4.0096,-4.0096,-4.0096,-3.9723,-3.9266,-3.9056,-3.8616,-3.8166,-3.8135,-3.8114,-3.8185,-3.8534,-3.8314,-3.8125,0.0,0.0,0.0,0.0,0.0,0.0,0.0,0.0,-4.2257,-4.2414,-4.1596,-4.0374,-3.8705,-3.8454,-3.8157,-3.739,-3.6823,-3.6202,-3.5452,-3.5946,-3.6606,-3.7401,-3.7443,-3.8104,-3.9543,0.0,0.0,-3.8957,-3.8379,-3.8435,-3.9206,-3.9055,-3.9365,-4.0096,-4.0096,-4.0096,-4.0096,-4.0138,-4.0163,-4.0163,-4.0288,-4.0337,-4.0362,-4.0461,-4.051,-4.0485,-4.0387,-4.0337,-4.0379,-4.051,-4.0631,-4.0745,-3.6761,-3.7696,-3.8525,-3.8862,-3.9139,-4.0016,-4.2149,-4.3012,-4.4248,-4.638,-4.7043,-4.7192,-4.6972,-4.6853,-4.6363,-4.5314,-4.4852,-4.4615,-4.4615,-4.4615,-4.4615,-4.4615,-4.4615,-4.4395,-4.3927,-4.2861,-4.1728,-4.0578,-3.8785,-3.7516,-3.6778,-3.5216,-3.4895,-3.5633,-3.6434,-3.7195,-3.8007,-3.9462,-4.0096,-4.0096,-4.0096,-4.0096,0.0,-4.0096,-4.0096,-4.0096,-4.0096,-4.0096,-4.0096,-4.0096,-4.0096,-4.0096,-4.0096,-3.9605,-3.8937,-3.8616,-3.799,-3.7347,-3.6992,-3.6884,-3.696,-3.7261,-3.7259,-3.7339,-3.7874,-3.8593,-3.9266,0.0,0.0,0.0,0.0,0.0,-4.1814,-4.1738,-4.1286,-4.0495,-3.9101,-3.8881,-3.8533,-3.7543,-3.733,-3.684,-3.5701,-3.6011,-3.6586,-3.7347,-3.7719,-3.8396,0.0,0.0,0.0,-3.9575,-3.9028,-3.8984,-3.9592,-3.9339,-3.9497,-4.0096,-4.0096,-4.0096,-4.0096,-4.0096,-4.0096,-4.0096,-4.0188,-4.0213,-4.0213,-4.0271,-4.0337,-4.0337,-4.0238,-4.0213,-4.0213,-4.0313,-4.0461,-4.0624,-3.7554,-3.8197,-3.8616,-3.8542,-4.0158,-4.1766,-4.2622,-4.4221,-4.5617,-4.6505,-4.7413,-4.7436,-4.5949,-4.6355,-4.6164,-4.4705,-4.457,-4.457,-4.4615,-4.4615,-4.4615,-4.4615,-4.4615,-4.4615,-4.4615,-4.3081,-4.1982,-4.1339,-3.9039,-3.7567,-3.6914,-3.5368,-3.4996,-3.5633,-3.6434,-3.7246,-3.8142,-3.9537,-4.0096,-4.0096,-4.0096,-4.0096,-4.0096,-4.0096,-4.0096,-4.0096,-4.0096,-4.0096,-4.0096,-4.0096,-4.0096,-4.0096,-4.0096,-3.9537,-3.8717,-3.8091,-3.7297,-3.6485,-3.5785,-3.56,-3.56,-3.56,-3.6129,-3.6758,-3.717,-3.7826,-3.8644,-3.9704,-4.0018,-4.0316,0.0,0.0,-4.0869,-4.0214,-4.005,-3.9729,-3.8926,-3.8808,-3.8391,-3.7214,-3.7567,0.0,-3.5887,-3.5836,-3.6163,-3.6761,-3.7381,-3.8125,0.0,0.0,0.0,-4.0096,-3.9575,-3.9575,-4.0096,0.0,-3.9592,-4.0096,-4.0096,-4.0096,-4.0096,-4.0096,-4.0096,-4.0096,-4.0096,-4.0096,-4.0096,-4.0096,-4.0096,-4.0096,-4.0096,-4.0096,-4.0096,-4.0096,-4.0246,-4.0485,-3.8931,-3.9589,-3.9873,-3.9334,-4.0426,-4.1678,-4.2447,-4.4464,-4.6269,-4.7141,-4.791,-4.7824,-4.6364,-4.6314,-4.5853,-4.4473,-4.4338,-4.4412,-4.4598,-4.4615,-4.4615,-4.4615,-4.4615,-4.4615,-4.4615,-4.3081,-4.2236,-4.21,-3.9292,-3.7838,-3.7669,-3.6124,-3.5481,-3.5633,-3.6434,-3.7557,-3.8853,-3.974,0.0,-4.0096,-4.0096,-4.0096,-4.0096,-4.0096,-4.0096,-4.0096,-4.0096,-4.0096,-4.0096,-4.0096,-4.0096,-4.0096,-4.0096,-3.9174,-3.8075,-3.7939,-3.6924,-3.5769,-3.5633,-3.56,-3.56,-3.56,-3.5701,-3.5847,-3.5898,-3.6537,-3.7177,-3.7388,-3.7916,-3.8681,-3.9819,0.0,0.0,-4.1744,-4.1442,-4.1012,-4.0458,-4.0382,-3.9959,-3.8756,-3.8193,-3.755,-3.6694,-3.7144,-3.7297,-3.6846,-3.6931,-3.7567,0.0,0.0,0.0,0.0,-3.9995,0.0,0.0,0.0,-3.9995,-4.0096,-4.0096,-4.0096,-4.0096,-4.0096,-4.0096,-4.0096,-4.0096,-4.0096,-4.0096,-4.0096,-4.0096,-4.0096,-4.0096,-4.0096,-4.0096,-4.0096,-4.0121,-4.0213,-4.0367,-4.0696,-4.0816,-4.0487,-4.1587,-4.2617,-4.294,-4.4643,-4.6075,-4.6616,-4.7396,-4.7362,-4.5888,-4.6073,-4.5717,-4.433,-4.4212,-4.4241,-4.4327,-4.4412,-4.444,-4.444,-4.4542,-4.4615,-4.4615,-4.3453,-4.2675,-4.2286,-4.0121,-3.8667,-3.7889,-3.6755,-3.6011,-3.565,-3.684,-3.8176,-3.9605,0.0,0.0,-4.0096,-4.0096,-4.0096,-4.0096,-4.0096,-4.0096,-4.0096,-4.0096,-4.0096,-4.0096,-4.0096,-4.0096,-4.0096,-4.0096,-3.9368,-3.8396,-3.8024,-3.711,-3.6129,-3.5701,-3.56,-3.56,-3.56,-3.56,-3.56,-3.56,-3.591,-3.6299,-3.6711,-3.7083,-3.7698,-3.8906,-3.9903,0.0,0.0,0.0,-4.0972,-4.0507,-4.0451,-3.9944,-3.8589,-3.8447,-3.7872,-3.6332,-3.6874,-3.7009,-3.6231,-3.6575,-3.7286,0.0,0.0,0.0,0.0,0.0,0.0,0.0,0.0,0.0,-4.0096,-4.0096,-4.0096,-4.0096,-4.0096,-4.0096,-4.0096,-4.0096,-4.0096,-4.0096,-4.0096,-4.0096,-4.0096,-4.0096,-4.0096,-4.0096,-4.0096,-4.0096,-4.0121,-4.1632,-4.1632,-4.1587,-4.1399,-4.2425,-4.3264,-4.3264,-4.4526,-4.5563,-4.588,-4.6569,-4.6535,-4.5222,-4.5607,-4.5447,-4.4173,-4.4056,-4.4068,-4.4097,-4.4196,-4.4253,-4.4253,-4.4412,-4.4485,-4.4485,-4.3742,-4.301,-4.2277,-4.0806,-3.9445,0.0,-3.7364,-3.6705,-3.614,-3.7533,0.0,0.0,0.0,-4.0096,-4.0096,-4.0096,-4.0096,-4.0096,-4.0096,-4.0096,-4.0096,-4.0096,-4.0096,-4.0096,-4.0096,-4.0096,-4.0096,-4.0096,-3.9605,-3.8886,-3.8311,-3.7601,-3.6857,-3.6079,-3.5853,-3.5802,-3.5633,-3.56,-3.56,-3.56,-3.56,-3.5769,-3.64,-3.6694,-3.7126,-3.8171,-3.9009,0.0,0.0,0.0,-4.0507,-4.0146,-4.0096,-3.9622,-3.8294,-3.8514,-3.8007,-3.6045,0.0,-3.6282,-3.565,0.0,-3.6924,-3.7855,0.0,0.0,0.0,0.0,-4.0096,-4.0096,0.0,-4.0096,-4.0096,-4.0096,-4.0096,-4.0096,-4.0096,-4.0096,-4.0096,-4.0096,-4.0096,-4.0096,-4.0096,-4.0096,-4.0096,-4.0096,-4.0096,-4.0096,-4.0096,-4.0096,-4.0121,-4.2306,-4.2306,-4.2111,-4.1527,-4.2,-4.2511,-4.2511,-4.3678,-4.4893,-4.5638,-4.5805,-4.5535,-4.474,-4.4761,-4.461,-4.3964,-4.3927,-4.3969,-4.4097,-4.4097,-4.4126,-4.4126,-4.4126,-4.4143,-4.4143,-4.3547,-4.2846,-4.2132,0.0,-3.9706,0.0,-3.8142,-3.777,-3.7736,0.0,0.0,0.0,-3.9825,-4.0096,-4.0096,-4.0096,-4.0096,-4.0096,-4.0096,-4.0096,-4.0096,-4.0096,-4.0096,-4.0096,-4.0096,-4.0096,-4.0096,-4.0096,-3.9605,-3.8988,-3.8903,-3.8362,-3.7635,-3.6897,-3.6694,-3.6502,-3.5769,-3.56,-3.56,-3.56,-3.56,-3.5616,-3.5701,-3.6282,-3.6956,-3.7482,-3.8407,-3.9214,0.0,0.0,0.0,-4.0113,-4.0096,-3.9808,-3.8988,-3.8379,-3.7652,-3.6778,-3.6096,0.0,0.0,-3.5667,-3.6343,-3.7838,0.0,0.0,-4.0062,0.0,-4.0096,-4.0096,-4.0096,-4.0096,-4.0096,-4.0096,-4.0096,-4.0096,-4.0096,-4.0096,-4.0096,-4.0096,-4.0096,-4.0096,-4.0096,-4.0096,-4.0096,-4.0096,-4.0096,-4.0096,-4.0096,-4.0096,-4.0138,-4.294,-4.2626,-4.244,-4.2521,-4.2447,0.0,0.0,-4.3425,-4.3888,-4.422,-4.5102,-4.5266,-4.4118,-4.4382,-4.4231,-4.3211,-4.3509,-4.3747,-4.3805,-4.391,-4.3969,-4.3969,-4.4056,-4.4097,-4.4097,-4.387,-4.3378,0.0,0.0,0.0,-3.9522,-3.8879,-3.8565,-3.8565,0.0,-3.9266,-3.969,-3.9977,-4.0096,-4.0096,-4.0096,-4.0096,-4.0096,-4.0096,-4.0096,-4.0096,-4.0096,-4.0096,-4.0096,-4.0096,-4.0096,-4.0096,-4.0096,-3.991,-3.9571,-3.9123,-3.8785,-3.8396,-3.7652,-3.7151,-3.6728,-3.64,-3.596,-3.56,-3.56,-3.56,-3.56,-3.56,-3.5853,-3.6147,-3.6331,-3.708,-3.7875,0.0,0.0,0.0,0.0,-4.0096,-3.9842,-3.9089,-3.8345,-3.7618,-3.688,-3.6079,0.0,0.0,-3.5853,-3.6073,-3.7178,0.0,0.0,-3.9419,0.0,-4.0096,-4.0096,-4.0096,-4.0096,-4.0096,-4.0096,-4.0096,-4.0096,-4.0096,-4.0096,-4.0096,-4.0096,-4.0096,-4.0096,-4.0096,-4.0096,-4.0096,-4.0096,-4.0096,-4.0096,-4.0096,-4.0096,-4.0113,-4.329,0.0,-4.2791,0.0,-4.2955,-4.2806,-4.3215,-4.329,-4.329,-4.329,-4.4297,-4.4621,-4.3651,-4.3806,-4.3685,-4.2942,-4.3135,-4.3402,-4.3598,-4.3734,-4.3793,-4.3793,-4.3894,0.0,-4.3952,-4.4027,-4.3671,-4.2919,-4.254,0.0,-4.0152,-3.9514,-3.921,0.0,-3.9252,-3.9547,-4.0037,-3.9893,-3.9825,-3.9825,-3.9627,-3.9575,-3.9575,-3.9575,-3.9575,-3.9601,-3.9773,-3.9825,-3.985,-4.0045,-4.0096,-4.0096,-4.0096,-4.0096,-3.9994,-3.9486,-3.9309,-3.9157,-3.843,-3.7838,-3.7354,-3.6914,-3.6366,-3.5887,-3.565,-3.56,-3.56,-3.56,-3.56,-3.56,-3.56,-3.6434,-3.728,-3.7821,0.0,0.0,0.0,-4.0096,-3.9842,-3.9089,-3.8345,-3.7702,-3.7161,-3.6417,0.0,0.0,-3.6603,-3.662,-3.7405,0.0,0.0,0.0,0.0,0.0,0.0,-4.0096,-4.0096,-4.0096,-4.0096,-4.0096,-4.0096,-4.0096,-4.0096,-4.0096,-4.0096,-4.0096,-4.0096,-4.0096,-4.0096,-4.0096,-4.0096,-4.0096,-4.0096,-4.0096,-4.0096,-4.0096,-4.329,-4.329,-4.329,-4.329,-4.329,-4.329,-4.329,-4.329,-4.329,-4.329,-4.3329,-4.3335,-4.3407,-4.2868,-4.2803,-4.3541,-4.299,-4.2881,-4.3568,-4.3598,-4.3598,0.0,0.0,-4.3598,-4.3598,-4.3793,-4.3515,-4.2687,0.0,0.0,-4.0766,-4.0038,-3.9687,-3.9687,-3.9833,-3.9884,-3.9875,-3.9408,-3.9206,-3.9152,-3.8574,-3.8306,-3.8306,-3.8306,-3.8306,-3.839,-3.9001,-3.9206,-3.9312,-3.9918,-4.0096,-4.0096,-4.0096,-4.0096,-4.0096,-4.0096,-4.0096,-3.9926,-3.9174,-3.8971,-3.8616,-3.7168,-3.6795,-3.6592,-3.5769,-3.56,-3.56,-3.56,-3.56,-3.56,-3.56,-3.6834,-3.7889,-3.7905,0.0,0.0,0.0,-4.0096,-3.9842,-3.9089,-3.8345,-3.7905,-3.7889,-3.7212,0.0,0.0,0.0,-3.8193,-3.892,0.0,0.0,-4.0045,-4.0096,0.0,-4.0096,-4.0096,-4.0096,-4.0096,-4.0096,-4.0096,-4.0096,-4.0096,-4.0096,-4.0096,-4.0096,-4.0096,-4.0096,-4.0096,-4.0096,-4.0096,-4.0096,-4.0096,-4.0096,-4.0096,-4.0096,-4.0096,-4.329,-4.329,-4.329,-4.329,-4.329,-4.329,-4.329,-4.329,-4.329,-4.329,-4.329,-4.3319,-4.3328,-4.2787,-4.2175,0.0,-4.1718,-4.1949,0.0,-4.219,-4.238,-4.2912,-4.2912,-4.3127,-4.3598,-4.3658,-4.3571,-4.3322,0.0,0.0,0.0,-4.0548,-4.0189,-3.9703,-3.9755,-3.9755,-3.9729,-3.9119,-3.8957,-3.9001,-3.8374,-3.8177,-3.8306,-3.8306,-3.8306,-3.8351,-3.8518,-3.8601,-3.8629,-3.8821,-3.8876,-3.8876,-3.8876,-3.9428,-4.0096,-4.0096,-4.0096,-4.0045,-3.9808,-3.9377,-3.8886,-3.8413,-3.7922,-3.7347,-3.6586,-3.5994,-3.56,-3.56,-3.56,-3.5752,-3.6315,-3.6806,-3.7466,-3.8481,-3.9039,0.0,-4.0028,0.0,-4.0011,-3.9791,-3.9089,-3.865,-3.865,-3.7973,0.0,0.0,0.0,0.0,0.0,0.0,0.0,0.0,-3.9842,0.0,-4.0096,-4.0096,-4.0096,-4.0096,-4.0096,-4.0096,-4.0096,-4.0096,-4.0096,-4.0096,-4.0096,-4.0096,-4.0096,-4.0096,-4.0096,-4.0096,-4.0096,-4.0096,-4.0096,-4.0096,-4.0096,-4.0096,-4.329,-4.329,-4.329,-4.329,-4.329,-4.329,-4.329,-4.329,-4.329,-4.329,-4.329,-4.311,-4.2656,-4.2251,0.0,-4.1274,-4.1351,-4.1494,-4.1508,-4.1745,-4.1959,-4.2174,-4.219,-4.238,-4.2803,-4.2803,0.0,-4.2803,-4.2433,-4.1815,-4.1021,-4.0771,-4.0264,-3.9547,-3.9329,-3.9232,-3.9206,-3.8374,-3.8092,-3.8165,-3.7515,-3.7338,-3.7501,-3.7501,-3.7576,-3.7634,-3.7867,-3.7953,-3.7982,-3.8222,-3.8306,-3.8306,-3.8306,-3.8821,-3.9428,-3.9428,-3.9731,-4.0045,-3.9825,-3.9581,-3.9368,-3.9056,-3.865,-3.8041,-3.7032,-3.64,-3.596,-3.565,-3.56,-3.5859,-3.666,-3.7032,-3.7601,-3.8802,-3.9225,-3.9571,-4.0045,0.0,-3.9994,-3.9723,0.0,0.0,0.0,-3.8582,-3.843,0.0,0.0,0.0,0.0,0.0,0.0,-3.9394,-3.9859,0.0,-4.0096,-4.0096,-4.0096,-4.0096,-4.0096,-4.0096,-4.0096,-4.0096,-4.0096,-4.0096,-4.0096,-4.0096,-4.0096,-4.0096,-4.0096,-4.0096,-4.0096,-4.0096,-4.0096,-4.0096,-4.0096,-4.0096,-4.329,-4.329,-4.329,0.0,-4.329,0.0,-4.329,-4.329,-4.329,-4.329,-4.329,-4.2811,-4.1594,-4.1452,-4.1641,-4.2215,0.0,0.0,0.0,-4.2003,-4.21,-4.1521,-4.1489,-4.1507,-4.1492,-4.1492,-4.1492,-4.1492,-4.1484,-4.1436,-4.1316,-4.0651,-3.9941,-3.9203,-3.8662,-3.8418,-3.8362,-3.7294,-3.6891,-3.6907,-3.6303,-3.616,-3.6317,-3.6317,-3.6411,-3.6677,-3.7229,-3.744,-3.7543,-3.8097,-3.8282,-3.831,-3.8262,-3.8274,-3.8331,-3.8294,-3.9092,-3.985,-3.9339,-3.9618,-3.9876,-3.9242,-3.9039,-3.8633,-3.7269,-3.6914,-3.6654,-3.5904,-3.5752,-3.6011,-3.6812,-3.7499,-3.8227,-3.8954,-3.9656,-4.0096,-4.0096,-4.0096,-3.9859,0.0,0.0,0.0,0.0,-3.9073,-3.9326,0.0,0.0,0.0,0.0,0.0,-3.9402,-4.0079,-4.0096,-4.0096,-4.0096,-4.0096,-4.007,-4.0045,-4.0045,-4.0045,-4.0045,-4.007,-4.0096,-4.0096,-4.0096,-4.0096,-4.0096,-4.0096,-4.0096,-4.0096,-4.0096,-4.0096,-4.0096,-4.0096,-4.0096,-4.0096,0.0,0.0,-4.329,-4.329,-4.329,-4.329,-4.329,-4.329,-4.329,-4.329,-4.329,-4.303,-4.2261,-4.1722,-4.125,-4.091,-4.0248,-4.0094,-4.0622,-4.0825,-4.1061,-4.1411,-4.143,-4.1439,-4.1492,-4.1492,-4.1492,-4.1492,-4.1482,-4.1199,-4.0624,-3.9952,-3.9265,-3.8595,-3.7932,-3.7648,-3.7618,-3.6829,-3.6894,-3.7451,-3.6797,-3.6905,-3.7509,-3.7509,-3.7524,-3.759,-3.7739,-3.7887,-3.8049,-3.8195,-3.8322,-3.834,-3.7857,-3.8009,-3.838,-3.8314,-3.8502,-3.8794,-3.9109,-3.9312,-3.9489,-3.9775,-3.9436,-3.8903,-3.8548,-3.8041,-3.7601,-3.7398,-3.7364,-3.7601,-3.8328,-3.8616,-3.8971,-3.9723,-3.9994,-4.0096,-4.0096,-4.0096,-4.0045,0.0,-3.9842,-3.9842,-3.9842,-3.9842,-3.969,0.0,0.0,0.0,0.0,-3.9639,-3.9926,-4.0096,-4.0096,-4.0096,-4.0096,-4.0096,-3.9867,-3.9418,-3.9418,-3.9418,-3.9418,-3.9893,-4.0096,-4.0096,-4.0096,-4.0096,-4.0096,-4.0096,-4.0096,-4.0096,-4.0096,-4.0096,-4.0096,-4.0096,-4.0096,-4.0096,-4.329,-4.329,-4.329,-4.329,-4.329,-4.329,-4.329,-4.329,-4.329,-4.329,-4.329,-4.309,-4.247,-4.2081,-4.1482,-4.0487,-4.0068,-3.9888,-3.9948,-4.0232,-4.0566,-4.0906,-4.0942,-4.1092,-4.1472,-4.1456,-4.1461,-4.1445,-4.1182,-4.08,-4.0402,-4.0024,-3.9361,-3.8367,-3.7699,-3.7217,-3.689,-3.6258,-3.625,-3.6648,-3.6308,-3.6453,-3.6935,-3.7219,-3.7422,-3.7534,-3.7822,-3.798,-3.808,-3.808,-3.8129,-3.8167,-3.78,-3.7891,-3.812,-3.7791,-3.8006,-3.8379,-3.8712,-3.8947,-3.9232,-3.979,-3.9657,-3.9311,-3.8899,-3.8512,-3.8117,-3.7797,-3.7713,-3.7932,-3.8697,-3.8832,-3.9093,-3.9868,-4.0011,-4.0037,-4.007,-4.0096,0.0,-4.0096,-4.0096,-4.0096,-4.0096,-4.0096,-3.9943,-3.9537,-3.9876,0.0,-3.9512,-3.9893,-4.0096,-4.0096,-4.0096,-4.0096,-4.0096,-4.0096,-3.9653,-3.8794,-3.9365,-3.947,-3.9232,-3.9825,-4.0096,-4.0096,-4.0096,-4.0096,-4.0096,-4.0096,-4.0096,-4.0096,-4.0096,-4.0096,-4.0096,-4.0096,-4.0096,-4.0096,-4.329,-4.329,-4.329,-4.329,-4.329,-4.329,-4.329,-4.329,-4.329,-4.329,-4.329,-4.309,-4.247,-4.2396,-4.1916,-4.0651,-4.0546,-4.0277,-3.9568,-4.0083,-4.0397,-4.0397,-4.0502,-4.0771,-4.122,-4.1324,-4.1361,-4.1235,-4.0734,-4.0399,-4.0235,-4.0141,-3.95,-3.8372,-3.7695,-3.7085,-3.6518,-3.5987,-3.5848,-3.5938,-3.5833,-3.5932,-3.6152,-3.6616,-3.6911,-3.7134,-3.7752,-3.7997,-3.8027,-3.8118,-3.8198,-3.8216,-3.811,-3.808,-3.7958,-3.7322,-3.7655,-3.821,-3.8116,-3.8518,-3.9055,-3.9461,-3.9729,-3.9681,-3.8933,-3.8773,-3.8589,-3.7962,-3.7828,-3.8012,-3.8656,-3.8773,-3.9025,-3.9774,-3.9875,-3.9926,-4.0062,0.0,-4.0087,-4.0087,-4.007,-4.0096,-4.0096,-4.0096,-4.0096,-4.0096,-4.0096,-4.0096,-4.0096,-4.0096,-4.0096,-4.0096,-4.0096,-4.0045,-3.9969,-3.9876,-3.9269,-3.8181,-3.9295,-3.9549,-3.9082,-3.9696,-4.002,-4.0096,-4.0096,-4.0096,-4.0096,-4.0096,-4.0096,-4.0096,-4.0096,-4.0096,-4.0096,-4.0096,-4.0096,-4.0096,-4.329,-4.329,-4.329,-4.329,-4.329,-4.329,-4.329,-4.329,-4.329,-4.329,-4.329,-4.309,-4.247,-4.2396,-4.2096,-4.1294,-4.1235,-4.095,-4.0292,-4.0337,-4.0397,-4.0397,-4.0935,-4.101,-4.0561,-4.11,-4.113,-4.0566,-4.0461,-4.0106,-3.9551,-3.8998,-3.8605,-3.8359,-3.7699,-3.7331,-3.7241,-3.7139,-3.7434,-3.7898,-3.733,-3.7449,-3.7918,-3.7469,-3.7289,-3.7413,-3.8072,-3.8417,-3.8661,-3.9219,-3.9521,-3.9586,-3.9024,-3.8808,-3.8671,-3.7974,-3.7852,-3.7844,-3.7263,-3.7905,-3.8745,-3.8843,-3.9295,-3.9713,-3.9553,-3.9536,-3.9502,-3.9385,-3.9368,-3.9402,-3.9519,-3.9536,-3.9595,-3.9858,-3.9807,-3.9781,-3.9926,0.0,-3.9926,-3.9926,-4.0037,-4.0096,-4.0096,-4.0096,-4.0096,-4.0096,-4.0096,-4.0096,-4.0096,-4.0096,-4.0096,-4.0096,-4.0096,-3.9867,-3.9339,-3.8821,-3.8238,-3.7549,-3.8266,-3.8546,-3.8463,-3.9055,-3.9618,-4.0096,-4.0096,-4.0096,-4.0096,-4.0096,-4.0096,-4.0096,-4.0096,-4.0096,-4.0096,-4.0096,-4.0096,-4.0096,-4.329,-4.329,-4.329,-4.329,-4.329,-4.329,-4.329,-4.329,-4.329,-4.329,-4.329,-4.317,-4.2925,-4.288,-4.2626,-4.2006,-4.1946,-4.1662,-4.0965,-4.0591,-4.0397,-4.0397,-4.0696,-4.104,-4.1482,-4.1452,-4.1452,-4.1497,-4.11,-4.0591,-3.9933,-3.9619,-3.908,-3.8377,-3.8078,-3.7749,-3.7404,-3.7404,-3.7584,-3.7838,-3.7524,-3.7599,-3.7868,-3.7913,-3.7943,-3.7973,-3.8287,-3.8462,-3.8592,-3.8892,-3.9068,-3.9134,-3.9194,-3.9224,-3.9088,-3.8381,-3.8257,-3.8232,-3.753,-3.8042,-3.8646,-3.8132,-3.8306,-3.8629,-3.8892,-3.8947,-3.9044,-3.9415,-3.9468,-3.9468,-3.9468,-3.9468,-3.9537,-3.9668,-3.9642,0.0,0.0,-3.9781,-3.9781,-3.9781,-3.991,-3.9986,-3.9986,-4.0062,-4.0096,-4.0096,-4.0096,-4.0096,-4.0096,-4.0096,-4.0096,-4.0096,-3.9773,-3.9339,-3.8712,-3.8767,-3.8339,-3.7417,-3.8684,-3.9092,-3.881,-3.9418,-3.9825,-4.0096,-4.0096,-4.0096,-4.0096,-4.0096,-4.0096,-4.0096,-4.0096,-4.0096,-4.0096,-4.0096,-4.0096,-4.0096,-4.329,-4.329,-4.329,-4.329,-4.329,-4.329,-4.329,-4.329,-4.329,-4.329,-4.329,-4.329,-4.329,-4.329,-4.3135,-4.2626,-4.262,-4.2351,-4.1692,-4.113,-4.0726,-4.0412,-4.0397,-4.0935,-4.2141,-4.1826,-4.1826,-4.2171,-4.1826,-4.1265,-4.0621,-4.0621,-4.0068,-3.908,-3.8916,-3.8571,-3.8093,-3.7943,-3.7868,-3.7853,-3.7704,-3.7644,-3.7674,-3.8018,-3.8167,-3.8182,-3.8332,-3.8392,-3.8407,-3.8571,-3.8631,-3.8721,-3.9245,-3.9388,-3.932,-3.8781,-3.8766,-3.8758,-3.7858,-3.8044,-3.8285,-3.7583,-3.748,-3.7648,-3.7994,-3.808,-3.8294,-3.8925,-3.9077,-3.9121,-3.9272,-3.9175,-3.9104,-3.9255,0.0,0.0,0.0,-3.9573,-3.9651,-3.9651,-3.9755,-3.9833,-3.9833,-3.9961,-4.0062,-4.0062,-4.0087,-4.0096,-4.0096,-4.0096,-4.0045,-3.9893,-3.9312,-3.8684,-3.8096,-3.8546,-3.8254,-3.7208,-3.8739,-3.9216,-3.881,-3.9418,-3.9773,-3.9918,-4.0045,-4.0096,-4.0096,-4.0096,-4.0096,-4.0096,-4.0096,-4.0096,-4.0096,-4.0096,-4.0096,-4.0096,-4.329,-4.329,-4.329,-4.329,-4.329,-4.329,-4.329,-4.329,-4.329,-4.329,-4.329,-4.329,-4.329,-4.329,-4.3275,-4.323,-4.3215,-4.2985,-4.2366,-4.2276,-4.1707,-4.0442,-4.0397,-4.0726,-4.1482,-4.2036,-4.2051,-4.1444,-4.2051,-4.1991,-4.1347,-4.1347,-4.125,-4.1168,-4.0531,-4.0232,-4.0142,-3.9529,-3.9275,-3.9179,-3.8571,-3.8317,-3.8257,-3.7689,-3.7479,-3.7569,-3.8167,-3.8392,-3.8482,-3.9125,-3.9349,-3.9313,-3.9373,-3.9388,-3.9373,-3.9328,-3.9341,-3.9082,-3.7758,-3.7466,-3.7479,-3.7401,-3.7404,-3.7413,-3.7458,-3.7488,-3.7634,-3.8266,-3.8379,-3.8562,-3.9175,-3.8799,-3.8435,-3.8546,0.0,0.0,-3.8574,-3.9115,-3.9511,-3.9511,-3.9642,-3.9703,-3.9703,-3.9849,-3.9926,-3.9926,-4.0037,-4.0096,-4.0096,-4.0096,-3.9825,-3.9286,-3.8684,-3.8067,-3.746,-3.7519,-3.7208,-3.6569,-3.7268,-3.7578,-3.7549,-3.8153,-3.8739,-3.9286,-3.9867,-4.0096,-4.0096,-4.0096,-4.0096,-4.0096,-4.0096,-4.0096,-4.0096,-4.0096,-4.0096,-4.0096,-4.329,-4.329,-4.329,-4.329,-4.329,-4.329,-4.329,-4.329,-4.329,-4.329,-4.329,-4.329,-4.329,-4.329,-4.329,-4.329,-4.329,-4.3185,-4.297,-4.297,-4.2387,-4.107,-4.101,-4.113,-4.1369,-4.1662,-4.1677,-4.1422,-4.2081,-4.2066,-4.1384,-4.1841,-4.1811,-4.1407,-4.1115,-4.101,-4.0995,-4.0741,-4.0636,-4.0606,-4.0352,-4.0247,-4.0217,-3.9963,-3.9873,-3.9858,-3.9694,-3.9634,-3.9679,-3.9933,-3.9753,-3.9448,-3.9903,-3.9753,-3.9388,-3.9388,-3.9388,-3.9269,-3.8796,-3.8327,-3.7842,-3.7041,-3.6827,-3.6827,-3.6785,-3.6784,-3.6951,-3.7618,-3.7735,-3.7838,-3.8067,-3.7924,-3.7879,-3.8322,0.0,-3.8463,-3.8925,-3.9228,-3.9395,-3.9395,-3.9484,-3.9398,-3.9001,-3.9065,-3.8995,-3.8629,-3.8995,-3.9262,-3.9342,-3.9454,-3.9286,-3.8657,-3.8039,-3.7637,-3.7417,-3.7417,-3.7268,-3.7074,-3.7679,-3.7953,-3.7953,-3.821,-3.8435,-3.8657,-3.8876,-3.9189,-3.9523,-3.9523,-3.9747,-4.0096,-4.0096,-4.0096,-4.0096,-4.0096,-4.0096,-4.0096,-4.329,-4.329,-4.329,-4.329,-4.329,-4.329,-4.329,-4.329,-4.329,-4.329,-4.329,-4.329,-4.329,-4.329,-4.329,-4.329,-4.329,-4.329,-4.329,-4.329,-4.2851,-4.1767,-4.1527,-4.1422,-4.1422,-4.1632,-4.1632,-4.1422,-4.2081,-4.2066,-4.1384,-4.1886,-4.1961,-4.1707,-4.1474,-4.1527,-4.1707,-4.1512,-4.1422,-4.1422,-4.1422,-4.1422,-4.1422,-4.1422,-4.1422,-4.1324,-4.0876,-4.0711,-4.0711,-4.0711,-4.0412,-4.0113,-4.0561,-4.0247,-3.9723,-3.9723,-3.9574,-3.9388,-3.9388,-3.9065,-3.8452,-3.736,-3.6926,-3.673,-3.6493,-3.6421,-3.6566,-3.6997,-3.7071,-3.7161,-3.737,-3.7221,-3.7221,-3.7648,-3.7706,-3.7953,-3.8606,-3.8871,-3.8996,-3.8996,-3.9077,-3.8854,-3.8222,-3.829,-3.8189,-3.7764,-3.833,-3.8854,-3.9199,-3.9011,-3.8739,-3.8306,-3.7709,-3.7298,-3.7134,-3.7134,-3.7134,-3.7118,-3.7533,-3.7722,-3.7751,-3.7924,-3.801,-3.8039,-3.8238,-3.8629,-3.9206,-3.9206,-3.9566,-4.0096,-4.0096,-4.0096,-4.0096,-4.0096,-4.0096,-4.0096,-4.329,-4.329,-4.329,-4.329,-4.329,-4.329,-4.329,-4.329,-4.329,-4.329,-4.329,-4.329,-4.329,-4.329,-4.329,-4.329,-4.329,-4.329,-4.329,-4.329,-4.3045,-4.2425,-4.1782,-4.1384,-4.1384,-4.2066,-4.2081,-4.1422,-4.2066,-4.2051,-4.1422,-4.1422,-4.1767,-4.2366,-4.1707,-4.1782,-4.2351,-4.1707,-4.1384,-4.1384,-4.1384,-4.1384,-4.1384,-4.1384,-4.1384,-4.1384,-4.1384,-4.1384,-4.1384,-4.1384,-4.1384,-4.1384,-4.1422,-4.0935,-4.0412,-4.0412,-3.9948,-3.9388,-3.9388,-3.9388,-3.926,-3.8556,-3.7898,-3.7255,-3.6626,-3.6492,-3.6481,-3.6427,-3.6399,-3.6616,-3.7251,-3.6829,-3.6399,-3.6399,-3.6399,-3.6631,-3.731,-3.7924,-3.8278,-3.8278,-3.8278,-3.8051,-3.7458,-3.7501,-3.7589,-3.7589,-3.8274,-3.9049,-3.9833,-3.8865,-3.8278,-3.8278,-3.7709,-3.7104,-3.6523,-3.6492,-3.6492,-3.6492,-3.6492,-3.6492,-3.6523,-3.7118,-3.7387,-3.7447,-3.801,-3.8629,-3.9206,-3.9206,-3.9549,-4.0096,-4.0096,-4.0096,-4.0096,-4.0096,-4.0096,-4.0096,-4.329,-4.329,-4.329,-4.329,-4.329,-4.329,-4.329,-4.329,-4.329,-4.329,-4.329,-4.329,-4.329,-4.329,-4.329,-4.329,-4.329,-4.329,-4.329,-4.329,-4.32,-4.3045,-4.2851,-4.2536,-4.2111,-4.2306,-4.2081,-4.1422,-4.1617,-4.1617,-4.1422,-4.1422,-4.1527,-4.1707,-4.1512,-4.1527,-4.1737,-4.1991,-4.2111,-4.2156,-4.2566,-4.2746,-4.2746,-4.2746,-4.2746,-4.2746,-4.2746,-4.2746,-4.2746,-4.2746,-4.2447,-4.2036,-4.1572,-4.125,-4.1085,-4.1085,-4.0621,-4.0113,-4.0113,-3.9768,-3.926,-3.8556,-3.8242,-3.7928,-3.7285,-3.6791,-3.6484,-3.6471,-3.6082,-3.5829,-3.6037,-3.591,-3.591,-3.6337,-3.6399,-3.6631,-3.731,-3.7531,-3.7677,-3.7677,-3.7677,-3.7413,-3.6753,-3.6723,-3.6569,-3.6148,-3.6951,-3.7793,-3.8606,-3.8026,-3.765,-3.765,-3.7088,-3.6693,-3.6492,-3.6492,-3.6492,-3.6492,-3.6492,-3.6492,-3.6523,-3.6693,-3.6785,-3.6785,-3.6952,-3.7621,-3.8574,-3.8574,-3.9172,-4.0096,-4.0096,-4.0096,-4.0096,-4.0096,-4.0096,-4.0096,-4.329,-4.329,-4.329,-4.329,-4.329,-4.329,-4.329,-4.329,-4.329,-4.329,-4.329,-4.329,-4.329,-4.329,-4.329,-4.329,-4.329,-4.329,-4.329,-4.329,-4.329,-4.329,-4.329,-4.315,-4.2746,-4.2746,-4.2432,-4.1811,-4.1811,-4.1677,-4.1369,-4.1115,-4.113,-4.1422,-4.1422,-4.1572,-4.1856,-4.2462,-4.2746,-4.2776,-4.3125,-4.329,-4.329,-4.329,-4.329,-4.329,-4.329,-4.329,-4.329,-4.329,-4.3075,-4.2686,-4.2282,-4.1983,-4.1811,-4.1811,-4.1309,-4.0726,-4.0472,-4.0113,-3.9649,-3.896,-3.8796,-3.8616,-3.7943,-3.7509,-3.709,-3.6596,-3.6178,-3.5804,-3.5549,-3.5504,-3.5619,-3.599,-3.6053,-3.6258,-3.692,-3.7011,-3.7011,-3.7011,-3.7011,-3.6753,-3.6116,-3.6053,-3.599,-3.5878,-3.6227,-3.689,-3.794,-3.7296,-3.7072,-3.7387,-3.6816,-3.6492,-3.6492,-3.6492,-3.6492,-3.6492,-3.6492,-3.6492,-3.6492,-3.6492,-3.6492,-3.6492,-3.6492,-3.7058,-3.7953,-3.8193,-3.8876,-3.9773,-4.002,-4.0096,-4.0096,-4.0096,-4.0096,-4.0096,-4.329,-4.329,-4.329,-4.329,-4.329,-4.329,-4.329,-4.329,-4.329,-4.329,-4.329,-4.329,-4.329,-4.329,-4.329,-4.329,-4.329,-4.329,-4.329,-4.329,-4.329,-4.329,-4.329,-4.329,-4.329,-4.329,-4.3045,-4.2485,-4.2425,-4.2096,-4.1444,-4.0786,-4.0816,-4.1422,-4.1422,-4.1752,-4.2351,-4.297,-4.32,-4.32,-4.3275,-4.329,-4.329,-4.329,-4.329,-4.329,-4.329,-4.329,-4.329,-4.329,-4.329,-4.329,-4.329,-4.2925,-4.2485,-4.2485,-4.2021,-4.1377,-4.0741,-4.0487,-4.0247,-3.9649,-3.9433,-3.926,-3.8631,-3.8437,-3.8063,-3.6896,-3.6611,-3.6372,-3.5714,-3.5594,-3.5579,-3.5519,-3.5504,-3.5668,-3.6227,-3.6321,-3.6321,-3.6321,-3.6321,-3.6116,-3.5554,-3.5504,-3.5733,-3.6305,-3.5928,-3.629,-3.756,-3.6723,-3.6507,-3.7268,-3.6739,-3.646,-3.646,-3.646,-3.6492,-3.6492,-3.6492,-3.6492,-3.6492,-3.6492,-3.6492,-3.6492,-3.6492,-3.6831,-3.7447,-3.8039,-3.8657,-3.9259,-3.985,-4.0096,-4.0096,-4.0096,-4.0096,-4.0096,-4.329,-4.329,-4.329,-4.329,-4.329,-4.329,-4.329,-4.329,-4.329,-4.329,-4.329,-4.329,-4.329,-4.329,-4.329,-4.329,-4.329,-4.329,-4.329,-4.329,-4.329,-4.329,-4.329,-4.329,-4.329,-4.329,-4.323,-4.312,-4.265,-4.2336,-4.2171,-4.1512,-4.125,-4.1422,-4.1422,-4.1497,-4.1677,-4.2336,-4.262,-4.2626,-4.3135,-4.329,-4.329,-4.329,-4.329,-4.329,-4.329,-4.329,-4.329,-4.329,-4.329,-4.329,-4.329,-4.32,-4.312,-4.312,-4.2656,-4.2156,-4.2006,-4.119,-4.0367,-4.0232,-3.9798,-3.9343,-3.923,-3.8781,-3.8302,-3.8033,-3.7569,-3.7015,-3.6387,-3.6267,-3.6103,-3.5594,-3.5504,-3.5569,-3.5683,-3.5716,-3.5716,-3.5716,-3.5716,-3.5651,-3.5504,-3.5504,-3.5604,-3.5847,-3.5752,-3.5911,-3.6383,-3.6179,-3.6116,-3.6305,-3.6195,-3.6163,-3.6274,-3.6274,-3.6352,-3.6492,-3.6492,-3.6492,-3.6492,-3.6492,-3.6492,-3.6492,-3.6492,-3.6831,-3.7447,-3.8039,-3.8657,-3.9259,-3.985,-4.0096,-4.0096,-4.0096,-4.0096,-4.0096,-4.329,-4.329,-4.329,-4.329,-4.329,-4.329,-4.329,-4.329,-4.329,-4.329,-4.329,-4.329,-4.329,-4.329,-4.329,-4.329,-4.329,-4.329,-4.329,-4.329,-4.329,-4.329,-4.329,-4.329,-4.329,-4.329,-4.329,-4.329,-4.2985,-4.2821,-4.2821,-4.2201,-4.1886,-4.1886,-4.1886,-4.1886,-4.1931,-4.2551,-4.2821,-4.2865,-4.3155,-4.329,-4.329,-4.329,-4.329,-4.329,-4.329,-4.329,-4.329,-4.329,-4.329,-4.329,-4.329,-4.329,-4.329,-4.329,-4.309,-4.2761,-4.2485,-4.1901,-4.119,-4.0561,-4.0142,-3.9798,-3.9448,-3.914,-3.8796,-3.8467,-3.8123,-3.7689,-3.7045,-3.6926,-3.6716,-3.6073,-3.5968,-3.5863,-3.5549,-3.5504,-3.5504,-3.5504,-3.5504,-3.5504,-3.5504,-3.5504,-3.5522,-3.5589,-3.5589,-3.5686,-3.5831,-3.5863,-3.5894,-3.6005,-3.6005,-3.6037,-3.6116,-3.6179,-3.6242,-3.6352,-3.646,-3.6492,-3.6492,-3.6492,-3.6492,-3.6492,-3.6492,-3.6693,-3.7013,-3.7621,-3.8055,-3.8423,-3.9339,-3.967,-3.9722,-3.9995,-4.0096,-4.0096,-4.3319,-4.329,-4.329,-4.329,-4.329,-4.329,-4.329,-4.329,-4.329,-4.329,-4.329,-4.329,-4.329,-4.329,-4.329,-4.329,-4.329,-4.329,-4.329,-4.329,-4.329,-4.329,-4.329,-4.329,-4.329,-4.329,-4.329,-4.329,-4.329,-4.329,-4.329,-4.2776,-4.256,-4.256,-4.256,-4.256,-4.2605,-4.3105,-4.329,-4.329,-4.329,-4.329,-4.329,-4.329,-4.329,-4.329,-4.329,-4.329,-4.329,-4.329,-4.329,-4.329,-4.329,-4.329,-4.329,-4.329,-4.329,-4.317,-4.2671,-4.2485,-4.2141,-4.101,-4.0651,-4.0397,-3.9738,-3.9463,-3.926,-3.8691,-3.8556,-3.8362,-3.7704,-3.7584,-3.7375,-3.6746,-3.6641,-3.6447,-3.5908,-3.5744,-3.5669,-3.5669,-3.5579,-3.5504,-3.5504,-3.5504,-3.5504,-3.5504,-3.5504,-3.5554,-3.5671,-3.5671,-3.5735,-3.591,-3.591,-3.5925,-3.5941,-3.6053,-3.6133,-3.6196,-3.6383,-3.646,-3.6492,-3.6492,-3.6492,-3.6492,-3.6492,-3.6492,-3.6554,-3.7268,-3.7549,-3.765,-3.8892,-3.9365,-3.9418,-3.9918,-4.0096,-4.0096,-4.3409,-4.329,-4.329,-4.329,-4.329,-4.329,-4.329,-4.329,-4.329,-4.329,-4.329,-4.329,-4.329,-4.329,-4.329,-4.329,-4.329,-4.329,-4.329,-4.329,-4.329,-4.329,-4.329,-4.329,-4.329,-4.329,-4.329,-4.329,-4.329,-4.329,-4.329,-4.32,-4.317,-4.317,-4.317,-4.317,-4.317,-4.326,-4.329,-4.329,-4.329,-4.329,-4.329,-4.329,-4.329,-4.329,-4.329,-4.329,-4.329,-4.329,-4.329,-4.329,-4.329,-4.329,-4.329,-4.329,-4.329,-4.3275,-4.3185,-4.2791,-4.2366,-4.2171,-4.1707,-4.107,-4.0412,-3.9828,-3.9358,-3.9269,-3.9239,-3.9065,-3.8377,-3.8257,-3.8048,-3.7389,-3.7285,-3.7255,-3.7165,-3.6686,-3.6357,-3.6357,-3.5848,-3.5504,-3.5504,-3.5504,-3.5504,-3.5504,-3.5504,-3.5504,-3.5537,-3.5537,-3.5522,-3.5569,-3.5569,-3.5636,-3.5752,-3.5752,-3.5911,-3.6196,-3.6242,-3.6352,-3.6492,-3.6492,-3.6492,-3.6492,-3.6492,-3.6492,-3.6585,-3.7722,-3.8181,-3.8294,-3.9523,-3.9969,-3.9995,-4.007,-4.0096,-4.0096,-4.4407,-4.4137,-4.4003,-4.4362,-4.4421,-4.4302,-4.3943,-4.3843,-4.3708,-4.3349,-4.329,-4.329,-4.329,-4.329,-4.329,-4.329,-4.329,-4.329,-4.329,-4.329,-4.329,-4.329,-4.329,-4.329,-4.329,-4.329,-4.329,-4.329,-4.329,-4.329,-4.329,-4.329,-4.329,-4.329,-4.329,-4.329,-4.329,-4.329,-4.329,-4.329,-4.329,-4.329,-4.329,-4.329,-4.329,-4.329,-4.329,-4.329,-4.329,-4.329,-4.329,-4.329,-4.329,-4.329,-4.329,-4.329,-4.329,-4.329,-4.329,-4.3135,-4.2821,-4.2485,-4.2186,-4.1796,-4.11,-4.0442,-3.9858,-3.9499,-3.9388,-3.9334,-3.902,-3.896,-3.8736,-3.8063,-3.7958,-3.7823,-3.7464,-3.718,-3.6881,-3.6537,-3.5908,-3.5504,-3.5504,-3.5504,-3.5504,-3.5504,-3.5504,-3.5504,-3.5504,-3.5504,-3.5504,-3.5504,-3.5504,-3.5522,-3.5604,-3.5671,-3.5784,-3.5911,-3.6101,-3.6305,-3.6492,-3.6492,-3.6492,-3.6492,-3.6492,-3.6492,-3.6554,-3.7072,-3.7504,-3.7867,-3.8767,-3.9523,-4.0096,-4.0096,-4.0096,-4.0096]},{"header":{"parameterUnit":"m.s-1","parameterCategory":1,"la1":30.6,"la2":28.766,"lo1":-90.7593,"lo2":-88.6598,"dy":0.0162,"dx":0.0183,"nx":116,"ny":114,"refTime":"2024-07-04T12:00:00:Z","depth":0,"parameterNumber":3,"parameterNumberName":"V-component_of_WINDS"},"data":[0.0,0.0,0.0,0.0,0.0,0.0,0.0,0.0,0.0,0.0,0.0,0.0,0.0,0.0,0.0,0.0,0.0,0.0,0.0,0.0,0.0,0.0,0.0,0.0,0.0,0.0,0.0,0.0,0.0,0.0,0.0,0.0,0.0,0.0,0.0,0.0,0.0,0.0,0.0,0.0,0.0,0.0,0.0,0.0,0.0,0.0,0.0,0.0,0.0,0.0,0.0,0.0,0.0,0.0,0.0,0.0,0.0,0.0,0.0,0.0,0.0,0.0,0.0,0.0,0.0,0.0,0.0,0.0,0.0,0.0,0.0,0.0,0.0,0.0,0.0,0.0,0.0,0.0,0.0,0.0,0.0,0.0,0.0,0.0,0.0,0.0,0.0,0.0,0.0,0.0,0.0,0.0,0.0,0.0,0.0,0.0,0.0,0.0,0.0,0.0,0.0,0.0,0.0,0.0,0.0,0.0,0.0,0.0,0.0,0.0,0.0,0.0,0.0,0.0,0.0,0.0,0.0,0.0,0.0,0.0,0.0,0.0,0.0,0.0,0.0,0.0,0.0,0.0,0.0,0.0,0.0,0.0,0.0,0.0,0.0,0.0,0.0,0.0,0.0,0.0,0.0,0.0,0.0,0.0,0.0,0.0,0.0,0.0,0.0,0.0,0.0,0.0,0.0,0.0,0.0,0.0,0.0,0.0,0.0,0.0,0.0,0.0,0.0,0.0,0.0,0.0,0.0,0.0,0.0,0.0,0.0,0.0,0.0,0.0,0.0,0.0,0.0,0.0,0.0,0.0,0.0,0.0,0.0,0.0,0.0,0.0,0.0,0.0,0.0,0.0,0.0,0.0,0.0,0.0,0.0,0.0,0.0,0.0,0.0,0.0,0.0,0.0,0.0,0.0,0.0,0.0,0.0,0.0,0.0,0.0,0.0,0.0,0.0,0.0,0.0,0.0,0.0,0.0,0.0,0.0,0.0,0.0,0.0,0.0,0.0,0.0,0.0,0.0,0.0,0.0,0.0,0.0,0.0,0.0,0.0,0.0,0.0,0.0,0.0,0.0,0.0,0.0,0.0,0.0,0.0,0.0,0.0,0.0,0.0,0.0,0.0,0.0,0.0,0.0,0.0,0.0,0.0,0.0,0.0,0.0,0.0,0.0,0.0,0.0,0.0,0.0,0.0,0.0,0.0,0.0,0.0,0.0,0.0,0.0,0.0,0.0,0.0,0.0,0.0,0.0,0.0,0.0,0.0,0.0,0.0,0.0,0.0,0.0,0.0,0.0,0.0,0.0,0.0,0.0,0.0,0.0,0.0,0.0,0.0,0.0,0.0,0.0,0.0,0.0,0.0,0.0,0.0,0.0,0.0,0.0,0.0,0.0,0.0,0.0,0.0,0.0,0.0,0.0,0.0,0.0,0.0,0.0,0.0,0.0,0.0,0.0,0.0,0.0,0.0,0.0,0.0,0.0,0.0,0.0,0.0,0.0,0.0,0.0,0.0,0.0,0.0,0.0,0.0,0.0,0.0,0.0,0.0,0.0,0.0,0.0,0.0,0.0,0.0,0.0,0.0,0.0,0.0,0.0,0.0,0.0,0.0,0.0,0.0,0.0,0.0,0.0,0.0,0.0,0.0,0.0,0.0,0.0,0.0,0.0,0.0,0.0,0.0,0.0,0.0,0.0,0.0,0.0,0.0,0.0,0.0,0.0,0.0,0.0,0.0,0.0,0.0,0.0,0.0,0.0,0.0,0.0,0.0,0.0,0.0,0.0,0.0,0.0,0.0,0.0,0.0,0.0,0.0,0.0,0.0,0.0,0.0,0.0,0.0,0.0,0.0,0.0,0.0,0.0,0.0,0.0,0.0,0.0,0.0,0.0,0.0,0.0,0.0,0.0,0.0,0.0,0.0,0.0,0.0,0.0,0.0,0.0,0.0,0.0,0.0,0.0,0.0,0.0,0.0,0.0,0.0,0.0,0.0,0.0,0.0,0.0,0.0,0.0,0.0,0.0,0.0,0.0,0.0,0.0,0.0,0.0,0.0,0.0,0.0,0.0,0.0,0.0,0.0,0.0,0.0,0.0,0.0,0.0,0.0,0.0,0.0,0.0,0.0,0.0,0.0,0.0,0.0,0.0,0.0,0.0,0.0,0.0,0.0,0.0,0.0,0.0,0.0,0.0,0.0,0.0,0.0,0.0,0.0,0.0,0.0,0.0,0.0,0.0,0.0,0.0,0.0,0.0,0.0,0.0,0.0,0.0,0.0,0.0,0.0,0.0,0.0,0.0,0.0,0.0,0.0,0.0,0.0,0.0,0.0,0.0,0.0,0.0,0.0,0.0,0.0,0.0,0.0,0.0,0.0,0.0,0.0,0.0,0.0,0.0,0.0,0.0,0.0,0.0,0.0,0.0,0.0,0.0,0.0,0.0,0.0,0.0,0.0,0.0,0.0,0.0,0.0,0.0,0.0,0.0,0.0,0.0,0.0,0.0,0.0,0.0,0.0,0.0,0.0,0.0,0.0,0.0,0.0,0.0,0.0,0.0,0.0,0.0,0.0,0.0,0.0,0.0,0.0,0.0,0.0,0.0,0.0,0.0,0.0,0.0,0.0,0.0,0.0,0.0,0.0,0.0,0.0,0.0,0.0,0.0,0.0,0.0,0.0,0.0,0.0,0.0,0.0,0.0,0.0,0.0,0.0,0.0,0.0,0.0,0.0,0.0,0.0,0.0,0.0,0.0,0.0,0.0,0.0,0.0,0.0,0.0,0.0,0.0,0.0,0.0,0.0,0.0,0.0,0.0,0.0,0.0,0.0,0.0,0.0,0.0,0.0,0.0,0.0,0.0,0.0,0.0,0.0,0.0,0.0,0.0,0.0,0.0,0.0,0.0,0.0,0.0,0.0,0.0,0.0,0.0,0.0,0.0,0.0,0.0,0.0,0.0,0.0,0.0,0.0,0.0,0.0,0.0,0.0,0.0,0.0,0.0,0.0,0.0,0.0,0.0,0.0,0.0,0.0,0.0,0.0,0.0,0.0,0.0,0.0,0.0,0.0,0.0,0.0,0.0,0.0,0.0,0.0,0.0,0.0,0.0,0.0,0.0,0.0,0.0,0.0,0.0,0.0,0.0,0.0,0.0,0.0,0.0,0.0,0.0,0.0,0.0,0.0,0.0,0.0,0.0,0.0,0.0,0.0,0.0,0.0,0.0,0.0,0.0,0.0,0.0,0.0,0.0,0.0,0.0,0.0,0.0,0.0,0.0,0.0,0.0,0.0,0.0,0.0,0.0,0.0,0.0,0.0,0.0,0.0,0.0,0.0,0.0,0.0,0.0,0.0,0.0,0.0,0.0,0.0,0.0,0.0,0.0,0.0,0.0,0.0,0.0,0.0,0.0,0.0,0.0,0.0,0.0,0.0,0.0,0.0,0.0,0.0,0.0,0.0,0.0,0.0,0.0,0.0,0.0,0.0,0.0,0.0,0.0,0.0,0.0,0.0,0.0,0.0,0.0,0.0,0.0,0.0,0.0,0.0,0.0,0.0,0.0,0.0,0.0,0.0,0.0,0.0,0.0,0.0,0.0,0.0,0.0,0.0,0.0,0.0,0.0,0.0,0.0,0.0,0.0,0.0,0.0,0.0,0.0,0.0,0.0,0.0,0.0,0.0,0.0,0.0,0.0,0.0,0.0,0.0,0.0,0.0,0.0,0.0,0.0,0.0,0.0,0.0,0.0,0.0,0.0,0.0,0.0,0.0,0.0,0.0,0.0,0.0,0.0,0.0,0.0,0.0,0.0,0.0,0.0,0.0,0.0,0.0,0.0,0.0,0.0,0.0,0.0,0.0,0.0,0.0,0.0,0.0,0.0,0.0,0.0,0.0,0.0,0.0,0.0,0.0,0.0,0.0,0.0,0.0,0.0,0.0,0.0,0.0,0.0,0.0,0.0,0.0,0.0,0.0,0.0,0.0,0.0,0.0,0.0,0.0,0.0,0.0,0.0,0.0,0.0,0.0,0.0,0.0,0.0,0.0,0.0,0.0,0.0,0.0,0.0,0.0,0.0,0.0,0.0,0.0,0.0,0.0,0.0,0.0,0.0,0.0,0.0,0.0,0.0,0.0,0.0,0.0,0.0,0.0,0.0,0.0,0.0,0.0,0.0,0.0,0.0,0.0,0.0,0.0,0.0,0.0,0.0,0.0,0.0,0.0,0.0,0.0,0.0,0.0,0.0,0.0,0.0,0.0,0.0,0.0,0.0,0.0,0.0,0.0,0.0,0.0,0.0,0.0,0.0,0.0,0.0,0.0,0.0,0.0,0.0,0.0,0.0,0.0,0.0,0.0,0.0,0.0,0.0,0.0,0.0,0.0,0.0,0.0,0.0,0.0,0.0,0.0,0.0,0.0,0.0,0.0,0.0,0.0,0.0,0.0,0.0,0.0,0.0,0.0,0.0,0.0,0.0,0.0,0.0,0.0,0.0,0.0,0.0,0.0,0.0,0.0,0.0,0.0,0.0,0.0,0.0,0.0,0.0,0.0,0.0,0.0,0.0,0.0,0.0,0.0,0.0,0.0,0.0,0.0,0.0,0.0,0.0,0.0,0.0,0.0,0.0,0.0,0.0,0.0,0.0,0.0,0.0,0.0,0.0,0.0,0.0,0.0,0.0,0.0,0.0,0.0,0.0,0.0,0.0,0.0,0.0,0.0,0.0,0.0,0.0,0.0,0.0,0.0,0.0,0.0,0.0,0.0,0.0,0.0,0.0,0.0,0.0,0.0,0.0,0.0,0.0,0.0,0.0,0.0,0.0,0.0,0.0,0.0,0.0,0.0,0.0,0.0,0.0,0.0,0.0,0.0,0.0,0.0,0.0,0.0,0.0,0.0,0.0,0.0,0.0,0.0,0.0,0.0,0.0,0.0,0.0,0.0,0.0,0.0,0.0,0.0,0.0,0.0,0.0,0.0,0.0,0.0,0.0,0.0,0.0,0.0,0.0,0.0,0.0,0.0,0.0,0.0,0.0,0.0,0.0,0.0,0.0,0.0,0.0,0.0,0.0,0.0,0.0,0.0,0.0,0.0,0.0,0.0,0.0,0.0,0.0,0.0,0.0,0.0,0.0,0.0,0.0,0.0,0.0,0.0,0.0,0.0,0.0,0.0,0.0,0.0,0.0,0.0,0.0,0.0,0.0,0.0,0.0,0.0,0.0,0.0,0.0,0.0,0.0,0.0,0.0,0.0,0.0,0.0,0.0,0.0,0.0,0.0,0.0,0.0,0.0,0.0,0.0,0.0,0.0,0.0,0.0,0.0,0.0,0.0,0.0,0.0,0.0,0.0,0.0,0.0,0.0,0.0,0.0,0.0,0.0,0.0,0.0,0.0,0.0,0.0,0.0,0.0,0.0,0.0,0.0,0.0,0.0,0.0,0.0,0.0,0.0,0.0,0.0,0.0,0.0,0.0,0.0,0.0,0.0,0.0,0.0,0.0,0.0,0.0,0.0,0.0,0.0,0.0,0.0,0.0,0.0,0.0,0.0,0.0,0.0,0.0,0.0,0.0,0.0,0.0,0.0,0.0,0.0,0.0,0.0,0.0,0.0,0.0,0.0,0.0,0.0,0.0,0.0,0.0,0.0,0.0,0.0,0.0,0.0,0.0,0.0,0.0,0.0,0.0,0.0,0.0,0.0,0.0,0.0,0.0,0.0,0.0,0.0,0.0,0.0,0.0,0.0,0.0,0.0,0.0,0.0,0.0,0.0,0.0,0.0,0.0,0.0,0.0,0.0,0.0,0.0,0.0,0.0,0.0,0.0,0.0,0.0,0.0,0.0,0.0,0.0,0.0,0.0,0.0,0.0,0.0,0.0,0.0,0.0,0.0,0.0,0.0,0.0,0.0,0.0,0.0,0.0,0.0,0.0,0.0,0.0,0.0,0.0,0.0,0.0,0.0,0.0,0.0,0.0,0.0,0.0,0.0,0.0,0.0,0.0,0.0,0.0,0.0,0.0,0.0,0.0,0.0,0.0,0.0,0.0,0.0,0.0,0.0,0.0,0.0,0.0,0.0,0.0,0.0,0.0,0.0,0.0,0.0,0.0,0.0,0.0,0.0,0.0,0.0,0.0,0.1204,0.0,0.0,0.0,0.0,0.0,0.0,0.0,0.0,0.0,0.0,0.0,0.0,0.0,0.0,0.0,0.0,0.0,0.0,0.0,0.0,0.0,0.0,0.0,0.0,1.1044,1.1413,1.2085,1.1963,1.2065,1.2531,0.0,0.0,0.0,0.0,0.0,1.2381,1.2739,1.291,1.2965,1.3125,1.3213,1.3202,1.234,1.1461,1.0528,0.0,0.0,0.0,0.0,0.0,0.0,0.0,0.0,0.0,0.0,0.0,0.0,0.0,0.0,0.0,0.0,0.0,0.0,0.0,0.0,0.0,0.0,0.0,0.0,0.0,0.0,0.0,0.0,0.0,0.0,0.0,0.0,0.0,0.0,0.0,0.0,0.0,0.0,0.0,0.0,0.0,0.0,0.0,0.0,0.0,0.0,0.0,0.0,0.0,0.0,0.0,0.0,0.0,0.0,0.0,0.0,0.0,0.0,0.0,0.0,0.0,0.0,0.0,0.0,0.0,0.0,0.0,0.0,0.0,0.0,0.0,0.1017,0.0,0.0,0.0,0.0,0.0,0.0,0.0,0.0,0.0,0.0,0.0,0.0,0.0,0.0,0.0,0.0,0.0,0.0,0.0,0.0,0.0,1.1076,1.1798,1.1899,1.2365,1.3509,1.3246,1.3188,1.3639,1.3361,0.0,0.0,0.0,1.3654,1.3313,1.394,1.4325,1.4382,1.4754,1.5079,1.5284,1.4575,1.3638,1.253,1.156,0.0,0.0,0.0,0.0,0.0,0.0,0.0,0.0,0.0,0.0,0.0,0.0,0.0,0.0,0.0,0.0,0.0,0.0,0.0,0.0,0.0,0.0,0.0,0.0,0.0,0.0,0.0,0.0,0.0,0.0,0.0,0.0,0.0,0.0,0.0,0.0,0.0,0.0,0.0,0.0,0.0,0.0,0.0,0.0,0.0,0.0,0.0,0.0,0.0,0.0,0.0,0.0,0.0,0.0,0.0,0.0,0.0,0.0,0.0,0.0,0.0,0.0,0.0,0.3307,0.2795,0.1927,0.1698,0.1598,0.1614,0.1564,0.125,0.0861,0.0797,0.0,0.0,0.0,0.0,0.0,0.0,0.0,0.0,0.0,0.0,0.0,0.0,0.0,0.0,0.0,0.0,0.0,0.0,0.0,1.1049,1.1659,1.1827,1.2369,1.358,1.3285,1.3464,1.4626,1.4174,0.0,0.0,1.5256,1.5286,1.4906,1.521,1.5459,1.5576,1.609,1.6402,1.6557,1.6659,1.6628,1.6346,1.3283,1.2011,1.2095,0.0,0.0,0.0,0.0,0.0,0.0,0.0,0.0,0.0,0.0,0.0,0.0,0.0,0.0,0.0,0.0,0.0,0.0,0.0,0.0,0.0,0.0,0.0,0.0,0.0,0.0,0.0,0.0,0.0,0.0,0.0,0.0,0.0,0.0,0.0,0.0,0.0,0.0,0.0,0.0,0.0,0.8245,0.7341,0.0,0.0,0.0,0.0,0.0,0.0,0.0,0.0,0.0,0.0,0.0,0.0,0.0,0.5196,0.5356,0.5279,0.5133,0.4976,0.3952,0.3354,0.3149,0.2115,0.1638,0.1616,0.1609,0.0,0.1123,0.091,0.0,0.0,0.0,0.0,0.0,0.0,0.0,0.0,0.0,0.0,0.0,0.0,0.0,0.0,0.0,0.0,0.0,0.0,0.0,0.0,0.0,1.3415,1.4392,1.5704,1.5755,1.5878,1.6326,0.0,1.5503,1.5531,1.5965,1.6348,1.6648,1.6799,1.7317,1.827,1.8954,1.924,1.9093,1.8954,1.8623,1.8146,1.6398,1.5212,1.4435,1.3442,0.0,0.0,0.0,0.0,0.0,0.0,0.0,0.0,0.0,0.0,0.0,0.0,0.0,0.0,0.0,0.0,0.0,0.0,0.0,0.0,0.0,0.0,0.0,0.0,0.0,0.0,0.0,0.0,0.0,0.0,0.0,0.0,0.0,0.0,0.0,0.0,0.0,0.0,0.0,0.8772,0.8383,0.7607,0.7309,0.718,0.0,0.0,0.0,0.0,0.0,0.0,0.0,0.0,0.0,0.7465,0.7169,0.6992,0.7106,0.7109,0.679,0.621,0.5682,0.4708,0.3419,0.2947,0.2347,0.1642,0.1642,0.1574,0.1395,0.0977,0.0627,0.0382,0.0,0.0,0.0,0.0,0.0,0.0,0.0,0.0,0.0,0.0,0.0,0.0,0.0,0.0,0.0,0.0,0.0,0.0,1.3883,1.4767,1.5892,1.7418,1.7503,1.7517,0.0,0.0,1.6593,1.6188,1.6534,1.7071,1.7827,1.8216,1.8977,2.015,2.0944,2.1168,2.0856,2.0553,2.0058,1.9385,1.9243,1.8177,1.6424,1.5303,1.4484,0.0,0.0,0.0,0.0,0.0,0.0,0.0,0.0,0.0,0.0,0.0,0.0,0.0,0.0,0.0,0.0,0.0,0.0,0.0,0.0,0.0,0.0,0.0,0.0,0.0,0.0,0.0,0.0,0.0,0.0,0.0,0.0,0.0,0.0,0.0,0.0,0.0,0.0,0.8585,0.854,0.777,0.7577,0.7485,0.0,0.0,0.0,0.0,0.0,0.0,0.7967,0.8092,0.8272,0.8533,0.854,0.856,0.8598,0.8601,0.8225,0.7419,0.7096,0.6064,0.4388,0.3801,0.3017,0.2128,0.1818,0.1645,0.1564,0.1094,0.0742,0.0493,0.0192,0.0047,0.0,0.0,0.0,0.0,0.0,0.0,0.0,0.0,0.0,0.0,0.0,0.0,0.0,0.0,0.0,1.3844,1.5177,0.0,1.5729,1.744,1.6958,1.6942,0.0,0.0,1.7032,1.7123,1.7265,1.7539,1.7984,1.9372,2.0063,2.0009,2.0831,2.1051,2.0709,2.0948,2.0867,2.0546,2.1021,1.9797,1.7274,1.6595,1.5619,1.4501,0.0,0.0,0.0,0.0,0.0,0.0,0.0,0.0,0.0,0.0,0.0,0.0,0.0,0.0,0.0,0.0,0.0,0.0,0.0,0.0,0.0,0.0,0.0,0.0,0.0,0.0,0.0,0.0,0.0,0.0,0.0,0.0,0.0,0.0,0.0,0.0,0.0,0.0,0.0,0.8128,0.7882,0.0,0.0,0.0,0.0,0.7934,0.8136,0.834,0.8438,0.8455,0.8533,0.8696,0.8699,0.8767,0.8858,0.8861,0.8861,0.8803,0.7636,0.7018,0.6856,0.4571,0.3422,0.3264,0.218,0.1645,0.1566,0.1312,0.1009,0.0756,0.0503,0.0201,0.0,0.0,0.0,0.0,0.0,0.0,0.0,1.3888,1.3752,1.3597,1.3597,1.3372,1.3242,1.3338,1.3737,1.4322,0.0,1.6249,1.7351,1.8213,1.8493,1.8599,1.8544,0.0,1.8024,1.7671,1.7946,1.8698,1.996,2.1308,2.2148,2.2441,2.2736,2.2647,2.2168,2.2268,2.199,2.1385,2.1587,2.0851,1.9454,1.8478,1.7663,1.6935,1.5741,1.4703,0.0,0.0,0.0,0.0,0.0,0.0,0.0,0.0,0.0,0.0,0.0,0.0,0.0,0.0,0.0,0.0,0.0,0.0,0.0,0.0,0.0,0.0,0.0,0.0,0.0,0.0,0.0,0.0,0.0,0.0,0.0,0.0,0.0,0.0,0.0,0.0,0.0,0.9353,0.9275,0.0,0.8343,0.8245,0.8265,0.8319,0.8377,0.8472,0.8621,0.8723,0.8842,0.8991,0.9089,0.9167,0.9225,0.9127,0.9076,0.9076,0.8533,0.7852,0.7089,0.6203,0.5362,0.455,0.3391,0.2819,0.2667,0.1827,0.1313,0.101,0.0556,0.0354,0.0253,0.0051,0.0,0.0,1.3355,1.3447,0.0,1.4227,1.414,1.401,1.401,1.3776,1.3624,1.3695,1.432,1.496,1.5472,1.6916,1.8031,1.8463,1.9038,1.9159,1.8577,0.0,1.8612,1.8041,1.8767,1.978,2.1016,2.2321,2.318,2.3541,2.3541,2.3295,2.2818,2.2767,2.2384,2.177,2.1867,2.1673,2.1149,2.0118,1.9329,1.8638,1.7378,1.6404,1.5621,0.0,0.0,0.0,0.0,0.0,0.0,0.0,0.0,0.0,0.0,0.0,0.0,0.0,0.0,0.0,0.0,0.0,0.0,0.0,0.0,0.0,0.0,0.0,0.0,0.0,0.0,0.0,0.0,0.0,0.0,0.0,0.0,0.0,0.0,1.2145,1.1889,1.0558,1.0287,0.9883,0.9156,0.8741,0.8503,0.8557,0.8608,0.8703,0.8852,0.9005,0.9133,0.9282,0.9327,0.9381,0.9381,0.934,0.9262,0.9207,0.9055,0.8536,0.7709,0.7265,0.6644,0.583,0.4634,0.3813,0.3364,0.2559,0.1879,0.1313,0.0859,0.0556,0.0354,0.0202,0.0101,0.0,1.3504,1.3524,1.3502,1.4089,1.4326,1.4396,1.4396,1.4396,1.4489,1.4685,1.5203,1.5819,1.6566,1.7122,1.7629,1.812,1.8441,1.8404,1.7894,1.8582,1.8773,1.8316,1.9796,2.0734,2.0978,2.232,2.2999,2.3011,2.2999,2.2794,2.2471,2.2281,2.2018,2.1714,2.2061,2.2197,2.2154,2.1431,2.0491,1.9428,1.8744,1.8196,1.774,0.0,0.0,0.0,0.0,0.0,0.0,0.0,0.0,0.0,0.0,0.0,0.0,0.0,0.0,0.0,0.0,0.0,0.0,0.0,0.0,0.0,0.0,0.0,0.0,0.0,0.0,0.0,0.0,0.0,0.0,0.0,0.0,0.0,1.3297,1.2368,1.1762,1.1673,1.0865,1.0264,1.022,0.9178,0.8567,0.872,0.8869,0.9015,0.921,0.9306,0.9388,0.9388,0.9391,0.9395,0.9395,0.9391,0.931,0.9217,0.921,0.9079,0.8881,0.7709,0.7144,0.7086,0.5888,0.4657,0.3527,0.3471,0.2719,0.1618,0.1314,0.0859,0.0404,0.0404,0.0253,0.0,1.3188,1.3302,1.3502,1.4089,1.4326,1.4396,1.4396,1.4697,1.4926,1.4971,1.5927,1.6822,1.74,1.8216,1.8856,1.9294,1.9194,1.9196,1.9394,1.9283,1.9535,2.0254,2.0769,2.1605,2.2819,2.2898,2.3114,2.3508,2.2872,2.2335,2.1906,2.1859,2.1788,2.1714,2.2061,2.2197,2.2197,2.1987,2.1717,2.1315,2.0124,1.9073,1.8195,0.0,0.0,0.0,0.0,0.0,0.0,0.0,0.0,0.0,0.0,0.0,0.0,0.0,0.0,0.0,0.0,0.0,0.0,0.0,0.0,0.0,0.0,0.0,0.0,0.0,0.0,0.0,0.0,0.0,0.0,0.0,1.4857,1.4719,1.4338,1.4195,1.3903,1.3257,1.238,1.1499,1.0767,0.9684,0.9088,0.9184,0.9235,0.9276,0.9317,0.9462,0.9547,0.9547,0.9646,0.97,0.97,0.9598,0.9469,0.9317,0.9262,0.9079,0.8881,0.8549,0.8413,0.8317,0.7119,0.6393,0.6003,0.5018,0.3974,0.2775,0.1624,0.1111,0.0909,0.0556,0.0253,0.0,1.2922,1.3173,1.3479,1.4018,1.4443,1.4697,1.4697,1.5096,1.539,1.539,1.6327,1.7063,1.7251,1.8137,1.8733,1.8708,1.9057,1.9091,1.8744,1.9004,1.9851,2.1374,2.1645,2.2337,2.3488,2.3305,2.3288,2.3443,2.3015,2.2671,2.2408,2.2223,2.2161,2.2192,2.2216,2.2197,2.2197,2.2197,2.2197,2.2123,2.1305,2.0381,1.949,1.9233,1.8689,1.8055,1.7595,1.7366,1.7199,1.6746,0.0,0.0,0.0,0.0,0.0,0.0,0.0,0.0,0.0,0.0,0.0,0.0,0.0,0.0,0.0,0.0,0.0,0.0,0.0,0.0,0.0,0.0,0.0,0.0,1.5445,1.5373,1.5363,1.5323,1.5061,1.4572,1.3688,1.2776,1.1707,1.0554,0.9781,0.9429,0.9442,0.9476,0.9476,0.9615,0.9696,0.9696,0.9778,0.9822,0.9822,0.9741,0.9625,0.9473,0.932,0.9171,0.9025,0.8964,0.8885,0.8878,0.8182,0.7569,0.7013,0.6185,0.5101,0.0,0.0,0.0,0.0,0.0,0.0303,0.0152,1.2812,1.3236,1.3578,1.4005,1.4697,1.5176,1.5176,1.5579,1.5876,1.5876,0.0,1.6948,1.671,1.7533,1.7926,1.7424,1.8521,1.8687,0.0,1.8605,2.0156,2.2034,2.2475,2.2939,2.3526,2.3619,2.3501,2.3198,2.333,2.336,2.333,2.2921,2.2769,2.2818,2.2463,2.2259,2.2197,2.2197,2.2197,2.2197,2.2197,2.1757,2.104,2.0452,2.0161,1.9976,1.8944,1.8433,1.8104,1.7091,0.0,0.0,0.0,0.0,0.0,0.0,0.0,0.0,0.0,0.0,0.0,0.0,0.0,0.0,0.0,0.0,0.0,0.0,0.0,0.0,0.0,0.0,0.0,0.0,1.5978,1.6056,1.6291,1.5906,1.5547,1.5547,1.4733,1.3832,1.2966,1.1703,1.055,0.971,0.9617,0.9635,0.9635,0.0,0.0,0.0,0.0,0.9822,0.9822,0.9822,0.9751,0.9608,0.9456,0.9357,0.9204,0.9005,0.8885,0.8885,0.8885,0.831,0.7308,0.7166,0.619,0.4791,0.36,0.2269,0.1061,0.0556,0.0404,0.0303,1.3349,1.3979,1.446,1.456,1.5164,1.5656,1.5656,1.6064,1.6358,1.6358,1.6824,1.7316,1.7736,1.8068,1.8347,1.856,1.9015,1.9582,0.0,0.0,2.1982,2.3457,2.3242,2.3485,2.4347,2.4131,2.3897,2.3675,2.3429,2.322,2.2992,2.2902,2.272,2.2506,2.2684,2.2555,2.2197,2.2197,2.2197,2.2197,2.2197,2.1757,2.1092,2.0965,2.0581,2.0085,1.9868,1.9576,1.9282,1.9067,1.859,1.8159,1.842,0.0,0.0,0.0,0.0,0.0,0.0,0.0,0.0,0.0,0.0,0.0,0.0,0.0,0.0,0.0,0.0,0.0,0.0,0.0,0.0,1.7658,1.6874,1.6324,1.6603,1.6178,1.5813,1.5813,1.484,1.4276,1.4347,1.2354,1.1127,1.1268,1.0304,0.9781,0.9781,0.9805,0.9822,0.9822,0.9822,0.9822,0.9822,0.9822,0.9751,0.9608,0.0,0.0,0.9204,0.9005,0.8885,0.8885,0.8885,0.8754,0.8543,0.8275,0.7337,0.5814,0.3481,0.1716,0.0556,0.0455,0.0253,0.0051,1.3504,1.4012,1.4421,1.4663,1.531,1.5876,1.6107,1.6552,1.6863,1.6863,1.7039,1.7316,1.7617,1.7707,1.7847,1.8022,1.8446,0.0,0.0,2.1491,2.2339,2.374,2.3879,2.4072,2.445,2.445,2.429,2.3953,2.3855,2.3771,2.3738,2.3471,2.3339,2.3357,2.3292,2.3125,2.2884,2.2665,2.2555,2.2525,2.2278,2.1987,2.1663,2.1663,2.1431,2.1115,2.072,2.0323,1.9911,1.9551,1.9195,1.8874,1.9038,1.9277,1.9235,0.0,0.0,0.0,0.0,0.0,0.0,0.0,0.0,0.0,0.0,0.0,0.0,0.0,0.0,1.9983,1.9407,0.0,1.8527,1.8495,1.75,1.673,1.6692,1.6471,1.6205,1.5945,1.5405,1.5006,1.4815,1.3668,1.2873,1.274,1.1507,1.0725,1.0725,1.0122,0.9822,0.9822,0.9822,0.9822,0.9822,0.9822,0.9785,0.9713,0.9564,0.9415,0.932,0.9113,0.9008,0.8885,0.8885,0.8885,0.8861,0.8451,0.7516,0.6207,0.4591,0.302,0.1513,0.0858,0.0455,0.0202,1.3514,1.3821,1.4174,1.4732,1.5456,1.6086,1.6552,1.6968,1.7199,1.7199,1.7199,1.7199,1.7199,1.7199,1.729,0.0,0.0,0.0,0.0,2.1549,2.2311,2.3748,2.4268,2.4463,2.4276,2.4536,2.4492,2.4083,2.4203,2.4363,2.452,2.4144,2.4073,2.4263,2.3901,2.376,2.3744,2.3362,2.3285,2.3329,2.2751,2.2497,2.2485,2.2296,2.2154,2.203,2.1431,2.0869,2.0279,1.9726,1.9507,1.9462,1.9591,1.9929,2.0025,1.8683,1.8537,0.0,0.0,0.0,0.0,0.0,0.0,0.0,0.0,1.9971,2.025,2.0726,2.1348,2.1599,2.0928,2.0501,2.0084,1.9598,1.8446,1.7499,1.7192,1.6919,1.6533,1.5951,1.5891,1.5718,1.5226,1.4931,1.4604,1.4108,1.2826,1.1989,1.1692,1.0725,1.0061,0.9822,0.9822,0.9822,0.9822,0.9822,0.9822,0.9819,0.9676,0.953,0.9374,0.9279,0.9076,0.8885,0.8885,0.8865,0.8817,0.8388,0.7608,0.6643,0.602,0.4824,0.3221,0.1613,0.0908,0.0656,1.3576,1.3821,1.428,1.5164,1.5932,1.6573,1.7052,1.7178,1.7199,1.7199,1.7199,1.7199,1.7199,1.7199,1.7617,0.0,0.0,0.0,2.2247,2.2337,2.2888,2.4176,2.4295,2.4276,2.4141,2.4276,2.4276,2.4083,2.4112,2.4187,2.4334,2.4463,2.4376,2.4118,2.4205,2.4288,2.4389,2.4328,2.4622,2.5032,2.4036,2.3629,2.3517,2.2553,2.2018,2.1757,2.1651,2.1167,2.0539,2.0474,2.0259,2.0085,2.0575,2.1043,2.1193,1.9956,1.9968,2.0001,1.8368,1.8247,1.8843,1.993,2.0012,2.0104,0.0,2.1209,2.12,2.1916,2.2153,2.2327,2.2553,2.2092,2.1749,2.2038,2.0358,1.8925,1.8786,1.7639,1.6596,1.5975,1.5891,1.6049,1.6478,1.5485,1.4938,1.5359,1.4202,1.2951,1.1752,1.1571,1.0967,0.9819,0.9822,0.9822,0.9822,0.9822,0.9822,0.9819,0.9676,0.953,0.9374,0.9279,0.9076,0.8885,0.8885,0.8807,0.8723,0.8554,0.8294,0.7945,0.6785,0.6032,0.5327,0.2816,0.1862,0.1662,1.3597,1.3821,1.4221,1.4869,1.5611,1.6346,1.7094,1.7199,1.7199,1.7199,1.7199,1.7199,1.7199,1.7512,1.7917,1.8388,1.9041,2.0007,2.1405,2.2048,2.2794,2.3623,2.4079,2.4247,2.4083,2.4218,2.4218,2.4083,2.4083,2.4157,2.4292,2.4392,2.4635,2.5042,2.5071,2.5375,2.5826,2.5551,2.538,2.5201,2.4198,2.3592,2.3189,2.2246,2.1694,2.1443,2.162,2.1242,0.0,0.0,2.0388,2.0151,2.0347,2.0587,2.0572,1.975,2.005,2.0455,1.9554,1.9835,2.0279,2.0191,2.0543,2.101,2.131,2.142,2.1522,2.187,2.2309,2.2693,2.2876,2.2527,2.2356,2.2783,2.1559,2.0174,1.9156,1.8474,1.7455,1.5868,1.5795,1.6103,1.6652,1.6233,1.6103,1.6668,1.4857,1.3485,1.2886,1.1446,1.0365,0.9822,0.9822,0.9822,0.9822,0.9822,0.9822,0.9822,0.9761,0.9656,0.951,0.9354,0.9157,0.8885,0.8885,0.8848,0.8825,0.8581,0.8445,0.837,0.7623,0.7285,0.6883,0.432,0.3316,0.3015,1.3621,1.3844,1.415,1.4674,1.5231,1.5932,1.685,1.701,1.7052,1.7178,1.7199,1.7199,1.7199,1.7735,1.8166,1.831,1.9237,2.0113,2.087,2.1681,2.2479,2.3156,2.373,2.4032,2.4112,2.4203,2.4281,2.4347,2.4347,2.4472,2.4721,2.4751,2.5153,2.5878,2.5894,2.6334,2.7023,2.6511,2.6056,2.5612,2.4453,2.3666,2.3046,2.2178,2.1569,2.1221,2.1336,2.0987,0.0,0.0,2.0181,2.0063,1.9802,1.9987,2.0204,1.9642,2.0115,2.0775,2.044,2.083,2.1126,2.0398,2.0872,2.1511,2.1319,2.1476,2.1723,2.1833,2.2327,2.2776,2.2885,2.2823,2.2937,2.3477,2.2745,2.1528,1.9974,1.9445,1.8371,1.5983,1.5883,1.618,1.6537,1.6658,1.6887,1.734,1.5773,1.4619,1.4262,1.2101,1.0725,1.0365,1.0001,0.9822,0.9822,0.9822,0.9822,0.9822,0.9822,0.9724,0.954,0.9347,0.9144,0.8885,0.8885,0.8885,0.8861,0.8655,0.852,0.8459,0.8201,0.8025,0.7789,0.6024,0.502,0.4368,1.3668,1.3926,1.4197,1.4789,1.5028,1.5434,1.638,1.6522,1.668,1.7136,1.7199,1.7199,1.7199,1.7735,1.831,1.8832,1.9447,2.0283,2.1407,2.1525,2.2047,2.3143,2.3237,2.3524,2.4083,2.4112,2.4387,2.4966,2.4966,2.5254,2.5772,2.5883,2.6083,2.6298,2.6421,2.691,2.7651,2.7037,2.6858,2.6805,2.5146,2.4202,2.3661,2.2596,2.1769,2.1158,2.0775,0.0,0.0,0.0,1.9725,1.9943,1.9037,1.9735,2.0737,2.007,2.0498,2.1138,2.0846,2.082,2.0869,2.0998,2.1099,2.1227,2.1586,2.1678,2.1797,2.2181,2.2282,2.2419,2.2831,2.3185,2.3724,2.4597,2.4086,2.3084,2.1786,2.0607,1.8972,1.6587,1.6264,1.6275,1.632,1.6537,1.6809,1.708,1.7282,1.6826,1.5634,1.4321,1.3006,1.1692,1.0422,0.9822,0.9822,0.9822,0.9822,0.9822,0.9822,0.9669,0.9378,0.9086,0.8892,0.8885,0.8885,0.8885,0.8871,0.8767,0.8615,0.8469,0.8323,0.817,0.7988,0.7939,0.7083,0.5727,1.3218,1.3668,1.408,1.4385,1.4478,1.4743,1.5457,1.6098,1.669,1.7253,1.7911,0.0,0.0,0.0,0.0,0.0,1.9682,2.0126,2.0923,2.1302,2.1681,2.2073,2.2479,2.2921,2.3483,2.3496,2.3812,2.44,2.44,2.4504,2.4657,2.4717,2.5094,2.5705,2.6182,2.6844,2.7718,2.7908,2.7779,2.7354,2.6129,2.5273,2.4612,2.3007,2.2084,2.1562,0.0,0.0,0.0,1.9922,1.9976,2.0053,1.9725,1.9768,1.9998,2.0429,2.1,2.1565,2.2004,2.199,2.1881,2.1826,2.1658,2.1522,2.1659,2.1696,2.1733,2.1861,2.2099,2.2318,2.2465,2.3041,2.3813,2.4647,2.4796,2.4105,2.222,2.1595,2.0179,1.6985,1.6803,1.6689,1.6078,1.6271,1.661,1.7062,1.6408,1.5882,1.5623,1.4381,1.3066,1.1752,1.1269,1.0664,0.9822,0.9822,0.9822,0.9819,0.9727,0.9578,0.9374,0.9174,0.9028,0.8885,0.8885,0.8885,0.8871,0.8774,0.8621,0.8469,0.8378,0.8177,0.7988,0.7988,0.7736,0.7182,1.3175,1.3679,1.4139,1.4696,1.459,0.0,0.0,0.0,0.0,0.0,0.0,0.0,0.0,0.0,0.0,0.0,0.0,2.0203,2.0373,2.0909,2.1302,2.1498,2.1877,2.2412,2.3169,2.3182,2.3616,2.4426,2.4426,2.4517,2.4696,2.4936,2.5345,2.5959,2.6573,2.7228,2.7922,2.7892,2.7603,2.7045,2.5813,2.4956,2.4336,2.2971,2.2211,0.0,0.0,0.0,0.0,1.9976,1.9965,2.0053,1.9704,1.9768,2.0096,2.0916,2.1701,2.244,2.2896,2.2838,2.2595,2.2436,2.2058,2.1696,2.1696,2.1696,2.165,2.1504,2.1787,2.2025,2.1915,2.251,2.3325,2.4207,2.4803,2.4594,2.29,2.2401,2.1152,1.8232,1.7579,1.7103,1.6411,1.6393,1.6573,1.6923,1.6362,1.6121,1.6279,1.5095,1.3963,1.3126,1.2651,1.1808,1.0482,1.0486,1.0215,0.9744,0.9598,0.9449,0.9296,0.9144,0.9025,0.8885,0.8885,0.8885,0.8875,0.8832,0.8669,0.8472,0.8381,0.8221,0.7988,0.7988,0.7988,0.7889,1.349,1.3882,1.4312,0.0,0.0,0.0,0.0,0.0,0.0,0.0,0.0,0.0,0.0,0.0,0.0,0.0,0.0,0.0,1.9878,2.0373,0.0,2.1446,2.1498,2.2008,2.3089,2.3141,2.3715,2.4892,2.4892,2.5166,2.5715,2.6295,2.6639,2.6749,2.7347,2.7821,2.8055,2.7006,2.6421,2.6043,2.4455,2.3504,2.3067,2.2598,0.0,0.0,0.0,0.0,0.0,1.9812,1.9791,2.002,1.9124,1.9822,2.1036,2.1551,2.263,2.3644,2.353,2.334,2.3108,2.295,2.2353,2.1776,2.1748,2.1748,2.1585,2.1163,2.141,2.154,2.1181,2.1786,2.2574,2.337,2.4262,2.4573,2.3816,2.3066,2.1955,2.015,1.8663,1.762,1.7254,1.6949,1.6736,1.6718,1.7183,1.7473,1.7485,1.6349,1.5693,1.5575,1.4441,1.3191,1.1812,1.1752,1.1071,0.9793,0.9514,0.9364,0.927,0.9008,0.8885,0.8885,0.8885,0.8885,0.8885,0.8885,0.8757,0.8482,0.8482,0.8303,0.7988,0.7988,0.7988,0.7988,0.0,0.0,0.0,0.0,0.0,0.0,0.0,0.0,0.0,0.0,0.0,0.0,0.0,0.0,0.0,0.0,0.0,0.0,2.0438,2.062,0.0,0.0,0.0,0.0,2.184,2.2242,0.0,0.0,0.0,2.3915,2.4527,2.47,2.4559,2.4231,2.4857,2.5332,2.5711,2.5855,2.6025,2.6133,0.0,2.4814,2.426,0.0,0.0,0.0,0.0,0.0,2.1343,2.073,2.0817,2.1177,2.0926,2.1101,2.1559,2.24,2.2903,2.3411,2.4451,2.431,2.3919,2.4267,2.381,2.3071,2.2251,2.2088,2.1802,2.0835,2.0989,2.1236,2.1126,2.1989,2.2913,2.3416,2.4482,2.4979,2.416,2.4166,2.3267,2.0763,2.0146,1.9271,1.7626,1.7577,1.7502,1.7008,1.7117,1.728,1.7473,1.7185,1.6585,1.5634,1.5273,1.45,1.3186,1.2169,1.2028,1.2631,1.0435,0.9874,1.073,0.9496,0.8885,0.8885,0.8885,0.8885,0.8885,0.8885,0.8757,0.8482,0.8482,0.8303,0.7988,0.7988,0.7988,0.7988,0.0,0.0,0.0,0.0,0.0,0.0,0.0,0.0,0.0,0.0,0.0,0.0,0.0,0.0,0.0,0.0,0.0,0.0,0.0,1.9813,0.0,0.0,0.0,2.0922,2.135,2.1849,0.0,0.0,0.0,0.0,0.0,2.3498,2.3446,2.3189,2.3753,2.4208,2.4486,0.0,0.0,0.0,0.0,0.0,0.0,0.0,0.0,0.0,0.0,0.0,2.1865,2.1592,2.168,2.1909,2.1909,2.2193,2.263,2.3165,2.3624,2.4137,2.4986,2.4595,2.404,2.4351,2.3531,2.2548,2.224,2.1793,2.1283,2.0744,2.0874,2.1053,2.0879,2.1668,2.2565,2.3142,2.3956,2.4617,2.4721,2.4616,2.3836,2.1907,2.1092,2.0045,1.8317,1.8185,1.8015,1.7518,1.7383,1.7328,1.7473,1.7485,1.7185,1.6467,1.6408,1.5811,1.456,1.3246,1.2861,1.3386,1.1769,1.1241,1.175,1.0331,0.9699,0.9644,0.0,0.8885,0.8885,0.8885,0.8757,0.8482,0.8482,0.8303,0.7988,0.7988,0.7988,0.7988,0.0,0.0,0.0,0.0,0.0,0.0,0.0,0.0,0.0,1.6797,1.763,1.8322,1.8927,1.9384,0.0,0.0,0.0,0.0,0.0,0.0,0.0,0.0,0.0,2.0236,2.1164,2.1646,2.1896,0.0,0.0,0.0,0.0,0.0,0.0,0.0,0.0,0.0,0.0,0.0,0.0,0.0,0.0,0.0,0.0,0.0,0.0,0.0,0.0,2.2411,2.2411,2.2411,2.2411,2.2411,2.2411,2.2975,2.3705,2.3771,2.4465,2.5226,2.5292,2.4619,2.393,2.393,2.2654,2.1478,2.1912,2.1283,2.0578,2.0654,2.0871,2.0943,2.0649,2.122,2.2025,2.2785,2.3279,2.4033,2.5207,2.4836,2.4115,2.3327,2.1941,2.0515,1.9274,1.87,1.8363,1.8083,1.7784,1.7596,1.7485,1.7485,1.7485,1.7485,1.7485,1.6944,1.5871,1.4529,1.379,1.3536,1.3136,1.2866,1.2673,1.1446,1.0945,1.0836,0.9644,0.9154,0.9103,0.8992,0.8757,0.8482,0.8482,0.8303,0.7988,0.7988,0.7988,0.7988,0.0,0.0,0.0,0.0,0.0,0.0,0.0,0.0,0.0,0.0,0.0,0.0,0.0,0.0,0.0,0.0,0.0,0.0,0.0,0.0,0.0,0.0,0.0,2.0404,2.0457,2.0996,2.125,2.1282,2.1331,0.0,0.0,0.0,0.0,0.0,0.0,0.0,0.0,0.0,0.0,0.0,0.0,0.0,0.0,0.0,0.0,0.0,2.2918,2.2881,2.2881,2.2881,2.2881,2.2881,2.2881,2.3274,2.3771,2.4235,2.4738,2.5303,2.5666,2.5274,2.4722,2.4722,2.3776,2.2636,2.1874,2.1293,2.0764,2.0179,2.0333,2.0695,2.0961,2.1667,2.2336,2.2831,2.3565,2.4404,2.5304,2.5552,2.5397,2.4569,2.3368,2.2006,2.0515,1.9441,1.8706,1.8363,1.8305,1.8006,1.7543,1.7485,1.7485,1.7485,1.7485,1.7361,1.7185,1.5679,1.542,1.6373,1.3856,1.3194,1.4169,1.2766,1.2091,1.2032,1.0895,0.0,1.0292,0.932,0.8757,0.8482,0.8482,0.8303,0.7988,0.7988,0.7988,0.7988,0.0,0.0,0.0,0.0,0.0,0.0,0.0,0.0,0.0,0.0,0.0,0.0,0.0,0.0,0.0,0.0,0.0,0.0,0.0,0.0,0.0,0.0,0.0,1.9765,2.0182,2.0737,2.0995,2.0995,0.0,2.1147,2.1481,2.1186,2.088,2.0571,2.0571,0.0,0.0,0.0,0.0,0.0,0.0,0.0,0.0,0.0,0.0,0.0,0.0,2.3001,2.3001,2.3001,2.2777,2.2558,2.2831,2.3442,2.4135,2.4293,2.4491,2.4759,2.5241,2.4605,2.3787,2.3787,2.2808,2.1755,2.1572,2.0812,2.0163,2.0348,2.0435,2.064,2.1034,2.1612,2.2108,2.251,2.2951,2.3639,2.4886,2.5225,2.5216,2.4858,2.3712,2.2467,2.1102,1.9859,1.9004,1.8706,1.8648,1.8473,1.8012,1.7843,1.7667,1.7485,1.7346,1.728,1.728,1.6436,1.6243,1.6682,1.5238,1.4773,1.5255,1.3937,1.3344,1.329,1.2091,1.1269,1.0672,1.0076,0.9291,0.8482,0.8482,0.8303,0.7988,0.7988,0.7988,0.7988,0.0,0.0,0.0,0.0,0.0,0.0,0.0,0.0,1.4328,1.5958,1.6204,0.0,0.0,0.0,0.0,0.0,0.0,0.0,0.0,0.0,0.0,0.0,0.0,1.9224,2.0096,0.0,0.0,2.0894,2.1004,0.0,0.0,0.0,0.0,0.0,2.026,2.0205,2.0118,0.0,0.0,0.0,0.0,2.2053,0.0,0.0,0.0,0.0,0.0,2.3001,2.3001,2.3001,2.2665,2.2315,2.2433,2.3157,2.3942,2.4053,2.399,2.4013,2.4556,2.3793,2.2803,2.2803,2.1635,2.0647,2.1159,2.0264,1.9559,2.0535,2.0615,2.0668,2.1154,2.1511,2.1824,2.2217,2.2355,2.2969,2.4445,2.4803,2.4968,2.504,2.4053,2.303,2.2078,2.0895,1.9924,1.9455,1.9165,1.8823,1.8421,1.8194,1.7935,1.7511,1.731,1.712,1.7008,1.6742,1.6507,1.6302,1.6229,1.6091,1.5891,1.4976,1.4541,1.4493,1.329,1.2309,0.0,1.0891,0.9981,0.8846,0.8587,0.8303,0.7988,0.7988,0.7988,0.7988,0.0,0.0,0.0,0.0,0.0,0.0,0.0,0.0,1.3908,1.4989,1.5597,0.0,0.0,0.0,0.0,0.0,0.0,0.0,0.0,0.0,0.0,0.0,0.0,0.0,0.0,0.0,0.0,2.0894,2.1343,0.0,0.0,0.0,0.0,0.0,0.0,2.0555,2.0118,2.0118,0.0,0.0,0.0,0.0,0.0,0.0,0.0,0.0,0.0,2.3001,2.3001,2.3001,2.2964,2.274,2.1675,2.1732,2.2345,2.3416,2.3537,2.3408,2.4023,2.3509,2.2803,2.2803,2.1635,2.0521,2.0563,1.9929,1.9522,2.0343,2.0493,2.0717,2.1495,2.1668,2.1824,2.2217,2.2602,2.316,2.4137,2.49,2.5491,2.5852,2.5175,2.4612,2.4501,2.3376,2.2191,2.106,1.9982,1.9068,1.8421,1.8363,1.8126,1.7588,1.7557,1.7313,1.6742,1.6459,1.6308,1.6278,1.6036,1.591,1.5891,1.5779,1.5731,1.5672,1.4541,1.4002,0.0,1.1601,1.0465,0.9935,0.8898,0.8303,0.7988,0.7988,0.7988,0.7988,0.0,0.0,0.0,0.0,0.0,0.0,0.0,0.0,1.3403,1.4661,0.0,0.0,0.0,0.0,0.0,0.0,0.0,0.0,0.0,0.0,0.0,0.0,0.0,0.0,0.0,0.0,2.1179,2.1734,2.1636,0.0,0.0,0.0,0.0,0.0,0.0,2.0785,2.0577,2.0577,0.0,0.0,0.0,0.0,0.0,0.0,0.0,0.0,0.0,0.0,2.1928,2.1928,2.1662,2.1308,2.1242,2.082,2.0573,2.1738,2.2109,2.2284,2.2824,2.2577,2.2132,2.2132,2.1475,2.0869,2.0869,2.0255,1.9907,2.0704,2.0686,2.0769,2.154,2.1696,2.1742,2.1897,2.2071,2.2538,2.3639,2.407,2.4693,2.5874,2.5056,2.4521,2.4761,2.3712,2.2523,2.1288,2.0723,2.004,1.9068,1.8829,1.8461,1.7837,1.7553,1.7167,1.6673,1.629,1.6048,1.6042,1.594,1.5891,1.5891,1.5891,1.5891,1.5891,1.5405,1.4809,0.0,1.3181,1.1799,1.014,0.9675,0.8911,0.7988,0.7988,0.7988,0.7988,0.0,0.0,0.0,0.0,0.0,0.0,0.0,1.2329,1.3025,1.422,0.0,0.0,0.0,0.0,0.0,0.0,0.0,0.0,0.0,0.0,0.0,0.0,0.0,0.0,0.0,0.0,2.1076,2.1758,2.1556,2.1667,0.0,0.0,2.1385,2.1236,0.0,0.0,0.0,0.0,0.0,0.0,0.0,0.0,0.0,0.0,0.0,0.0,0.0,0.0,0.0,0.0,0.0,2.0547,2.0818,2.0274,1.9752,2.079,2.1036,2.1119,2.1646,2.1663,2.1504,2.1504,2.1328,2.1108,2.1108,2.0585,2.025,2.097,2.0888,2.0906,2.1568,2.1696,2.1696,2.1696,2.1897,2.2346,2.3197,2.3636,2.4335,2.5472,2.5005,2.4736,2.513,2.4147,2.3038,2.1794,2.1402,2.0666,1.9482,1.9099,1.8627,1.8063,1.7634,1.7245,1.6717,1.6256,1.5998,1.5998,1.5945,1.5891,1.5891,1.5891,1.5891,1.5891,1.5891,1.5458,0.0,1.4331,1.3027,1.1122,1.0815,0.9772,0.8482,0.8482,0.8283,0.7988,0.0,0.0,0.0,0.0,0.0,0.0,0.0,0.0,0.0,0.0,0.0,0.0,0.0,0.0,0.0,0.0,0.0,0.0,0.0,0.0,0.0,0.0,0.0,0.0,0.0,0.0,2.0426,2.0436,2.0943,2.1193,2.1193,2.1193,2.0913,2.0389,0.0,0.0,0.0,0.0,0.0,0.0,0.0,0.0,0.0,0.0,0.0,0.0,0.0,0.0,0.0,0.0,0.0,0.0,0.0,2.0206,2.0323,2.1011,2.0592,2.0057,2.0638,2.0954,2.1117,2.1117,2.1108,2.1108,2.1108,2.0796,2.0622,2.1025,2.1099,2.1236,2.1614,2.1696,2.1696,2.1696,2.2373,2.2895,2.2913,2.4005,2.4776,2.4794,2.5133,2.5537,2.5931,2.5285,2.427,2.3095,2.1851,0.0,1.9482,1.9092,1.8622,1.8102,1.8089,1.7644,1.669,1.6424,1.6324,1.6271,1.6051,1.5891,1.5891,1.5891,1.5891,1.5891,1.5891,1.5891,0.0,1.4654,1.3884,1.3346,1.2206,1.0881,0.9608,0.9608,0.892,0.7988,0.0,0.0,0.0,0.0,0.0,0.0,0.0,0.0,0.0,0.0,0.0,0.0,0.0,0.0,0.0,0.0,0.0,0.0,0.0,0.0,0.0,0.0,0.0,0.0,0.0,0.0,0.0,2.0954,2.1133,2.1203,2.1203,2.1203,2.1094,2.0943,2.0567,2.0319,0.0,0.0,0.0,0.0,0.0,0.0,2.1165,0.0,0.0,0.0,0.0,0.0,0.0,0.0,0.0,0.0,0.0,0.0,0.0,1.9844,1.9916,1.9925,2.012,2.0426,2.0704,2.0704,2.0906,2.1108,2.1108,2.1007,2.1034,2.1412,2.131,2.1236,2.1614,2.1696,2.1778,2.2053,2.2309,2.2675,2.3224,2.3932,2.4606,2.5115,2.5784,2.6252,2.638,2.6173,2.5514,2.4326,2.3087,2.1907,2.0666,1.9528,1.8735,1.8386,1.7954,1.7551,1.7067,1.6743,1.6577,1.6577,1.6471,1.6365,1.6164,1.6164,1.6051,1.5891,1.5891,1.5891,0.0,1.5512,1.4628,1.3453,1.309,1.2048,1.0587,0.985,0.9361,0.897,0.0,0.0,0.0,0.0,0.0,0.0,0.0,0.0,0.0,0.0,0.0,0.0,0.0,0.0,0.0,0.0,0.0,0.0,0.0,0.0,0.0,0.0,0.0,0.0,0.0,1.9694,2.0168,2.0469,2.0469,2.0469,2.0469,2.0469,2.0469,2.0459,2.011,1.9994,0.0,0.0,0.0,0.0,0.0,0.0,2.043,0.0,0.0,0.0,0.0,0.0,0.0,0.0,0.0,0.0,0.0,0.0,0.0,0.0,1.9595,1.9857,1.9692,1.9989,2.0287,2.0484,2.0814,2.1145,2.131,2.1346,2.142,2.1641,2.1485,2.1385,2.1641,2.1696,2.1769,2.2016,2.2318,2.2693,2.3197,2.3941,2.4689,2.5341,2.6002,2.6353,2.6353,2.649,2.6081,2.4898,2.4103,2.3087,2.1718,2.0243,1.9278,1.8967,1.8184,1.7627,1.7331,1.706,1.6895,1.6895,1.6736,1.663,1.6477,1.6477,1.6318,1.6051,1.6051,0.0,0.0,1.5891,1.5205,1.4123,1.4123,1.3157,1.1658,1.1023,1.0293,0.9509,0.0,0.0,0.0,0.0,0.0,0.0,0.0,0.0,0.0,0.0,0.0,0.0,0.0,0.0,0.0,0.0,0.0,0.0,0.0,0.0,0.0,0.0,0.0,0.0,0.0,1.8898,1.9301,1.9301,1.9301,1.9301,1.9301,1.9301,1.9301,1.9301,1.9301,1.9301,0.0,0.0,0.0,0.0,1.9301,1.9301,0.0,0.0,0.0,0.0,0.0,0.0,0.0,0.0,0.0,0.0,0.0,0.0,0.0,0.0,0.0,0.0,0.0,1.9632,1.9976,2.0342,2.0778,2.1163,2.1476,2.1586,0.0,2.1641,2.165,2.1668,2.1723,2.1714,2.1723,2.1806,2.2428,2.2931,2.2986,2.407,2.4977,2.5408,2.5837,2.6058,2.6058,2.6362,2.6136,2.5008,2.4842,2.4166,2.2615,2.1191,2.0163,1.9725,1.8649,1.7929,1.7589,1.7325,1.7232,1.7232,1.6895,1.673,1.673,1.673,1.6577,0.0,1.6324,0.0,0.0,1.5873,1.5565,1.5107,1.5089,1.4155,1.2775,1.2727,1.1463,0.9805,0.0,0.0,0.0,0.0,0.0,0.0,0.0,0.0,0.0,0.0,0.0,0.0,0.0,0.0,0.0,0.0,0.0,0.0,0.0,0.0,0.0,0.0,0.0,0.0,0.0,1.8898,1.9301,1.9301,1.9301,1.9301,1.9301,1.9301,1.9301,1.9301,1.9301,0.0,0.0,0.0,0.0,0.0,1.9301,1.9301,0.0,0.0,0.0,0.0,1.8962,1.9045,0.0,0.0,0.0,0.0,0.0,0.0,0.0,0.0,1.9595,1.9866,1.9765,0.0,1.9912,2.0003,2.0323,2.0604,0.0,2.0552,2.0888,2.12,2.1255,2.1447,2.2071,2.1897,2.1998,2.2922,2.2977,2.3123,2.3785,2.4656,2.55,2.6215,2.638,2.6444,2.6444,2.6527,2.6473,2.619,2.5348,2.4497,2.3825,2.2317,2.0956,1.9725,1.9161,1.8478,1.7635,1.7529,1.7536,1.7536,1.7424,1.7265,1.7067,1.7067,1.6902,1.6577,0.0,0.0,1.6146,1.5779,1.5403,1.5089,1.4883,1.4447,1.3806,1.3022,1.2387,1.1853,0.0,0.0,0.0,0.0,0.0,0.0,0.0,0.0,0.0,0.0,0.0,0.0,0.0,0.0,0.0,0.0,0.0,0.0,0.0,0.0,0.0,0.0,0.0,0.0,0.0,1.899,1.9301,1.9301,1.9301,1.9301,1.9301,1.9301,1.9301,1.9301,1.9301,0.0,0.0,0.0,0.0,0.0,1.9301,0.0,0.0,0.0,0.0,0.0,1.8484,1.8577,0.0,1.8971,1.9036,1.9063,0.0,0.0,0.0,0.0,1.9977,2.0628,2.0161,2.0104,2.0246,2.0555,2.0578,2.0512,2.061,2.0796,2.0922,2.0839,2.1204,2.168,2.2173,2.2121,2.2308,2.3299,2.3305,2.3526,2.4624,2.5139,2.5727,2.649,2.6591,2.6591,2.6591,2.6591,2.6591,2.6591,2.5846,2.5173,2.4783,2.3307,2.1994,2.1015,1.9836,1.8662,1.7635,1.7582,1.7582,1.7582,1.7582,1.7536,1.7378,1.7378,1.7219,1.6902,0.0,0.0,1.6277,1.5971,1.5628,1.5258,1.5115,1.4838,1.4442,1.3956,1.3318,1.2635,0.0,0.0,0.0,0.0,0.0,0.0,0.0,0.0,0.0,0.0,0.0,0.0,0.0,0.0,0.0,0.0,0.0,0.0,0.0,0.0,0.0,0.0,0.0,1.8715,1.8715,1.91,1.9301,1.9301,1.9301,1.9301,1.9301,1.9301,1.9301,1.9301,1.9301,0.0,0.0,0.0,0.0,1.9301,1.9143,0.0,0.0,0.0,0.0,0.0,0.0,0.0,0.0,1.8513,1.8669,1.877,1.9139,0.0,0.0,0.0,0.0,0.0,2.0704,2.0754,2.1123,2.1551,2.1306,2.1133,2.1679,2.1742,2.1512,2.1016,2.1646,2.2293,2.2433,2.2558,2.284,2.345,2.356,2.4042,2.5207,2.5424,2.5727,2.649,2.6591,2.6591,2.6591,2.6591,2.6564,2.6499,2.6214,2.5819,2.5307,2.4049,2.3116,2.2535,2.0672,1.9176,1.8101,1.7793,1.7582,1.7582,1.7582,1.7582,1.7582,1.7582,1.7483,1.7279,0.0,0.0,1.6368,1.6272,1.5954,1.549,1.5445,1.5141,1.479,1.5035,1.425,1.3071,0.0,0.0,0.0,0.0,0.0,0.0,0.0,0.0,0.0,0.0,0.0,0.0,0.0,0.0,0.0,0.0,0.0,0.0,0.0,0.0,0.0,0.0,0.0,1.8715,1.8715,1.91,1.9301,1.9301,1.9301,1.9301,1.9301,1.9301,1.9301,1.9301,1.9301,1.9301,0.0,0.0,0.0,1.9222,1.8487,0.0,0.0,0.0,0.0,0.0,0.0,0.0,0.0,1.8155,1.844,1.8724,1.8962,0.0,0.0,0.0,0.0,0.0,2.1693,2.2621,2.3195,2.2517,2.2867,2.3319,2.3094,2.2706,2.249,2.2725,2.2938,2.3156,2.3635,2.3961,2.4157,2.4091,2.4076,2.4413,2.5304,2.5424,2.5727,2.649,2.6591,2.6591,2.6591,2.6591,2.6444,2.614,2.6048,2.5699,2.4913,2.4659,2.3907,2.2535,2.2165,2.1497,2.0416,1.8565,1.7582,1.7582,1.7582,1.7582,1.7582,1.7582,1.7582,1.7536,0.0,1.701,1.662,1.617,1.5782,1.5471,1.5236,1.5121,1.5035,1.5083,1.4933,1.4694,0.0,0.0,0.0,0.0,0.0,0.0,0.0,0.0,0.0,0.0,0.0,0.0,0.0,0.0,0.0,0.0,0.0,0.0,0.0,0.0,0.0,0.0,1.7234,1.8066,1.8987,1.921,1.9301,1.9301,1.9301,1.9301,1.9301,1.8816,1.8607,1.8567,1.8118,1.7917,1.7917,0.0,1.7917,1.7876,0.0,0.0,0.0,0.0,0.0,0.0,0.0,0.0,0.0,0.0,1.8054,1.843,1.8756,0.0,0.0,0.0,0.0,0.0,2.1558,2.3427,2.5392,2.4803,2.4864,2.4925,2.4307,2.4188,2.4085,2.3667,2.3835,2.4158,2.4419,2.4456,2.4417,2.437,2.4251,2.4413,2.4968,2.5234,2.5644,2.6232,2.6454,2.6591,2.6591,2.638,2.6223,2.603,2.5617,2.517,2.4803,2.4565,2.4154,2.3447,2.2828,2.2266,2.1759,2.0158,1.9079,1.8454,1.8454,1.8146,1.7582,1.7582,1.7495,1.74,0.0,1.6947,1.6467,1.6236,1.5957,1.5634,1.5504,1.541,1.5315,1.5124,1.5172,1.5267,0.0,0.0,0.0,0.0,0.0,0.0,0.0,0.0,0.0,0.0,0.0,0.0,0.0,0.0,0.0,0.0,0.0,0.0,0.0,0.0,1.6006,1.5436,1.6247,1.7302,1.8647,1.8687,1.8687,1.8687,1.8687,1.8807,1.8975,1.8327,1.7997,1.7957,1.7302,1.6903,1.6698,1.6698,1.6698,1.6698,0.0,0.0,0.0,0.0,0.0,0.0,0.0,0.0,0.0,0.0,0.0,0.0,0.0,0.0,0.0,1.9612,2.1081,2.2686,2.1913,2.4011,2.6474,2.6558,2.6583,2.6414,2.6033,2.6069,2.5954,2.522,2.5314,2.5529,2.5519,2.5149,2.4906,2.4948,2.466,2.4548,2.4771,2.5041,2.5433,2.5828,2.6105,2.6307,2.6307,2.6067,2.5837,2.5745,2.5124,2.4739,2.4638,2.4376,2.4202,2.4202,2.3338,2.2878,2.2878,2.2064,2.0979,1.9591,1.9332,1.8767,1.7937,1.7666,1.7414,1.7199,1.7125,1.6804,1.6321,1.6321,1.6099,1.5784,1.5784,1.573,1.5547,1.5363,1.5404,1.554,0.0,0.0,0.0,0.0,0.0,0.0,0.0,0.0,0.0,0.0,0.0,0.0,0.0,0.0,0.0,0.0,0.0,0.0,0.0,0.0,1.5161,1.5379,1.6247,1.678,1.6895,1.6903,1.6903,1.6903,1.6903,1.7302,1.8078,1.8037,1.7997,1.7997,1.7917,1.7472,1.6698,1.6698,1.6698,1.6617,1.5801,0.0,0.0,0.0,0.0,0.0,0.0,0.0,0.0,0.0,0.0,0.0,0.0,0.0,2.0041,2.0759,2.1077,2.1629,2.3757,2.4682,2.5324,2.6576,2.7321,2.8,2.8895,2.8425,2.7954,2.8371,2.8096,2.7682,2.7468,2.6769,2.6254,2.6269,2.5698,2.5114,2.4822,2.4803,2.4968,2.5414,2.5488,2.5515,2.5515,2.5479,2.5313,2.4895,2.4812,2.4661,2.4266,2.422,2.4202,2.4202,2.4102,2.4102,2.4102,2.3994,2.287,2.0783,1.9694,1.9176,1.9065,1.7812,1.7219,1.7186,1.6854,1.656,1.6321,1.6321,1.6099,1.5784,1.5784,1.5778,1.5784,1.5784,1.5784,1.5737,0.0,0.0,0.0,0.0,0.0,0.0,0.0,0.0,0.0,0.0,0.0,0.0,0.0,0.0,0.0,0.0,0.0,0.0,0.0,0.0,1.4131,1.4289,1.4802,1.5223,1.5508,1.6302,1.6698,1.6698,1.7229,1.8085,1.9151,1.7978,1.7474,1.7507,1.6347,1.5535,1.5068,1.5068,1.5068,1.5068,1.4699,1.4689,0.0,0.0,0.0,0.0,0.0,0.0,0.0,0.0,1.7578,1.81,0.0,1.9032,2.0126,2.0021,2.0938,2.2225,2.3239,2.4578,2.5917,2.7124,2.7852,2.8378,2.876,2.9077,2.9373,2.9586,2.919,2.863,2.7939,2.7408,2.7003,2.6702,2.657,2.6159,2.5229,2.5346,2.538,2.5038,2.5277,2.5424,2.5424,2.5152,2.4941,2.4794,2.4587,2.4367,2.4211,2.4202,2.4202,2.4202,2.4202,2.4202,2.4202,2.4202,2.3795,2.292,2.1802,2.0518,1.9169,1.8497,1.7696,1.6854,1.656,1.6273,1.5999,1.5999,1.5925,1.5784,1.5784,1.5784,1.5784,1.5784,1.5784,1.5778,0.0,0.0,0.0,0.0,0.0,0.0,0.0,0.0,0.0,0.0,0.0,0.0,0.0,0.0,0.0,0.0,0.0,0.0,0.0,0.0,1.34,1.346,1.3701,1.396,1.4306,1.5235,1.597,1.6491,1.7252,1.8183,1.9277,0.0,1.7109,1.7048,1.5569,1.4606,1.4088,1.4088,1.4088,1.4088,1.4088,1.4104,0.0,0.0,0.0,0.0,0.0,0.0,0.0,0.0,1.7468,1.7899,0.0,0.0,1.9842,1.9677,2.1062,2.2712,2.3346,2.4753,2.6322,2.721,2.7993,2.8558,2.8727,2.9448,3.0182,3.0561,3.0102,2.9428,2.872,2.8319,2.7964,2.7541,2.7683,2.7379,2.6099,2.6133,2.5984,2.5067,2.5219,2.5284,2.5038,2.479,2.4633,2.4633,2.4367,2.4202,2.4202,2.4202,2.4202,2.4202,2.4202,2.4202,2.4202,2.4202,2.4202,2.4202,2.3388,2.2055,2.0246,1.9446,1.8432,1.7222,1.678,1.63,1.5784,1.5784,1.5784,1.5784,1.5784,1.5784,1.5784,1.5784,1.5784,1.5784,0.0,0.0,0.0,0.0,0.0,0.0,0.0,0.0,0.0,0.0,0.0,0.0,0.0,0.0,0.0,0.0,0.0,0.0,0.0,1.2777,1.2918,1.3186,1.3213,1.3213,1.3206,1.3494,1.4441,1.6119,1.6491,1.7147,1.8006,1.7381,1.6982,1.6673,1.6055,1.5191,1.4124,1.4082,1.4082,1.4082,1.4082,1.3908,1.3648,0.0,0.0,0.0,0.0,0.0,0.0,0.0,1.7495,1.7568,1.7944,0.0,0.0,2.0118,2.1449,2.2925,2.4396,2.5445,2.6226,2.6765,2.769,2.8655,2.9184,2.9713,3.0398,3.1488,3.0819,3.0086,3.0074,2.9737,2.9324,2.9033,2.9059,2.8656,2.7379,2.7237,2.6761,2.5479,2.5294,2.5011,2.4301,2.4202,2.4202,2.4202,2.4202,2.4202,2.4202,2.4202,2.4202,2.4202,2.4202,2.4202,2.4202,2.4202,2.4192,2.4192,2.4192,2.3578,2.2442,2.063,1.9285,1.8388,1.7604,1.6723,1.5825,1.5784,1.5784,1.5784,1.5784,1.5784,1.5784,1.5784,1.5784,1.5784,0.0,0.0,0.0,0.0,0.0,0.0,0.0,0.0,0.0,0.0,0.0,0.0,0.0,0.0,0.0,0.0,0.0,0.0,0.0,0.0,0.0,1.2565,1.3134,1.3648,0.0,0.0,1.6341,1.6507,1.6643,1.7605,0.0,1.8478,1.8087,1.7954,1.6457,1.5401,1.4609,1.4015,1.3733,1.3733,1.3733,1.368,1.3607,0.0,0.0,0.0,0.0,0.0,0.0,0.0,0.0,0.0,1.7312,0.0,0.0,1.9533,2.0757,2.2371,2.3551,2.474,2.587,2.6678,2.8005,2.9208,2.9737,3.0266,3.0735,3.1091,3.0567,2.9977,2.9605,2.975,2.9742,2.9359,2.9897,2.992,2.8702,2.8226,2.7662,2.6761,2.635,2.5829,2.506,2.4962,2.4775,2.4251,2.4202,2.4202,2.4202,2.4202,2.4202,2.4202,2.4202,2.4202,2.4202,2.3868,2.373,2.3721,2.3446,2.2858,2.2049,2.1311,2.0271,1.8914,1.7784,1.7138,1.681,1.6109,1.5784,1.5784,1.5784,1.5784,1.5784,1.5784,1.5784,1.5784,0.0,0.0,0.0,0.0,0.0,0.0,0.0,0.0,0.0,0.0,0.0,1.2536,0.0,0.0,0.0,0.0,0.0,0.0,0.0,0.0,0.0,0.0,0.0,0.0,0.0,1.5755,1.6669,0.0,0.0,0.0,0.0,1.8833,1.8402,1.8316,1.6941,1.5796,1.4871,1.4353,1.392,1.36,1.36,1.36,1.3607,0.0,0.0,0.0,0.0,0.0,0.0,0.0,0.0,0.0,1.6982,1.7896,1.9155,1.9421,2.0943,2.2799,2.4056,2.541,2.6665,2.7624,2.8751,2.9749,3.0278,3.0694,3.0922,3.0922,3.029,2.9737,2.9629,2.9701,2.9762,2.9713,3.0185,3.0352,2.9658,2.9262,2.8725,2.7735,2.7389,2.6758,2.5583,2.5237,2.4794,2.416,2.386,2.3675,2.3675,2.3675,2.3675,2.3675,2.3675,2.3675,2.3675,2.3389,2.3261,2.3261,2.3023,2.26,2.2065,2.1893,2.1131,1.9807,1.8481,1.7645,1.7232,1.6676,1.6157,1.5784,1.5784,1.5784,1.5784,1.5784,1.5784,1.5784,0.0,0.0,1.4439,1.4113,0.0,0.0,0.0,0.0,0.0,1.2551,1.2418,1.2338,0.0,0.0,0.0,1.2225,0.0,0.0,0.0,0.0,0.0,0.0,0.0,0.0,0.0,0.0,0.0,0.0,0.0,0.0,1.9311,1.8722,1.8329,1.8095,1.7358,1.6252,1.498,1.4791,1.4268,1.352,1.352,1.354,1.3608,1.403,0.0,0.0,0.0,0.0,0.0,0.0,0.0,0.0,1.7009,1.7628,1.855,1.9649,2.159,2.3683,2.5172,2.6662,2.802,2.8937,2.9665,3.023,3.0802,3.0807,3.0735,3.0735,2.9965,2.9436,2.9869,2.9593,2.946,2.9941,3.0062,3.0127,3.0198,3.0138,2.9706,2.8563,2.8329,2.7611,2.5959,2.5226,2.4646,2.411,2.3402,2.2998,2.2998,2.2951,2.2904,2.2904,2.2904,2.2904,2.2904,2.2867,2.2849,2.2849,2.2812,2.2602,2.2272,2.2263,2.1749,2.0763,1.9486,1.838,1.7419,1.7326,1.677,1.592,1.5832,1.5784,1.5784,1.5784,1.5784,1.5784,0.0,0.0,1.5031,1.5255,0.0,0.0,0.0,0.0,1.4576,1.416,1.3371,1.2629,1.2036,1.175,0.0,1.1582,1.1349,0.0,0.0,0.0,0.0,0.0,0.0,0.0,0.0,0.0,0.0,0.0,0.0,1.8315,1.9292,1.8828,1.8768,1.8966,1.7216,1.6166,1.5513,1.3913,1.3126,1.2978,1.2978,1.3086,1.3273,1.3147,1.3435,0.0,0.0,0.0,0.0,0.0,0.0,0.0,1.7725,1.8202,1.877,1.9618,2.0971,2.2525,2.376,2.539,2.7029,2.7957,2.9153,3.023,3.0802,3.0242,2.9641,2.9641,2.946,2.9208,2.8907,2.9088,2.934,2.9448,2.9821,3.0134,3.0115,2.9787,2.9468,2.9216,2.8529,2.7678,2.6666,2.6135,2.5559,2.4864,2.4127,2.3765,2.3765,2.3224,2.2904,2.2904,2.2904,2.2904,2.2904,2.2574,2.2419,0.0,2.2099,2.1906,2.1833,2.2144,2.1634,2.0414,2.0102,1.943,1.8427,1.7652,1.7185,1.6904,1.6109,1.5784,1.5784,1.5784,1.5784,1.5784,0.0,0.0,0.0,0.0,0.0,0.0,0.0,0.0,1.5156,1.4191,1.3454,1.2734,1.197,1.1603,0.0,0.0,1.1156,1.1116,0.0,0.0,0.0,0.0,0.0,0.0,0.0,0.0,0.0,0.0,0.0,1.8065,1.9301,1.9292,1.9412,1.9546,1.8285,1.7344,1.6522,1.4568,1.3575,1.3289,1.2774,1.2757,1.2973,1.2844,1.2955,1.3245,1.424,0.0,0.0,0.0,0.0,0.0,0.0,0.0,1.8701,1.963,2.0751,2.2091,2.3835,2.5233,2.6462,2.7667,2.8696,2.9536,2.9772,2.9356,2.8974,2.8927,2.8919,2.8835,2.8558,2.8739,2.8919,2.8919,2.9148,2.9412,2.9677,2.9493,2.9367,2.9404,2.8958,2.8252,2.714,2.655,2.5839,2.5013,2.4316,2.3744,2.3438,2.3049,2.2694,2.2327,2.2327,2.2327,2.2327,2.2108,2.1998,2.1998,2.1787,2.1696,2.1696,2.1906,2.1654,2.0988,2.0988,2.0439,1.9476,1.8926,1.8473,1.7924,1.6904,1.6534,1.644,1.5967,1.5784,1.5784,0.0,0.0,0.0,0.0,0.0,0.0,0.0,0.0,0.0,1.3986,1.3459,1.2888,1.2115,1.1599,1.1295,0.0,0.0,0.0,1.1295,0.0,0.0,0.0,0.0,0.0,0.0,0.0,0.0,0.0,1.7862,1.8119,1.9311,1.9586,1.9756,1.9866,1.9252,1.8455,1.7364,1.5536,1.4405,1.3754,1.2873,1.2601,1.2703,1.2703,1.2556,1.2519,1.4063,1.4601,1.4908,1.6839,0.0,0.0,0.0,0.0,1.8382,1.9511,2.0519,2.1718,2.3902,2.515,2.6186,2.7637,2.8307,2.8653,2.8507,2.8427,2.8322,2.8274,2.8391,2.851,2.851,2.851,2.851,2.851,2.851,2.8655,2.91,2.916,2.9193,2.9248,2.9169,2.8668,2.7507,2.6794,2.6022,2.5221,2.4488,2.38,2.3188,2.2925,2.253,2.1919,2.1776,2.1696,2.1696,2.1696,2.1696,2.1696,2.1696,2.1696,2.1696,2.1696,2.1696,2.1696,2.1696,2.1275,2.0529,2.0393,1.9795,1.8972,1.7971,1.7559,1.7419,1.6433,1.6062,1.6015,0.0,0.0,0.0,0.0,0.0,0.0,0.0,0.0,0.0,0.0,1.4435,1.3665,1.2633,1.1659,1.0949,1.0727,1.0673,1.0774,0.0,0.0,0.0,0.0,0.0,0.0,0.0,0.0,0.0,0.0,1.7724,1.8119,1.9292,1.9008,1.9216,1.9857,1.8439,1.7553,1.6956,1.5328,1.4201,1.3557,1.3404,1.2943,1.2365,1.2365,1.2338,1.2519,1.4063,1.4601,1.4908,1.6839,1.7495,0.0,0.0,0.0,1.782,1.8851,1.9644,2.0478,2.166,2.3897,2.6249,2.7649,2.8073,2.8107,2.808,2.7722,2.7388,2.736,2.7966,2.851,2.851,2.851,2.851,2.851,2.851,2.8534,2.8607,2.8619,2.8603,2.8635,2.8324,2.8028,2.7836,2.7341,2.6832,2.6321,2.5663,2.5073,2.4637,2.344,2.275,2.2671,2.2043,2.1696,2.1696,2.1696,2.1696,2.1696,2.1696,2.1696,2.1696,2.1696,2.1696,2.1696,2.1696,2.1642,2.1463,2.0628,2.0204,1.9977,1.8972,1.8603,1.8473,1.7458,1.7091,1.6998,0.0,0.0,0.0,0.0,0.0,0.0,0.0,0.0,0.0,0.0,0.0,1.3787,1.2702,1.1629,1.0875,1.062,1.0593,0.0,0.0,0.0,0.0,0.0,0.0,0.0,0.0,0.0,0.0,1.744,1.6798,1.7568,1.96,1.9008,1.9384,2.0506,1.9376,1.8682,1.8148,1.6169,1.5108,1.4736,1.4112,1.3688,1.3393,1.3086,1.2879,1.2912,1.3697,1.425,1.4836,1.6363,1.7162,1.7523,1.7715,0.0,0.0,0.0,1.8887,2.0032,2.2137,2.3908,2.5374,2.6546,2.6822,2.6864,2.7103,2.6975,2.6899,2.7144,2.751,2.7846,2.8122,2.8363,2.851,2.851,2.851,2.851,2.851,2.851,2.851,2.851,2.8351,2.8163,2.7921,2.7708,2.7412,2.694,2.6629,2.6091,2.5295,2.4284,2.3484,2.2803,2.2087,2.1696,2.1696,2.1696,2.1696,2.1696,2.1696,2.1696,2.1696,2.1696,2.1696,2.1696,2.1696,2.1696,2.1687,2.1266,2.1087,2.0997,2.0031,1.9658,1.9521,1.8511,1.8149,1.801,0.0,0.0,0.0,0.0,0.0,0.0,0.0,0.0,0.0,0.0,0.0,1.4092,1.3119,0.0,0.0,0.0,1.0633,0.0,0.0,0.0,0.0,0.0,0.0,0.0,0.0,0.0,1.4768,1.6358,1.5993,1.7138,1.9564,1.91,1.9723,2.1236,2.0397,1.9732,1.9024,1.7222,1.6331,1.6028,1.5242,1.4657,1.4292,1.41,1.3765,1.3473,1.387,1.4359,1.4989,1.6139,1.6902,1.7348,1.7348,1.7348,0.0,0.0,0.0,1.9589,2.2237,2.3433,2.4192,2.5273,2.5622,2.5826,2.6257,2.6332,2.6456,2.6787,2.694,2.7156,2.7464,2.799,2.8363,2.8363,2.8431,2.851,2.851,2.851,2.851,2.851,2.851,2.8391,2.8082,2.8042,2.7869,2.74,2.736,2.6928,2.5997,2.5158,2.4284,2.3266,2.2441,2.1874,2.1696,2.1696,2.1696,2.1696,2.1696,2.1696,2.1696,2.1696,2.1696,2.1696,2.1696,2.1696,2.1696,2.1696,2.1696,2.1642,2.0943,2.0673,2.0529,1.9567,1.9201,1.9018,0.0,0.0,0.0,0.0,0.0,0.0,0.0,0.0,0.0,0.0,0.0,1.4891,1.4207,1.3176,1.2083,1.1061,1.0754,0.0,0.0,0.0,0.0,0.0,0.0,0.0,0.0,1.3557,1.4283,1.4799,1.5779,1.7138,1.8779,1.9118,2.0145,2.1623,2.0808,1.9842,1.8715,1.8219,1.7562,1.6917,1.6891,1.5831,1.4394,1.5187,1.4906,1.4164,1.5068,1.5433,1.5605,1.6563,1.6901,1.6936,1.6936,1.6936,1.6936,0.0,0.0,0.0,2.0498,2.1657,2.2772,2.4203,2.4891,2.5379,2.5839,2.5937,2.5937,2.5979,2.6249,2.6528,2.6569,2.733,2.7921,2.7921,2.8243,2.851,2.851,2.851,2.851,2.851,2.851,2.8471,2.8471,2.8471,2.8311,2.7881,2.7841,2.7626,2.7144,2.6038,2.5115,2.4413,2.3309,2.2397,2.1696,2.1696,2.1696,2.1696,2.1696,2.1696,2.1696,2.1696,2.1696,2.1696,2.1696,2.1696,2.1696,2.1696,2.1696,2.1696,2.1642,2.1642,2.1508,2.0574,2.0204,2.0068,0.0,0.0,0.0,0.0,0.0,0.0,0.0,0.0,0.0,0.0,0.0,0.0,0.0,1.3665,1.2638,1.2097,1.1298,0.0,0.0,0.0,0.0,0.0,0.0,0.0,0.0,1.3217,1.3955,1.4632,1.5226,1.6358,1.7944,1.8348,1.9127,2.0182,2.0411,2.0283,1.9815,1.885,1.8343,1.8076,1.8076,1.7652,1.6936,1.6486,1.6015,1.5497,1.4829,1.5152,1.596,1.6289,1.6783,1.7284,1.7284,1.711,1.6978,1.7304,1.7944,1.8846,2.0369,2.1325,2.2193,2.3646,2.4366,2.4858,2.5327,2.5677,2.5895,2.5895,2.601,2.6093,2.6093,2.6828,2.7534,2.7841,2.8002,2.8203,2.8471,2.851,2.851,2.851,2.851,2.851,2.851,2.851,2.8431,2.8323,2.8283,2.8111,2.7667,2.6558,2.5715,2.5158,2.3604,2.2441,2.1696,2.1696,2.1696,2.1696,2.1696,2.1696,2.1696,2.1696,2.1696,2.1696,2.1696,2.1696,2.1696,2.1696,2.1696,2.1696,2.1696,2.1696,2.1651,2.132,2.1177,2.1042,0.0,0.0,0.0,1.9858,0.0,1.8737,1.7932,1.751,1.7181,1.6861,0.0,0.0,0.0,0.0,1.3462,1.2661,1.1713,1.1136,1.1136,0.0,0.0,0.0,0.0,0.0,0.0,1.2926,1.3629,1.4136,1.4907,1.6048,1.748,1.7972,1.8616,1.9408,1.9823,2.0113,2.0232,1.9604,1.9246,1.9088,1.9265,1.9065,1.8591,1.7738,1.7126,1.6542,1.5229,1.5331,1.615,1.6557,1.6987,1.743,1.7633,1.7339,1.6978,1.7339,1.7808,1.847,1.9487,2.0404,2.1398,2.2859,2.3579,2.4235,2.5196,2.5546,2.5699,2.5874,2.5895,2.5895,2.5895,2.6385,2.691,2.7383,2.7667,2.8002,2.8283,2.8391,2.851,2.851,2.851,2.851,2.851,2.851,2.851,2.851,2.851,0.0,2.8122,2.7249,2.6268,2.52,2.3647,2.2441,2.1696,2.1696,2.1696,2.1696,2.1696,2.1696,2.1696,2.1696,2.1696,2.1696,2.1696,2.1696,2.1696,2.1696,2.1696,2.1696,2.1696,2.1696,2.1696,2.1696,2.1696,2.1597,2.0517,2.0605,2.0468,2.001,1.9404,1.8889,1.8485,1.7613,1.7054,1.7226,0.0,0.0,0.0,0.0,0.0,1.2807,1.1895,1.1415,1.1409,1.1395,0.0,0.0,0.0,0.0,1.1477,1.2732,1.3369,1.3252,1.4921,1.6309,1.7382,1.8068,1.8825,1.955,1.9169,1.9321,1.9875,2.0292,2.0214,1.9939,2.0338,1.9954,1.9118,1.8925,1.8234,1.7292,1.6481,1.6205,1.636,1.7466,1.7601,1.7376,1.7909,1.7578,1.6927,1.6908,1.7279,1.7725,0.0,0.0,0.0,2.1766,2.2526,2.3422,2.533,2.5459,2.5273,2.5775,2.5884,2.5884,2.5895,2.5895,2.6021,2.6404,2.7249,2.7893,2.7893,2.8243,2.8471,2.851,2.851,2.851,2.851,2.851,2.851,2.851,2.851,2.851,2.851,2.8122,2.6869,2.4616,2.343,2.2485,2.1741,2.1687,2.1696,2.1696,2.1696,2.1696,2.1696,2.1696,2.1696,2.1696,2.1696,2.1696,2.1696,2.1696,2.1696,2.1696,2.1696,2.1696,2.1696,2.1696,2.1696,2.1696,2.0517,2.0605,2.0566,2.0449,1.9991,1.9632,1.9516,1.9003,1.8585,0.0,0.0,0.0,1.7526,1.6349,1.5117,1.398,1.2941,1.2192,1.1792,1.1543,1.1389,1.1389,1.171,1.2177,1.2751,1.3626,1.4285,1.4797,1.5975,1.6656,1.6857,1.7753,1.8385,1.876,1.9061,1.9152,1.9036,1.8823,1.9353,2.0278,1.9833,1.9998,2.0487,1.9725,1.9479,1.936,1.8391,1.8343,1.8759,1.9082,1.9146,1.9012,1.8317,1.7761,1.7275,1.6991,1.7476,1.8056,1.7783,0.0,0.0,0.0,0.0,0.0,2.2941,2.3701,2.4366,2.5196,2.5371,2.548,2.5841,2.5895,2.5937,2.6063,2.6539,2.7115,2.78,2.8002,2.8163,2.8471,2.851,2.851,2.851,2.851,2.851,0.0,2.851,2.851,2.851,2.7817,2.6723,2.5284,2.4102,2.3212,2.2485,2.1954,2.1696,2.1696,2.1696,2.1696,2.1696,2.1696,2.1696,2.1696,2.1696,2.1696,2.1696,2.1696,2.1696,2.1696,2.1696,2.1696,2.1696,2.1696,2.1696,2.1696,2.0517,2.0605,2.0664,2.081,2.0478,2.0244,2.0439,1.9941,1.9487,0.0,0.0,0.0,1.8396,1.7384,1.6284,1.5168,1.4037,1.3079,1.2318,1.1957,1.179,1.179,1.1957,1.2332,1.2863,1.3801,1.455,1.5036,1.6294,1.6921,1.6954,1.7611,1.8014,1.8109,1.8463,1.8561,1.8406,1.8007,1.8702,2.0017,2.0044,2.0475,2.1039,2.0227,2.0114,2.0158,1.9155,1.9026,1.9396,1.9798,2.0051,1.9948,1.8944,1.8449,1.8137,1.7578,1.7905,1.8374,1.7969,1.8427,1.9128,1.9591,0.0,0.0,2.2056,2.2545,2.3009,2.4142,2.458,2.4947,2.542,2.5728,2.5895,2.5895,2.6093,2.6498,2.7208,2.7626,2.8014,2.8243,2.8391,2.851,2.851,2.851,2.851,2.851,2.851,2.851,2.851,2.7857,2.6981,2.5841,2.4691,2.3681,2.2794,2.2087,2.1696,2.1696,2.1696,2.1696,2.1696,2.1696,2.1696,2.1696,2.1696,2.1696,2.1696,2.1696,2.1696,2.1696,2.1696,2.1696,2.1696,2.1696,2.1696,2.1696,0.0,2.0605,2.0742,2.1112,2.0908,2.0791,2.124,2.0596,2.0061,0.0,1.9523,1.9198,1.9078,1.8615,1.7828,1.6536,1.5277,1.4177,1.3244,1.2699,1.2442,1.2489,1.2415,1.2415,1.2519,1.3764,1.4539,1.4719,1.6257,1.7154,1.7428,1.7644,1.7706,1.7706,1.7706,1.7858,1.8026,1.7761,1.8301,1.9408,2.0453,2.1022,2.1165,2.0615,2.044,2.0393,1.943,1.9117,1.9247,2.0158,2.05,2.0448,1.9677,1.9402,1.9228,1.8476,1.854,1.876,1.8329,1.8611,1.9201,2.0014,2.0007,0.0,2.1829,2.1677,2.1534,2.2725,2.3474,2.4053,2.4651,2.5262,2.5724,2.5753,2.583,2.6052,2.6445,2.7208,2.776,2.7893,2.8203,2.8431,2.851,2.851,2.851,2.851,2.851,2.851,2.851,2.8122,2.7423,2.6404,2.5295,2.4155,2.3013,2.2264,2.182,2.1741,2.1687,2.1696,2.1696,2.1696,2.1696,2.1696,2.1696,2.1696,2.1696,2.1696,2.1696,2.1696,2.1696,2.1696,2.1696,2.1696,2.1696,2.1696,2.0517,2.0605,2.0742,2.1112,2.1122,2.125,2.1689,2.1611,2.1504,2.1463,2.1043,2.0907,2.1257,1.997,1.9067,1.9053,1.6946,1.5638,1.5683,1.4132,1.3338,1.3659,1.3112,1.3149,1.3905,1.4787,1.5564,1.62,1.726,1.7746,1.7668,1.7857,1.7862,1.7706,1.7862,1.7817,1.7656,1.8397,1.8927,1.9315,1.9559,2.0576,2.1859,2.1415,2.1473,2.1678,2.1275,2.1132,2.1141,2.1365,2.1225,2.0906,2.0429,2.0021,1.9714,1.9219,1.9366,1.9564,1.9191,1.9399,1.9617,1.9147,1.9534,0.0,1.9731,2.0165,2.0785,2.1524,2.1763,2.2243,2.354,2.4206,2.4602,2.4745,2.5404,2.6052,2.6445,2.6652,2.7033,2.78,2.7962,2.8122,2.8471,2.851,2.851,2.851,2.851,2.851,2.851,2.8122,2.78,2.7586,2.6445,2.539,2.4413,2.3531,2.2721,2.2008,2.1785,2.1696,2.1696,2.1696,2.1696,2.1696,2.1696,2.1696,2.1696,2.1696,2.1696,2.1696,2.1696,2.1696,2.1696,2.1696,2.1696,2.1696,2.0556,2.0605,2.0811,2.1445,2.1562,2.1777,2.2412,2.2334,2.2197,2.2197,2.2012,2.1875,2.1885,2.13,2.057,1.9766,1.8385,1.7291,1.6671,1.5366,1.4677,1.49,1.398,1.3861,1.4716,1.5251,1.5851,1.6585,1.7545,1.794,1.7862,1.794,1.8163,1.8472,1.8159,1.8265,1.8713,1.8785,1.9168,1.9783,2.0123,2.0929,2.1964,2.1954,2.2077,2.222,2.2087,2.1998,2.1874,2.1741,2.123,2.0713,2.0762,2.0463,1.9961,1.9377,1.9826,2.0303,1.9439,1.9691,2.0085,1.9714,1.9657,0.0,0.0,1.9497,1.9812,2.0707,2.0859,2.1243,2.2613,2.3002,2.3266,2.3749,2.4262,2.4713,2.5233,2.6195,2.7021,2.7493,2.795,2.8271,2.8471,2.851,2.851,2.851,2.851,2.851,2.851,2.8323,2.8122,2.7933,2.6981,2.6174,2.5505,2.4221,2.3323,2.2721,2.2167,2.183,2.1696,2.1696,2.1696,2.1696,2.1696,2.1696,2.1696,2.1696,2.1696,2.1696,2.1696,2.1696,2.1696,2.1696,2.1696,2.1696,2.0644,2.0605,2.086,2.1621,2.1836,2.2139,2.2857,2.275,2.2637,2.2637,2.2705,2.2627,2.2285,2.2559,2.2149,2.0671,1.9943,1.9088,1.7956,1.6877,1.6316,1.6351,1.521,1.488,1.5513,1.5784,1.6131,1.6671,1.7579,1.8008,1.8008,1.8008,1.8418,1.9131,1.8525,1.8867,1.9873,1.9268,1.9595,2.0553,2.1122,2.1474,2.175,2.221,2.2328,2.2284,2.2369,2.2264,2.2052,2.1874,2.1132,2.0432,2.1012,2.0775,2.0183,1.9538,2.0105,2.0666,1.9401,1.9756,2.0406,2.0262,1.9957,1.9659,0.0,0.0,0.0,1.9989,2.0132,2.0427,2.1614,2.1805,2.203,2.2705,2.3027,2.3337,2.369,2.5368,2.6699,2.7047,2.7839,2.8391,2.8471,2.8414,2.8402,2.8498,2.8414,2.8402,2.8498,2.851,2.8351,2.8054,2.7429,2.6876,2.6393,2.4904,2.392,2.3521,2.2564,2.2008,2.1785,2.1741,2.1696,2.1696,2.1696,2.1696,2.1696,2.1696,2.1696,2.1696,2.1696,2.1696,2.1696,2.1696,2.1696,2.1696,2.076,2.0605,2.0723,2.1181,2.1631,2.2041,2.251,2.2818,2.3023,2.3023,2.3398,2.3623,2.3574,2.3613,2.3705,2.3842,2.2111,2.1062,2.13,1.9209,1.8088,1.8444,1.7313,1.6693,1.6805,1.7116,1.7132,1.6862,1.7613,1.8008,1.8008,1.8008,1.8227,1.8685,1.9014,1.9424,1.9932,2.0225,2.0889,2.1707,2.1804,2.1604,2.1347,2.1997,2.2074,2.1906,2.2265,2.2264,2.2097,2.2052,2.1266,2.0475,2.1355,2.1006,2.0286,2.02,2.029,2.018,1.9141,1.9579,2.0153,1.9445,2.0064,2.0539,1.9164,0.0,1.9173,1.8962,0.0,1.9197,2.0243,0.0,0.0,2.1397,2.2423,2.2999,2.249,2.3491,2.4869,2.6382,2.7399,2.8122,2.8471,2.8089,2.8005,2.8474,2.8077,2.8017,2.8486,2.851,2.8471,2.8431,2.8339,2.7926,2.7092,2.5913,2.4851,2.4006,2.274,2.2097,2.2052,2.183,2.1696,2.1696,2.1696,2.1696,2.1696,2.1696,2.1696,2.1696,2.1696,2.1696,2.1696,2.1696,2.1696,2.1696,2.0799,2.0605,2.0742,2.1112,2.1346,2.1728,2.2412,2.3086,2.3516,2.3516,2.3682,2.3984,2.4519,2.4082,2.3965,2.4385,2.3368,2.2601,2.2253,2.1034,2.031,2.0183,1.8808,1.8232,1.8685,1.8156,1.8016,1.8304,1.8311,0.0,0.0,0.0,1.8867,1.9756,1.9678,2.0312,2.1406,2.1084,2.1172,2.1533,2.1787,2.1554,2.1163,2.2306,2.2664,2.2553,2.2595,2.2583,2.2495,2.2318,2.1481,2.0656,2.1758,2.1257,2.0339,2.0421,2.0385,2.0068,1.9063,1.9521,2.003,1.893,1.9323,1.975,1.8836,1.858,1.8714,1.9283,0.0,0.0,0.0,0.0,0.0,0.0,2.09,2.1279,2.1213,2.2301,2.3544,2.4836,0.0,0.0,2.7939,2.781,2.7906,2.8474,2.7978,2.7906,2.8474,2.851,2.851,2.851,2.851,2.8299,2.7978,2.6453,2.54,2.4893,2.3299,2.2407,2.2264,2.2052,2.1919,2.1919,2.1785,2.1696,2.1696,2.1696,2.1696,2.1696,2.1696,2.1696,2.1696,2.1696,2.1696,2.1696,2.147,2.1101,2.1004,2.1303,2.137,2.1697,2.2715,2.3389,2.3828,2.3945,2.4072,2.4424,2.5166,2.4805,2.4629,2.4932,2.457,2.3955,2.3086,2.2529,2.2139,2.1902,2.0459,1.9906,2.0459,1.9383,1.9003,1.9287,1.8965,1.8783,0.0,0.0,1.9199,2.0253,2.0127,2.0859,2.2139,2.1707,2.1609,2.1736,2.1973,2.1841,2.162,2.2528,2.296,2.3091,2.2925,2.2847,2.275,2.2574,2.1695,0.0,2.2024,2.1526,2.0512,2.0683,2.0602,2.0204,1.888,1.9239,1.9632,1.8142,1.828,1.8667,1.8196,1.7911,1.8024,1.8933,1.8756,0.0,0.0,0.0,1.8958,1.9425,0.0,2.0183,2.0312,2.1292,2.2352,2.3392,0.0,0.0,0.0,2.6999,2.7317,2.8206,0.0,2.7762,2.8474,2.851,2.851,2.851,2.851,2.8391,2.8139,2.6577,2.561,2.52,2.3604,2.2706,2.2485,2.223,2.2097,2.2097,2.183,2.1696,2.1696,2.1696,2.1696,2.1696,2.1696,2.1696,2.1696,2.1696,2.1696,2.1696,2.3154,2.2286,2.1766,2.1787,2.184,2.2285,2.3555,2.3769,2.3935,2.4346,2.4766,2.5205,2.5615,2.6074,2.6309,2.6328,2.5928,2.5255,2.4414,2.352,2.3237,2.3691,2.25,2.1816,2.1826,2.0967,2.0117,1.9287,1.9277,1.9268,0.0,0.0,0.0,0.0,2.0224,2.081,2.1288,2.2129,2.2662,2.3003,2.2646,2.2682,2.295,2.2428,2.2577,2.3091,2.3091,0.0,0.0,2.2794,2.1971,0.0,0.0,0.0,0.0,0.0,0.0,0.0,0.0,0.0,0.0,1.6832,0.0,1.7572,1.6915,1.6961,1.7157,1.7165,1.7418,1.7648,1.7672,1.845,1.8939,1.853,1.9752,0.0,0.0,2.0351,2.1144,2.2412,2.3726,2.4831,0.0,2.5298,2.5765,0.0,2.7222,0.0,2.845,2.851,2.851,2.851,2.851,2.8099,2.7267,2.6287,2.5368,2.4541,2.3353,2.2803,2.2759,2.2318,2.2097,2.2097,2.183,2.1696,2.1696,2.1696,2.1696,2.1696,2.1696,2.1696,2.1696,2.1696,2.1696,2.1696,2.5512,2.4673,2.35,2.1922,2.164,2.205,2.3218,2.3613,2.415,2.5109,2.5166,2.5615,2.6875,2.6377,2.6191,2.6758,2.6103,2.5478,2.4893,2.458,2.4355,2.4209,2.3525,2.3018,2.2787,2.2158,2.1435,2.0576,2.0283,1.999,0.0,0.0,0.0,0.0,2.0742,2.1406,2.2119,2.2643,2.2808,2.2672,2.2568,2.2721,2.3081,0.0,2.293,2.3091,2.3091,2.3057,0.0,2.3013,2.2652,2.229,2.274,2.2422,2.1971,2.2157,2.1641,0.0,0.0,0.0,1.978,1.7468,0.0,0.0,0.0,0.0,1.641,1.6996,1.7364,1.7609,1.7609,1.7869,1.8054,1.7881,1.8278,1.8496,0.0,1.8779,1.9781,2.1078,2.2442,2.3552,2.4342,0.0,0.0,2.5939,2.5554,0.0,0.0,2.7296,2.7644,2.7644,2.8179,2.8099,2.7226,2.6287,2.5368,2.4498,2.3484,2.3013,2.3013,2.2706,2.2539,2.2539,2.2141,2.1963,2.1963,2.1776,2.1696,2.1741,2.1919,2.1963,2.1919,2.1785,2.1696,2.1696,2.7052,2.635,2.5147,2.3174,2.2585,2.2683,2.3614,2.4238,2.4928,2.584,2.585,2.6191,2.7314,2.6689,2.6357,2.6758,2.6289,2.5781,2.5332,2.5156,2.5019,2.4893,2.4326,2.3887,2.3613,2.3037,2.2324,2.1465,2.1025,2.0576,0.0,0.0,0.0,0.0,2.0801,2.1396,2.2058,2.2789,2.2945,2.2691,2.2691,2.2857,2.3091,0.0,2.3091,2.3091,0.0,2.3091,2.3091,2.3091,2.3013,2.2925,2.3057,2.2872,2.2624,2.2664,2.2151,2.1394,2.08,2.0624,0.0,1.7954,1.789,0.0,1.6407,0.0,1.6512,0.0,1.7038,1.7228,1.7228,1.7441,1.7539,1.7414,1.7624,1.7813,0.0,1.8426,1.9271,2.045,2.1348,2.2221,2.2998,2.3063,2.3528,2.4843,2.4585,2.4825,0.0,0.0,2.6712,2.6712,2.7592,2.747,2.6257,2.5955,2.52,2.3983,2.3387,2.3091,2.3091,2.2882,2.2803,2.2803,2.2397,2.223,2.2185,2.1998,2.1954,2.1954,2.2132,2.223,2.2185,2.1919,2.1785,2.1696,2.7813,2.737,2.6693,2.5485,2.4522,2.4132,2.4784,2.5563,2.6122,2.6407,2.6768,2.7021,2.7041,2.7021,2.6846,2.6426,2.6367,2.6182,2.5713,2.5332,2.5293,2.5674,2.4884,2.4473,2.4453,2.3578,2.275,2.1953,2.1484,2.1035,0.0,0.0,0.0,1.9961,2.04,2.084,2.1307,2.2565,2.3091,2.3091,2.3091,2.3091,2.3091,2.3091,2.3091,2.3091,2.3091,2.3091,2.3091,2.3091,2.3091,2.3091,2.3091,2.3081,2.2984,2.2627,2.25,2.2119,2.0525,2.0078,1.9736,1.8288,0.0,0.0,0.0,0.0,1.7387,0.0,0.0,0.0,1.6676,1.7169,1.7491,1.7067,1.7672,1.8452,1.9172,1.9277,1.9634,2.0547,2.0644,2.0925,2.169,2.1749,2.2478,2.4136,2.4291,2.4664,0.0,0.0,2.5714,2.5735,2.6629,2.6299,2.4541,2.5326,2.4861,2.3091,2.3091,2.3091,2.3091,2.2882,2.2794,2.2803,2.253,2.2441,2.2441,2.2397,2.2397,2.2397,2.2388,2.2441,2.2397,2.2185,2.1963,2.1741,2.9781,2.9548,2.8962,2.7999,2.5913,2.4807,2.6159,2.5643,2.5549,2.672,2.6943,2.7139,2.7461,2.7207,2.6846,2.6426,2.6094,2.581,2.5693,2.5586,2.5567,2.5684,2.5469,2.5244,2.4912,2.4365,2.3672,2.2779,2.208,2.1494,2.1045,0.0,0.0,2.0458,2.0859,2.1309,2.1787,2.2691,2.3091,2.3091,2.3091,2.3091,2.3091,0.0,2.3091,2.3091,2.3091,2.3091,2.3091,2.3091,2.3091,2.3091,2.3091,2.2877,2.2613,2.2549,2.2295,2.198,2.1521,2.14,2.1112,1.9793,1.9364,1.8957,0.0,0.0,0.0,0.0,0.0,0.0,0.0,0.0,1.7666,1.6814,1.6859,1.7451,1.893,1.9173,1.9758,2.137,2.126,2.1007,2.0935,2.1174,2.167,2.2473,2.2554,2.2895,2.376,0.0,0.0,2.4819,2.5704,2.5621,2.4498,2.4701,2.4241,2.3091,2.3091,2.3091,2.3091,2.3057,2.3013,2.3013,2.2794,2.2706,2.2662,2.2485,2.2397,2.2441,2.2618,2.2706,2.2671,2.2397,2.2176,2.2008,3.0846,3.1005,3.0851,3.0362,2.8436,2.7119,2.7437,2.6552,2.6129,2.7048,2.7229,2.7246,2.7119,2.7051,2.6768,2.6162,2.583,2.5693,2.5693,2.5693,2.5693,2.5693,2.5693,2.5567,2.5361,2.4746,2.4092,2.3428,2.2393,2.166,2.1181,2.0332,2.0146,2.0625,2.1035,2.1475,2.1943,2.2783,2.3091,2.3091,2.3091,2.3091,0.0,2.3091,2.3091,2.3091,2.3091,2.3091,2.3091,2.3091,2.3091,2.3091,2.3091,2.2808,2.248,2.2295,2.1934,2.1562,2.1357,2.1349,2.1178,2.0442,2.0283,2.0011,1.8935,1.898,1.9204,0.0,0.0,0.0,0.0,0.0,1.7911,1.7235,1.7101,1.7713,1.9495,1.9758,2.0219,2.1457,2.1553,2.1269,2.0664,2.0791,2.1123,2.1562,2.1777,2.2168,0.0,0.0,0.0,2.3897,2.4744,2.4776,2.3907,2.4284,2.4026,2.3091,2.3091,2.3091,2.3091,2.3091,2.3091,2.3091,2.2969,2.2925,2.2925,2.2784,2.2706,2.2706,2.2882,2.2925,2.2925,2.275,2.2485,2.223,3.1512,3.2051,3.2403,3.234,3.1304,3.0137,2.9088,2.7969,2.7342,2.753,2.772,2.7525,2.6663,2.6898,2.672,2.581,2.5732,2.5732,2.5693,2.5693,2.5693,2.5693,2.5693,2.5693,2.5693,2.4873,2.4238,2.3867,2.2539,2.1689,2.1259,2.042,2.0205,2.0625,2.1035,2.1504,2.2021,2.2769,2.3091,2.3091,2.3091,2.3091,2.3091,2.3091,2.3091,2.3091,2.3091,2.3091,2.3091,2.3091,2.3091,2.3091,2.3091,2.2769,2.2353,2.1992,2.1533,2.1064,2.0713,2.0605,2.0605,2.0605,2.0859,2.0902,2.0077,2.0218,2.0385,1.9904,1.9843,1.9991,0.0,0.0,1.841,1.801,1.8041,1.8737,2.048,2.0743,2.0899,2.1324,2.1689,0.0,2.0772,2.0742,2.0879,2.1171,2.1582,2.2012,0.0,0.0,0.0,2.3091,2.3897,2.3897,2.3091,0.0,2.3907,2.3091,2.3091,2.3091,2.3091,2.3091,2.3091,2.3091,2.3091,2.3091,2.3091,2.3091,2.3091,2.3091,2.3091,2.3091,2.3091,2.3091,2.2828,2.2441,3.2667,3.3219,3.3458,3.3006,3.2445,3.2053,3.2204,2.985,2.8077,2.8256,2.8645,2.8523,2.7652,2.7622,2.7212,2.6131,2.6052,2.5965,2.5684,2.5693,2.5693,2.5693,2.5693,2.5693,2.5693,2.4873,2.4385,2.4307,2.2685,2.1846,2.1748,2.0909,2.0537,2.0625,2.1035,2.1629,2.2432,2.2886,0.0,2.3091,2.3091,2.3091,2.3091,2.3091,2.3091,2.3091,2.3091,2.3091,2.3091,2.3091,2.3091,2.3091,2.3091,2.2617,2.1982,2.1904,2.1318,2.0703,2.0625,2.0605,2.0605,2.0605,2.0664,2.0644,2.0517,2.0777,2.1034,2.0938,2.1234,2.1386,2.1005,0.0,0.0,1.875,1.927,2.0169,2.1342,2.1528,2.1696,2.2207,2.2051,2.168,2.1132,2.1445,2.1533,2.122,2.1268,2.1689,0.0,0.0,0.0,0.0,2.3266,0.0,0.0,0.0,2.3266,2.3091,2.3091,2.3091,2.3091,2.3091,2.3091,2.3091,2.3091,2.3091,2.3091,2.3091,2.3091,2.3091,2.3091,2.3091,2.3091,2.3091,2.3047,2.2925,3.3872,3.4148,3.4248,3.3972,3.3526,3.3296,3.3549,3.1991,3.0497,2.9627,2.9116,2.8458,2.7573,2.7683,2.7402,2.6373,2.6304,2.6255,2.611,2.5965,2.5917,2.5917,2.5781,2.5693,2.5693,2.5088,2.4639,2.4414,2.3164,2.2324,2.1875,2.1221,2.0791,2.0635,2.1269,2.2041,2.2808,0.0,0.0,2.3091,2.3091,2.3091,2.3091,2.3091,2.3091,2.3091,2.3091,2.3091,2.3091,2.3091,2.3091,2.3091,2.3091,2.2672,2.2168,2.1953,2.1426,2.0859,2.0664,2.0605,2.0605,2.0605,2.0605,2.0605,2.0605,2.0732,2.0957,2.1142,2.1356,2.1383,2.085,2.0717,0.0,0.0,0.0,2.1329,2.228,2.2422,2.237,2.2223,2.2197,2.1865,2.0977,2.1289,2.1367,2.0918,2.1064,2.1473,0.0,0.0,0.0,0.0,0.0,0.0,0.0,0.0,0.0,2.3091,2.3091,2.3091,2.3091,2.3091,2.3091,2.3091,2.3091,2.3091,2.3091,2.3091,2.3091,2.3091,2.3091,2.3091,2.3091,2.3091,2.3091,2.3047,3.4856,3.4856,3.4818,3.4738,3.4509,3.4337,3.4337,3.3859,3.2952,3.1312,2.9882,2.8727,2.7916,2.7811,2.751,2.6673,2.6602,2.6544,2.6496,2.6294,2.6197,2.6197,2.5965,2.5878,2.5878,2.5446,2.4957,2.447,2.3619,2.2773,0.0,2.1572,2.1191,2.0918,2.167,0.0,0.0,0.0,2.3091,2.3091,2.3091,2.3091,2.3091,2.3091,2.3091,2.3091,2.3091,2.3091,2.3091,2.3091,2.3091,2.3091,2.3091,2.2808,2.2451,2.2119,2.1709,2.1279,2.083,2.0752,2.0723,2.0625,2.0605,2.0605,2.0605,2.0605,2.0703,2.1016,2.1132,2.1005,2.0403,2.0906,0.0,0.0,0.0,2.228,2.3003,2.3091,2.2818,2.2109,2.2236,2.1943,2.081,0.0,2.0947,2.0635,0.0,2.1318,2.1855,0.0,0.0,0.0,0.0,2.3091,2.3091,0.0,2.3091,2.3091,2.3091,2.3091,2.3091,2.3091,2.3091,2.3091,2.3091,2.3091,2.3091,2.3091,2.3091,2.3091,2.3091,2.3091,2.3091,2.3091,2.3091,2.3047,3.542,3.542,3.5257,3.4768,3.5086,3.5356,3.5356,3.4977,3.4215,3.3082,3.1628,3.0497,2.9965,2.8722,2.7606,2.6941,2.6853,2.6747,2.6496,2.6496,2.6448,2.6448,2.6448,2.6458,2.6458,2.5779,2.5238,2.4756,0.0,2.2867,0.0,2.2021,2.1807,2.1787,0.0,0.0,0.0,2.2935,2.3091,2.3091,2.3091,2.3091,2.3091,2.3091,2.3091,2.3091,2.3091,2.3091,2.3091,2.3091,2.3091,2.3091,2.3091,2.2808,2.251,2.2461,2.2148,2.1728,2.1249,2.1132,2.1074,2.0703,2.0605,2.0605,2.0605,2.0605,2.0615,2.0664,2.0947,2.0909,2.0034,2.1235,2.2074,0.0,0.0,0.0,2.3101,2.3091,2.2925,2.251,2.2158,2.1738,2.1181,2.084,0.0,0.0,2.0644,2.1036,2.1846,0.0,0.0,2.3071,0.0,2.3091,2.3091,2.3091,2.3091,2.3091,2.3091,2.3091,2.3091,2.3091,2.3091,2.3091,2.3091,2.3091,2.3091,2.3091,2.3091,2.3091,2.3091,2.3091,2.3091,2.3091,2.3091,2.3057,3.6031,3.5768,3.5533,3.568,3.5617,0.0,0.0,3.5876,3.5619,3.5174,3.345,3.1991,3.1179,3.0007,2.893,2.8062,2.7452,2.7071,2.6976,2.6842,2.6747,2.6747,2.6602,2.6496,2.6496,2.623,2.5872,0.0,0.0,0.0,2.3106,2.2503,2.2266,2.2266,0.0,2.2613,2.2857,2.3023,2.3091,2.3091,2.3091,2.3091,2.3091,2.3091,2.3091,2.3091,2.3091,2.3091,2.3091,2.3091,2.3091,2.3091,2.3091,2.2984,2.2789,2.2588,2.2393,2.2168,2.1738,2.1395,2.1151,2.1016,2.0762,2.0605,2.0605,2.0605,2.0605,2.0605,2.0752,2.0712,2.0346,2.1086,2.1702,0.0,0.0,0.0,0.0,2.3091,2.2945,2.2568,2.2139,2.1719,2.1239,2.083,0.0,0.0,2.0752,2.0879,2.1465,0.0,0.0,2.2701,0.0,2.3091,2.3091,2.3091,2.3091,2.3091,2.3091,2.3091,2.3091,2.3091,2.3091,2.3091,2.3091,2.3091,2.3091,2.3091,2.3091,2.3091,2.3091,2.3091,2.3091,2.3091,2.3091,2.3101,3.6405,0.0,3.5906,0.0,3.6044,3.5918,3.6342,3.6405,3.6405,3.6405,3.5078,3.3701,3.2521,3.1247,3.0024,2.9033,2.8214,2.7584,2.7309,2.7129,2.7034,2.7034,2.6832,0.0,2.6736,2.6651,2.637,2.5916,2.5371,0.0,2.3769,2.3159,2.2867,0.0,2.2834,2.2948,2.3232,2.344,2.3517,2.3517,2.381,2.3897,2.3897,2.3897,2.3897,2.3854,2.3604,2.3517,2.3474,2.3178,2.3091,2.3091,2.3091,2.3091,2.3033,2.274,2.2695,2.2607,2.2187,2.1846,2.1512,2.1259,2.0996,2.0772,2.0635,2.0605,2.0605,2.0605,2.0605,2.0605,2.0605,2.1035,2.1523,2.1836,0.0,0.0,0.0,2.3091,2.2945,2.2568,2.2139,2.1768,2.1455,2.1025,0.0,0.0,2.1133,2.1143,2.1541,0.0,0.0,0.0,0.0,0.0,0.0,2.3091,2.3091,2.3091,2.3091,2.3091,2.3091,2.3091,2.3091,2.3091,2.3091,2.3091,2.3091,2.3091,2.3091,2.3091,2.3091,2.3091,2.3091,2.3091,2.3091,2.3091,3.6405,3.6405,3.6405,3.6405,3.6405,3.6405,3.6405,3.6405,3.6405,3.6405,3.6358,3.5802,3.4219,3.223,3.0602,2.9577,2.8997,2.8315,2.7357,2.7309,2.7309,0.0,0.0,2.7309,2.7309,2.7034,2.6666,2.6222,0.0,0.0,2.4494,2.3998,2.3787,2.3787,2.358,2.3493,2.3547,2.4209,2.4498,2.4584,2.5411,2.5777,2.5777,2.5777,2.5777,2.5652,2.4787,2.4498,2.4327,2.3396,2.3091,2.3091,2.3091,2.3091,2.3091,2.3091,2.3091,2.2994,2.2617,2.25,2.2295,2.1405,2.119,2.1073,2.0703,2.0605,2.0605,2.0605,2.0605,2.0605,2.0605,2.1319,2.1875,2.1885,0.0,0.0,0.0,2.3091,2.2945,2.2568,2.2139,2.1885,2.1875,2.1484,0.0,0.0,0.0,2.2051,2.2471,0.0,0.0,2.3062,2.3091,0.0,2.3091,2.3091,2.3091,2.3091,2.3091,2.3091,2.3091,2.3091,2.3091,2.3091,2.3091,2.3091,2.3091,2.3091,2.3091,2.3091,2.3091,2.3091,2.3091,2.3091,2.3091,2.3091,3.6405,3.6405,3.6405,3.6405,3.6405,3.6405,3.6405,3.6405,3.6405,3.6405,3.6405,3.6188,3.5717,3.3807,3.2143,0.0,3.0171,2.9578,0.0,2.9268,2.8991,2.8269,2.8269,2.794,2.7309,2.7214,2.7094,2.694,0.0,0.0,0.0,2.4364,2.4088,2.3797,2.3711,2.3711,2.3754,2.4563,2.4819,2.4787,2.5641,2.5933,2.5777,2.5777,2.5777,2.5746,2.5495,2.5368,2.5326,2.5031,2.4946,2.4946,2.4946,2.4102,2.3091,2.3091,2.3091,2.3062,2.2925,2.2734,2.2451,2.2178,2.1894,2.1562,2.1123,2.0781,2.0605,2.0605,2.0605,2.0693,2.0967,2.125,2.1631,2.2217,2.2539,0.0,2.3052,0.0,2.3042,2.2916,2.2568,2.2314,2.2314,2.1924,0.0,0.0,0.0,0.0,0.0,0.0,0.0,0.0,2.2945,0.0,2.3091,2.3091,2.3091,2.3091,2.3091,2.3091,2.3091,2.3091,2.3091,2.3091,2.3091,2.3091,2.3091,2.3091,2.3091,2.3091,2.3091,2.3091,2.3091,2.3091,2.3091,2.3091,3.6405,3.6405,3.6405,3.6405,3.6405,3.6405,3.6405,3.6405,3.6405,3.6405,3.6405,3.6254,3.5793,3.4598,0.0,3.2319,3.1516,3.0774,3.0227,3.0399,3.0137,2.9325,2.9268,2.8991,2.8398,2.8398,0.0,2.8398,2.7359,2.6256,2.5015,2.4862,2.4493,2.4057,2.4337,2.4456,2.4498,2.5641,2.6058,2.5986,2.6883,2.7128,2.6935,2.6935,2.6864,2.6782,2.6453,2.6329,2.6287,2.5902,2.5777,2.5777,2.5777,2.5031,2.4102,2.4102,2.3637,2.3178,2.3517,2.3199,2.2672,2.2549,2.2314,2.1963,2.1327,2.1016,2.0762,2.0635,2.0605,2.0703,2.1112,2.1327,2.1709,2.2402,2.2646,2.2789,2.3062,0.0,2.3033,2.2877,0.0,0.0,0.0,2.2275,2.2187,0.0,0.0,0.0,0.0,0.0,0.0,2.2744,2.2955,0.0,2.3091,2.3091,2.3091,2.3091,2.3091,2.3091,2.3091,2.3091,2.3091,2.3091,2.3091,2.3091,2.3091,2.3091,2.3091,2.3091,2.3091,2.3091,2.3091,2.3091,2.3091,2.3091,3.6405,3.6405,3.6405,0.0,3.6405,0.0,3.6405,3.6405,3.6405,3.6405,3.6405,3.6003,3.4901,3.4705,3.4326,3.3429,0.0,0.0,0.0,3.0939,3.0939,3.0375,3.0352,3.0295,3.0215,3.0215,3.0215,3.0215,2.8846,2.7491,2.6132,2.5649,2.5201,2.4795,2.5348,2.561,2.5694,2.7221,2.7862,2.7938,2.8812,2.9086,2.8952,2.8952,2.8833,2.8527,2.7737,2.7452,2.7277,2.6429,2.6126,2.6085,2.6052,2.5999,2.5915,2.583,2.4606,2.3474,2.4284,2.3864,2.3081,2.2656,2.2539,2.2305,2.1463,2.1259,2.1162,2.0781,2.0693,2.0791,2.12,2.165,2.207,2.249,2.2838,2.3091,2.3091,2.3091,2.2955,0.0,0.0,0.0,0.0,2.2559,2.2705,0.0,0.0,0.0,0.0,0.0,2.2691,2.3081,2.3091,2.3091,2.3091,2.3091,2.3135,2.3178,2.3178,2.3178,2.3178,2.3135,2.3091,2.3091,2.3091,2.3091,2.3091,2.3091,2.3091,2.3091,2.3091,2.3091,2.3091,2.3091,2.3091,2.3091,0.0,0.0,3.6405,3.6405,3.6405,3.6405,3.6405,3.6405,3.6405,3.6405,3.6405,3.6107,3.5382,3.4931,3.446,3.3799,3.3252,3.2978,3.3042,3.3133,3.2808,3.192,3.1862,3.1368,3.0215,3.0215,3.0215,3.0215,2.9863,2.9319,2.8644,2.8105,2.7622,2.715,2.687,2.673,2.6771,2.7879,2.8502,2.8802,2.9665,3.0152,3.0307,3.0307,3.0319,3.0237,3.0019,2.9801,2.9594,2.9374,2.9207,2.9022,2.8592,2.7997,2.725,2.6148,2.5484,2.5073,2.4616,2.4327,2.3963,2.3138,2.2711,2.2461,2.2256,2.1963,2.1709,2.1592,2.1572,2.1709,2.2129,2.2295,2.25,2.2877,2.3033,2.3091,2.3091,2.3091,2.3062,0.0,2.2945,2.2945,2.2945,2.2945,2.2857,0.0,0.0,0.0,0.0,2.2828,2.2994,2.3091,2.3091,2.3091,2.3091,2.3091,2.3484,2.4155,2.4155,2.4155,2.4155,2.344,2.3091,2.3091,2.3091,2.3091,2.3091,2.3091,2.3091,2.3091,2.3091,2.3091,2.3091,2.3091,2.3091,2.3091,3.6405,3.6405,3.6405,3.6405,3.6405,3.6405,3.6405,3.6405,3.6405,3.6405,3.6405,3.6157,3.5558,3.5232,3.4731,3.3972,3.3621,3.347,3.352,3.3759,3.3664,3.3125,3.3081,3.2832,3.2256,3.2244,3.1886,3.1231,3.0963,3.0398,2.9489,2.9213,2.8663,2.8004,2.8087,2.7981,2.7799,2.8712,2.9224,2.9413,2.9863,3.0117,3.0177,3.0477,3.0507,3.0462,3.0696,3.0687,3.0563,3.0563,3.0533,3.036,3.0068,2.967,2.9053,2.8028,2.6798,2.5704,2.52,2.4872,2.4456,2.3614,2.3185,2.2926,2.2856,2.2629,2.2453,2.2264,2.2215,2.2344,2.2737,2.2817,2.2913,2.325,2.3276,2.3232,2.3135,2.3091,0.0,2.3091,2.3091,2.3091,2.3091,2.3091,2.3003,2.2769,2.2964,0.0,2.2812,2.2974,2.3091,2.3091,2.3091,2.3091,2.3091,2.3091,2.3767,2.5073,2.4241,2.4069,2.4456,2.3517,2.3091,2.3091,2.3091,2.3091,2.3091,2.3091,2.3091,2.3091,2.3091,2.3091,2.3091,2.3091,2.3091,2.3091,3.6405,3.6405,3.6405,3.6405,3.6405,3.6405,3.6405,3.6405,3.6405,3.6405,3.6405,3.6157,3.5558,3.5495,3.5094,3.411,3.4022,3.3796,3.3275,3.3633,3.3897,3.3897,3.3985,3.4211,3.4587,3.4675,3.402,3.2653,3.2184,3.128,3.0045,2.9975,2.9429,2.8654,2.9318,2.9367,2.8982,2.9731,3.008,3.0156,3.0068,2.995,2.9868,3.0318,3.036,3.0272,3.0844,3.0976,3.1001,3.1075,3.107,3.1016,3.093,3.0905,3.0807,3.029,2.8439,2.6507,2.6196,2.5495,2.4701,2.4122,2.3754,2.3491,2.3335,2.3297,2.3187,2.2866,2.2785,2.2896,2.3227,2.3297,2.3333,2.3487,2.3547,2.346,2.3188,0.0,2.3144,2.3144,2.3135,2.3091,2.3091,2.3091,2.3091,2.3091,2.3091,2.3091,2.3091,2.3091,2.3091,2.3091,2.3091,2.3178,2.3309,2.343,2.436,2.5997,2.4317,2.394,2.4659,2.3734,2.3222,2.3091,2.3091,2.3091,2.3091,2.3091,2.3091,2.3091,2.3091,2.3091,2.3091,2.3091,2.3091,2.3091,3.6405,3.6405,3.6405,3.6405,3.6405,3.6405,3.6405,3.6405,3.6405,3.6405,3.6405,3.6157,3.5558,3.5495,3.5245,3.465,3.46,3.4361,3.3809,3.3847,3.3897,3.3897,3.4349,3.4412,3.4035,3.4487,3.436,3.3664,3.3576,3.3208,3.2531,3.2005,3.1682,3.1551,3.1215,3.1048,3.0973,3.1094,3.1411,3.18,3.1323,3.1424,3.1746,3.137,3.122,3.1254,3.1805,3.188,3.1799,3.2258,3.229,3.2056,3.1601,3.1496,3.1385,3.0819,3.0379,2.9634,2.7952,2.6295,2.5041,2.4925,2.4317,2.3744,2.3707,2.3697,2.3677,2.3606,2.3596,2.3617,2.3687,2.3697,2.3674,2.3537,2.3624,2.3667,2.346,0.0,2.346,2.346,2.3232,2.3091,2.3091,2.3091,2.3091,2.3091,2.3091,2.3091,2.3091,2.3091,2.3091,2.3091,2.3091,2.3484,2.4284,2.5031,2.5913,2.6969,2.5872,2.5453,2.5579,2.4701,2.3864,2.3091,2.3091,2.3091,2.3091,2.3091,2.3091,2.3091,2.3091,2.3091,2.3091,2.3091,2.3091,2.3091,3.6405,3.6405,3.6405,3.6405,3.6405,3.6405,3.6405,3.6405,3.6405,3.6405,3.6405,3.6304,3.6019,3.5981,3.5768,3.5169,3.5119,3.4881,3.4374,3.406,3.3897,3.3897,3.4148,3.4437,3.4731,3.4705,3.4705,3.4743,3.4487,3.406,3.3508,3.3244,3.2792,3.2202,3.1951,3.1675,3.1386,3.1386,3.1537,3.175,3.1486,3.1549,3.1775,3.1813,3.1838,3.1863,3.2127,3.2131,3.2097,3.2347,3.2349,3.2331,3.2381,3.2406,3.2294,3.1709,3.0842,2.9803,2.8733,2.7387,2.6251,2.6207,2.5777,2.5326,2.4956,2.4872,2.4754,2.4272,2.4186,2.4186,2.4186,2.4186,2.411,2.3894,2.3937,0.0,0.0,2.3667,2.3667,2.3667,2.345,2.3319,2.3319,2.3188,2.3091,2.3091,2.3091,2.3091,2.3091,2.3091,2.3091,2.3091,2.3604,2.4284,2.52,2.5115,2.5799,2.7185,2.5242,2.4606,2.5084,2.4155,2.3517,2.3091,2.3091,2.3091,2.3091,2.3091,2.3091,2.3091,2.3091,2.3091,2.3091,2.3091,2.3091,2.3091,3.6405,3.6405,3.6405,3.6405,3.6405,3.6405,3.6405,3.6405,3.6405,3.6405,3.6405,3.6405,3.6405,3.6405,3.6194,3.5768,3.5683,3.5458,3.4906,3.4512,3.4173,3.3909,3.3897,3.4349,3.5282,3.5019,3.5019,3.5307,3.5019,3.4625,3.4085,3.4085,3.3621,3.2792,3.2654,3.2365,3.1964,3.1838,3.1775,3.1763,3.1637,3.1587,3.1612,3.1901,3.2026,3.2039,3.2164,3.2215,3.2227,3.2365,3.2416,3.2491,3.293,3.3124,3.2993,3.2541,3.1392,3.0145,2.9711,2.8668,2.7752,2.762,2.7231,2.673,2.6235,2.611,2.583,2.4978,2.4775,2.4743,2.454,2.4658,2.4733,2.4529,0.0,0.0,0.0,2.4013,2.3884,2.3884,2.3711,2.358,2.358,2.3363,2.3188,2.3188,2.3144,2.3091,2.3091,2.3091,2.3178,2.344,2.4327,2.5242,2.6121,2.5453,2.5924,2.747,2.5158,2.4445,2.5084,2.4155,2.3604,2.3396,2.3178,2.3091,2.3091,2.3091,2.3091,2.3091,2.3091,2.3091,2.3091,2.3091,2.3091,2.3091,3.6405,3.6405,3.6405,3.6405,3.6405,3.6405,3.6405,3.6405,3.6405,3.6405,3.6405,3.6405,3.6405,3.6405,3.6392,3.6355,3.6342,3.6069,3.547,3.5395,3.4919,3.3935,3.3897,3.4173,3.4731,3.5194,3.5207,3.4776,3.5207,3.5157,3.4618,3.4618,3.4613,3.4467,3.401,3.3759,3.3684,3.3169,3.2955,3.2948,3.2365,3.2152,3.2102,3.1625,3.1449,3.1524,3.2026,3.2215,3.229,3.283,3.3018,3.3061,3.3111,3.3124,3.3111,3.3074,3.2938,3.2577,3.1542,3.0204,2.915,2.9155,2.8122,2.7058,2.7028,2.6987,2.6782,2.5872,2.5704,2.5463,2.4658,2.5137,2.5621,2.5453,0.0,0.0,2.5411,2.468,2.4153,2.4153,2.3937,2.3797,2.3797,2.359,2.346,2.346,2.3232,2.3091,2.3091,2.3091,2.3517,2.437,2.5242,2.6163,2.7092,2.701,2.747,2.8379,2.7389,2.6928,2.6969,2.6038,2.5158,2.437,2.3484,2.3091,2.3091,2.3091,2.3091,2.3091,2.3091,2.3091,2.3091,2.3091,2.3091,2.3091,3.6405,3.6405,3.6405,3.6405,3.6405,3.6405,3.6405,3.6405,3.6405,3.6405,3.6405,3.6405,3.6405,3.6405,3.6405,3.6405,3.6405,3.6317,3.6056,3.6056,3.5567,3.4462,3.4412,3.4512,3.4713,3.4881,3.4893,3.468,3.5232,3.5219,3.4726,3.5031,3.5006,3.4668,3.45,3.4412,3.4399,3.4186,3.4098,3.4073,3.3859,3.3771,3.3746,3.3533,3.3458,3.3445,3.3307,3.3257,3.3294,3.3508,3.3357,3.3174,3.3483,3.3357,3.3124,3.3124,3.3124,3.3023,3.2554,3.1805,3.0918,3.0264,2.9689,2.9032,2.8163,2.7971,2.7718,2.6771,2.6607,2.6494,2.6163,2.637,2.64,2.5788,0.0,2.5579,2.4978,2.4572,2.4378,2.4378,2.4196,2.4262,2.4787,2.4648,2.4723,2.5326,2.4723,2.4296,2.4168,2.4059,2.437,2.5284,2.6205,2.6846,2.7185,2.7185,2.7389,2.7684,2.6753,2.6329,2.6329,2.5955,2.5621,2.5284,2.4946,2.4488,2.3983,2.3983,2.3647,2.3091,2.3091,2.3091,2.3091,2.3091,2.3091,2.3091,3.6405,3.6405,3.6405,3.6405,3.6405,3.6405,3.6405,3.6405,3.6405,3.6405,3.6405,3.6405,3.6405,3.6405,3.6405,3.6405,3.6405,3.6405,3.6405,3.6405,3.5956,3.4969,3.4768,3.468,3.468,3.4856,3.4856,3.468,3.5232,3.5219,3.4726,3.5069,3.5132,3.4919,3.4801,3.4768,3.4919,3.4756,3.468,3.468,3.468,3.468,3.468,3.468,3.468,3.4675,3.4299,3.4161,3.4161,3.4161,3.3909,3.3658,3.4035,3.3771,3.3332,3.3332,3.3206,3.3124,3.3124,3.278,3.2265,3.1348,3.0984,3.0548,2.942,2.9166,2.8826,2.7753,2.7557,2.7435,2.7151,2.7354,2.7354,2.673,2.6648,2.6329,2.5432,2.5062,2.4903,2.4903,2.4775,2.5052,2.5902,2.5766,2.588,2.6565,2.5672,2.4872,2.4435,2.4734,2.5158,2.5777,2.6712,2.7348,2.7603,2.7603,2.7603,2.7592,2.6958,2.6659,2.6618,2.637,2.6246,2.6205,2.5913,2.5326,2.4498,2.4498,2.395,2.3091,2.3091,2.3091,2.3091,2.3091,2.3091,2.3091,3.6405,3.6405,3.6405,3.6405,3.6405,3.6405,3.6405,3.6405,3.6405,3.6405,3.6405,3.6405,3.6405,3.6405,3.6405,3.6405,3.6405,3.6405,3.6405,3.6405,3.6119,3.552,3.4981,3.4726,3.4726,3.5219,3.5232,3.468,3.5219,3.5207,3.468,3.468,3.4969,3.547,3.4919,3.4981,3.5458,3.4919,3.4726,3.4726,3.4726,3.4726,3.4726,3.4726,3.4726,3.4726,3.4726,3.4726,3.4726,3.4726,3.4726,3.4726,3.468,3.4349,3.3909,3.3909,3.352,3.3124,3.3124,3.3124,3.2943,3.2353,3.18,3.126,3.0733,3.062,3.0206,2.8782,2.8502,2.8223,2.7313,2.7879,2.8502,2.8502,2.8502,2.8171,2.7232,2.637,2.5819,2.5819,2.5819,2.6152,2.7028,2.6935,2.6812,2.6812,2.5755,2.4638,2.358,2.4999,2.5819,2.5819,2.6712,2.7644,2.8471,2.851,2.851,2.851,2.851,2.851,2.8471,2.7592,2.7226,2.7144,2.6246,2.5326,2.4498,2.4498,2.394,2.3091,2.3091,2.3091,2.3091,2.3091,2.3091,2.3091,3.6405,3.6405,3.6405,3.6405,3.6405,3.6405,3.6405,3.6405,3.6405,3.6405,3.6405,3.6405,3.6405,3.6405,3.6405,3.6405,3.6405,3.6405,3.6405,3.6405,3.6329,3.6119,3.5956,3.5692,3.5257,3.542,3.5232,3.468,3.4843,3.4843,3.468,3.468,3.4768,3.4919,3.4756,3.4768,3.4944,3.5157,3.5257,3.5295,3.5717,3.5868,3.5868,3.5868,3.5868,3.5868,3.5868,3.5868,3.5868,3.5868,3.5617,3.5194,3.4806,3.4613,3.4474,3.4474,3.4085,3.3658,3.3658,3.337,3.2943,3.2353,3.2089,3.1825,3.1286,3.0871,3.0478,3.0065,2.9677,2.9339,2.9052,2.9209,2.9209,2.8581,2.8502,2.8171,2.7232,2.6894,2.6689,2.6689,2.6689,2.7058,2.8011,2.8051,2.8251,2.8882,2.7718,2.6524,2.5432,2.6257,2.6794,2.6794,2.7632,2.8219,2.851,2.851,2.851,2.851,2.851,2.851,2.8471,2.8219,2.8099,2.8099,2.7846,2.6835,2.5411,2.5411,2.4478,2.3091,2.3091,2.3091,2.3091,2.3091,2.3091,2.3091,3.6405,3.6405,3.6405,3.6405,3.6405,3.6405,3.6405,3.6405,3.6405,3.6405,3.6405,3.6405,3.6405,3.6405,3.6405,3.6405,3.6405,3.6405,3.6405,3.6405,3.6405,3.6405,3.6405,3.6207,3.5868,3.5868,3.5604,3.5006,3.5006,3.4893,3.4713,3.45,3.4512,3.468,3.468,3.4806,3.5044,3.5629,3.5868,3.5893,3.6267,3.6405,3.6405,3.6405,3.6405,3.6405,3.6405,3.6405,3.6405,3.6405,3.6144,3.5818,3.5479,3.5228,3.5006,3.5006,3.4663,3.4173,3.396,3.3658,3.3269,3.2692,3.2554,3.2403,3.1838,3.1474,3.1122,3.0708,3.0357,3.0043,2.9829,2.9792,2.9624,2.9079,2.9,2.8712,2.7758,2.7637,2.7637,2.7637,2.7637,2.8011,2.8922,2.9,2.9079,2.9248,2.8752,2.7799,2.6381,2.7284,2.762,2.7226,2.8059,2.851,2.851,2.851,2.851,2.851,2.851,2.851,2.851,2.851,2.851,2.851,2.851,2.7672,2.6329,2.5944,2.4946,2.3604,2.3222,2.3091,2.3091,2.3091,2.3091,2.3091,3.6405,3.6405,3.6405,3.6405,3.6405,3.6405,3.6405,3.6405,3.6405,3.6405,3.6405,3.6405,3.6405,3.6405,3.6405,3.6405,3.6405,3.6405,3.6405,3.6405,3.6405,3.6405,3.6405,3.6405,3.6405,3.6405,3.6119,3.5571,3.552,3.5245,3.4776,3.4223,3.4248,3.468,3.468,3.4956,3.5458,3.6056,3.6329,3.6329,3.6392,3.6405,3.6405,3.6405,3.6405,3.6405,3.6405,3.6405,3.6405,3.6405,3.6405,3.6405,3.6405,3.6019,3.5571,3.5571,3.5182,3.4643,3.4186,3.3972,3.3771,3.3269,3.3162,3.2943,3.2416,3.2252,3.1938,3.0959,3.0721,3.052,2.9967,2.9867,2.9854,2.9804,2.9792,2.9534,2.8752,2.8633,2.8633,2.8633,2.8633,2.8922,2.9702,2.9792,2.9456,2.8621,2.9094,2.8609,2.6853,2.8051,2.8395,2.7389,2.8127,2.855,2.855,2.855,2.851,2.851,2.851,2.851,2.851,2.851,2.851,2.851,2.851,2.8007,2.7144,2.6205,2.5284,2.4413,2.3474,2.3091,2.3091,2.3091,2.3091,2.3091,3.6405,3.6405,3.6405,3.6405,3.6405,3.6405,3.6405,3.6405,3.6405,3.6405,3.6405,3.6405,3.6405,3.6405,3.6405,3.6405,3.6405,3.6405,3.6405,3.6405,3.6405,3.6405,3.6405,3.6405,3.6405,3.6405,3.6355,3.6182,3.5708,3.5445,3.5307,3.4756,3.4613,3.468,3.468,3.4743,3.4893,3.5445,3.5683,3.5768,3.6194,3.6405,3.6405,3.6405,3.6405,3.6405,3.6405,3.6405,3.6405,3.6405,3.6405,3.6405,3.6405,3.6329,3.6182,3.6182,3.5793,3.5295,3.5169,3.4562,3.3872,3.3759,3.3395,3.3086,3.2918,3.2541,3.2139,3.1913,3.1524,3.106,3.0532,3.0432,3.0294,2.9867,2.9792,2.9714,2.9546,2.9507,2.9507,2.9507,2.9507,2.9585,2.9792,2.9792,2.9611,2.9223,2.9341,2.9145,2.8554,2.8843,2.8922,2.8685,2.8855,2.8895,2.8724,2.8724,2.8657,2.851,2.851,2.851,2.851,2.851,2.851,2.851,2.851,2.8007,2.7144,2.6205,2.5284,2.4413,2.3474,2.3091,2.3091,2.3091,2.3091,2.3091,3.6405,3.6405,3.6405,3.6405,3.6405,3.6405,3.6405,3.6405,3.6405,3.6405,3.6405,3.6405,3.6405,3.6405,3.6405,3.6405,3.6405,3.6405,3.6405,3.6405,3.6405,3.6405,3.6405,3.6405,3.6405,3.6405,3.6405,3.6405,3.6069,3.5931,3.5931,3.5332,3.5069,3.5069,3.5069,3.5069,3.5107,3.5705,3.5931,3.5968,3.6292,3.6405,3.6405,3.6405,3.6405,3.6405,3.6405,3.6405,3.6405,3.6405,3.6405,3.6405,3.6405,3.6405,3.6405,3.6405,3.6157,3.5881,3.5571,3.5082,3.4562,3.4035,3.3684,3.3395,3.3174,3.2842,3.2554,3.2277,3.1989,3.1625,3.1085,3.0984,3.0809,3.0269,3.0181,3.0093,2.9829,2.9792,2.9792,2.9792,2.9792,2.9792,2.9792,2.9792,2.974,2.9599,2.9599,2.9482,2.9275,2.9236,2.9197,2.9091,2.9091,2.9052,2.8922,2.8843,2.8764,2.8657,2.855,2.851,2.851,2.851,2.851,2.851,2.851,2.8219,2.7765,2.6835,2.6216,2.5673,2.4284,2.3777,2.3691,2.3266,2.3091,2.3091,3.643,3.6405,3.6405,3.6405,3.6405,3.6405,3.6405,3.6405,3.6405,3.6405,3.6405,3.6405,3.6405,3.6405,3.6405,3.6405,3.6405,3.6405,3.6405,3.6405,3.6405,3.6405,3.6405,3.6405,3.6405,3.6405,3.6405,3.6405,3.6405,3.6405,3.6405,3.5893,3.5633,3.5633,3.5633,3.5633,3.5671,3.6169,3.6405,3.6405,3.6405,3.6405,3.6405,3.6405,3.6405,3.6405,3.6405,3.6405,3.6405,3.6405,3.6405,3.6405,3.6405,3.6405,3.6405,3.6405,3.6405,3.6304,3.5805,3.5571,3.5282,3.4412,3.411,3.3897,3.3345,3.3187,3.2943,3.2466,3.2353,3.219,3.1637,3.1537,3.1361,3.0834,3.0746,3.0583,3.0131,2.9993,2.993,2.993,2.9854,2.9792,2.9792,2.9792,2.9792,2.9792,2.9792,2.9702,2.947,2.947,2.9392,2.9209,2.9209,2.9221,2.917,2.9,2.887,2.8791,2.8618,2.855,2.851,2.851,2.851,2.851,2.851,2.851,2.8431,2.7389,2.6969,2.6794,2.4956,2.4241,2.4155,2.3396,2.3091,2.3091,3.6505,3.6405,3.6405,3.6405,3.6405,3.6405,3.6405,3.6405,3.6405,3.6405,3.6405,3.6405,3.6405,3.6405,3.6405,3.6405,3.6405,3.6405,3.6405,3.6405,3.6405,3.6405,3.6405,3.6405,3.6405,3.6405,3.6405,3.6405,3.6405,3.6405,3.6405,3.6329,3.6304,3.6304,3.6304,3.6304,3.6304,3.638,3.6405,3.6405,3.6405,3.6405,3.6405,3.6405,3.6405,3.6405,3.6405,3.6405,3.6405,3.6405,3.6405,3.6405,3.6405,3.6405,3.6405,3.6405,3.6405,3.6392,3.6317,3.5906,3.547,3.5307,3.4919,3.4462,3.3909,3.342,3.3099,3.3023,3.2998,3.278,3.2202,3.2102,3.1926,3.1373,3.1286,3.126,3.1185,3.0783,3.0507,3.0507,3.008,2.9792,2.9792,2.9792,2.9792,2.9792,2.9792,2.9792,2.9753,2.9753,2.974,2.9714,2.9714,2.9573,2.9341,2.9341,2.9145,2.8791,2.8764,2.8657,2.851,2.851,2.851,2.851,2.851,2.851,2.8391,2.6659,2.5997,2.583,2.3983,2.3309,2.3266,2.3135,2.3091,2.3091,3.7262,3.7036,3.6923,3.7224,3.7274,3.7174,3.6872,3.687,3.6757,3.6455,3.6405,3.6405,3.6405,3.6405,3.6405,3.6405,3.6405,3.6405,3.6405,3.6405,3.6405,3.6405,3.6405,3.6405,3.6405,3.6405,3.6405,3.6405,3.6405,3.6405,3.6405,3.6405,3.6405,3.6405,3.6405,3.6405,3.6405,3.6405,3.6405,3.6405,3.6405,3.6405,3.6405,3.6405,3.6405,3.6405,3.6405,3.6405,3.6405,3.6405,3.6405,3.6405,3.6405,3.6405,3.6405,3.6405,3.6405,3.6405,3.6405,3.6194,3.5931,3.5571,3.532,3.4994,3.4487,3.3935,3.3445,3.3144,3.3124,3.3006,3.2742,3.2692,3.2503,3.1938,3.1851,3.1738,3.1436,3.1198,3.0947,3.0658,3.0131,2.9792,2.9792,2.9792,2.9792,2.9792,2.9792,2.9792,2.9792,2.9792,2.9792,2.9792,2.9792,2.974,2.9611,2.947,2.9302,2.9145,2.891,2.8685,2.851,2.851,2.851,2.851,2.851,2.851,2.8431,2.762,2.6999,2.6453,2.5115,2.3983,2.3091,2.3091,2.3091,2.3091]}]]